[[{"header":{"parameterUnit":"m.s-1","parameterCategory":1,"la1":30.6,"la2":29.2853,"lo1":-89.7004,"lo2":-87.6739,"dy":0.0162,"dx":0.0183,"nx":112,"ny":82,"refTime":"2023-11-03T18:00:00:Z","depth":0,"parameterNumber":2,"parameterNumberName":"U-component_of_WINDS"},"data":[0.0,0.0,0.0,0.0,0.0,0.0,0.0,0.0,0.0,0.0,0.0,0.0,0.0,0.0,0.0,0.0,0.0,0.0,0.0,0.0,0.0,0.0,0.0,0.0,0.0,0.0,0.0,0.0,0.0,0.0,0.0,0.0,0.0,0.0,0.0,0.0,0.0,0.0,0.0,0.0,0.0,0.0,0.0,0.0,0.0,0.0,0.0,0.0,0.0,0.0,0.0,0.0,0.0,0.0,0.0,0.0,0.0,0.0,0.0,0.0,0.0,0.0,0.0,0.0,0.0,0.0,0.0,0.0,0.0,0.0,0.0,0.0,0.0,0.0,0.0,0.0,0.0,0.0,0.0,0.0,0.0,0.0,0.0,0.0,0.0,0.0,0.0,0.0,0.0,0.0,2.0544,2.5054,2.9352,3.1566,3.0716,3.0406,2.7893,2.2345,0.0,0.0,0.0,0.0,0.0,0.0,0.0,0.0,0.0,0.0,0.0,0.0,0.0,0.0,0.0,0.0,0.0,0.0,0.0,0.0,0.0,0.0,0.0,0.0,0.0,0.0,0.0,0.0,0.0,0.0,0.0,0.0,0.0,0.0,0.0,0.0,0.0,0.0,0.0,0.0,0.0,0.0,0.0,0.0,0.0,0.0,0.0,0.0,0.0,0.0,0.0,0.0,0.0,0.0,0.0,0.0,0.0,0.0,0.0,0.0,0.0,0.0,0.0,0.0,0.0,0.0,0.0,0.0,0.0,0.0,0.0,0.0,0.0,0.0,0.0,0.0,0.0,0.0,0.0,0.0,0.0,0.0,0.0,0.0,0.0,0.0,0.0,0.0,0.0,0.0,0.0,0.0,0.0,0.0,0.0,0.0,0.0,0.0,0.0,0.0,0.0,0.0,0.0,0.0,2.2156,2.8154,3.0417,3.143,3.1284,3.0003,2.7395,2.3088,0.0,0.0,0.0,0.0,0.0,0.0,0.0,0.0,0.0,0.0,0.0,0.0,0.0,0.0,0.0,0.0,0.0,0.0,0.0,0.0,0.0,0.0,0.0,0.0,0.0,0.0,0.0,0.0,0.0,0.0,0.0,0.0,0.0,0.0,0.0,0.0,0.0,0.0,0.0,0.0,0.0,0.0,0.0,0.0,0.0,0.0,0.0,0.0,0.0,0.0,0.0,0.0,0.0,0.0,0.0,0.0,0.0,0.0,0.0,0.0,0.0,0.0,0.0,0.0,0.0,0.0,0.0,0.0,0.0,0.0,0.0,0.0,0.0,0.0,0.0,0.0,0.0,0.0,0.0,0.0,0.0,0.0,0.0,0.0,0.0,0.0,0.0,0.0,0.0,0.0,0.0,0.0,0.0,0.0,0.0,0.0,0.0,0.0,0.0,0.0,0.0,0.0,0.0,2.1144,2.4176,2.8735,3.0527,3.1225,3.08,2.8867,2.6167,2.2577,2.1149,0.0,0.0,0.0,0.0,0.0,0.0,0.0,0.0,0.0,0.0,0.0,0.0,0.0,0.0,0.0,0.0,0.0,0.0,0.0,0.0,0.0,0.0,0.0,0.0,0.0,0.0,0.0,0.0,0.0,0.0,0.0,0.0,0.0,0.0,0.0,0.0,0.0,0.0,0.0,0.0,0.0,0.0,0.0,0.0,0.0,0.0,0.0,0.0,0.0,0.0,0.0,0.0,0.0,0.0,0.0,0.0,0.0,0.0,0.0,0.0,0.0,0.0,0.0,0.0,0.0,0.0,0.0,0.0,0.0,0.0,0.0,0.0,0.0,0.0,0.0,0.0,0.0,0.0,0.0,0.0,0.0,0.0,0.0,0.0,0.0,0.0,0.0,0.0,0.0,0.0,0.0,0.0,0.0,0.0,0.0,0.0,0.0,0.0,0.0,0.0,0.0,0.0,2.3597,2.5854,2.9023,3.0239,3.0577,2.9968,2.7527,2.4814,2.198,2.005,0.0,0.0,0.0,0.0,0.0,0.0,0.0,0.0,0.0,0.0,0.0,0.0,0.0,0.0,0.0,0.0,0.0,0.0,0.0,0.0,0.0,0.0,0.0,0.0,0.0,0.0,0.0,0.0,0.0,0.0,0.0,0.0,0.0,0.0,0.0,0.0,0.0,0.0,0.0,0.0,0.0,0.0,0.0,0.0,0.0,0.0,0.0,0.0,0.0,0.0,0.0,0.0,0.0,0.0,0.0,0.0,0.0,0.0,0.0,0.0,0.0,0.0,0.0,0.0,0.0,0.0,0.0,0.0,0.0,0.0,0.0,0.0,0.0,0.0,0.0,0.0,0.0,0.0,0.0,0.0,0.0,0.0,0.0,0.0,0.0,0.0,0.0,0.0,0.0,0.0,0.0,0.0,0.0,0.0,0.0,0.0,0.0,0.0,0.0,0.0,0.0,0.0,2.407,2.6627,3.0027,2.9652,2.9152,2.9094,2.6188,2.3625,2.1906,1.953,0.0,0.0,0.0,0.0,0.0,0.0,0.0,0.0,0.0,0.0,0.0,0.0,0.0,0.0,0.0,0.0,0.0,0.0,0.0,0.0,0.0,0.0,0.0,0.0,0.0,0.0,0.0,0.0,0.0,0.0,0.0,0.0,0.0,0.0,0.0,0.0,0.0,0.0,0.0,0.0,0.0,0.0,0.0,0.0,0.0,0.0,0.0,0.0,0.0,0.0,0.0,0.0,0.0,0.0,0.0,0.0,0.0,0.0,0.0,0.0,0.0,0.0,0.0,0.0,0.0,0.0,0.0,0.0,0.0,0.0,0.0,0.0,0.0,0.0,0.0,0.0,0.0,0.0,0.0,0.0,0.0,0.0,0.0,0.0,0.0,0.0,0.0,0.0,0.0,0.0,0.0,0.0,0.0,0.0,0.0,0.0,0.0,0.0,0.0,0.0,0.0,0.0,2.3452,2.516,2.8462,2.8483,2.7637,2.613,2.4442,2.2536,2.038,0.0,0.0,0.0,0.0,0.0,0.0,0.0,0.0,0.0,0.0,0.0,0.0,0.0,0.0,0.0,0.0,0.0,0.0,0.0,0.0,0.0,0.0,0.0,0.0,0.0,0.0,0.0,0.0,0.0,0.0,0.0,0.0,0.0,0.0,0.0,0.0,0.0,0.0,0.0,0.0,0.0,0.0,0.0,0.0,0.0,0.0,0.0,0.0,0.0,0.0,0.0,0.0,0.0,0.0,0.0,0.0,0.0,0.0,0.0,0.0,0.0,0.0,0.0,0.0,0.0,0.0,0.0,0.0,0.0,0.0,0.0,0.0,0.0,0.0,0.0,0.0,0.0,0.0,0.0,0.0,0.0,0.0,0.0,0.0,0.0,0.0,0.0,0.0,0.0,0.0,0.0,0.0,0.0,0.0,0.0,0.0,0.0,0.0,0.0,0.0,0.0,0.0,2.229,2.311,2.4426,2.7129,2.7187,2.6271,2.4357,2.2972,2.1485,1.9787,0.0,0.0,0.0,0.0,0.0,0.0,0.0,0.0,0.0,0.0,0.0,0.0,0.0,0.0,0.0,0.0,0.0,0.0,0.0,0.0,0.0,0.0,0.0,0.0,0.0,0.0,0.0,0.0,0.0,0.0,0.0,0.0,0.0,0.0,0.0,0.0,0.0,0.0,0.0,0.0,0.0,0.0,0.0,0.0,0.0,0.0,0.0,0.0,0.0,0.0,0.0,0.0,0.0,0.0,0.0,0.0,0.0,0.0,0.0,0.0,0.0,0.0,0.0,0.0,0.0,0.0,0.0,0.0,0.0,0.0,0.0,0.0,0.0,0.0,0.0,0.0,0.0,0.0,0.0,0.0,0.0,0.0,0.0,0.0,0.0,0.0,0.0,0.0,0.0,0.0,0.0,0.0,0.0,0.0,0.0,0.0,0.0,0.0,0.0,0.0,0.0,0.0,2.1704,2.3237,2.4795,2.6405,2.5865,2.5065,2.4247,2.1926,2.0507,0.0,0.0,0.0,0.0,0.0,0.0,0.0,0.0,0.0,0.0,0.0,0.0,0.0,0.0,0.0,0.0,0.0,0.0,0.0,0.0,0.0,0.0,0.0,0.0,0.0,0.0,0.0,0.0,0.0,0.0,0.0,0.0,0.0,0.0,0.0,0.0,0.0,0.0,0.0,0.0,0.0,0.0,0.0,0.0,0.0,0.0,0.0,0.0,0.0,0.0,0.0,0.0,0.0,0.0,0.0,0.0,0.0,0.0,0.0,0.0,0.0,0.0,0.0,0.0,0.0,0.0,0.0,0.0,0.0,0.0,0.0,0.0,0.0,0.0,0.0,0.0,0.0,0.0,0.0,0.0,0.0,0.0,0.0,0.0,0.0,0.0,0.0,0.0,0.0,0.0,0.0,0.0,0.0,0.0,0.0,0.0,0.0,0.0,0.0,0.0,0.0,0.0,0.0,2.2384,2.3068,2.3967,2.5574,2.5542,2.4606,2.2675,2.1847,2.0909,1.9732,0.0,0.0,0.0,0.0,0.0,0.0,0.0,0.0,0.0,0.0,0.0,0.0,0.0,0.0,0.0,0.0,0.0,0.0,0.0,0.0,0.0,0.0,0.0,0.0,0.0,0.0,0.0,0.0,0.0,0.0,0.0,0.0,0.0,0.0,0.0,0.0,0.0,0.0,0.0,0.0,0.0,0.0,0.0,0.0,0.0,0.0,0.0,0.0,0.0,0.0,0.0,0.0,0.0,0.0,0.0,0.0,0.0,0.0,0.0,0.0,0.0,0.0,0.0,0.0,0.0,0.0,0.0,0.0,0.0,0.0,0.0,0.0,0.0,0.0,0.0,0.0,0.0,0.0,0.0,0.0,0.0,0.0,0.0,0.0,0.0,0.0,0.0,0.0,0.0,0.0,0.0,0.0,0.0,0.0,0.0,0.0,0.0,0.0,0.0,0.0,0.0,0.0,2.2279,2.2806,2.3488,2.4784,2.4915,2.4071,2.198,2.1796,2.108,1.9407,0.0,0.0,0.0,0.0,0.0,0.0,0.0,0.0,0.0,0.0,0.0,0.0,0.0,0.0,0.0,0.0,0.0,0.0,0.0,0.0,0.0,0.0,0.0,0.0,0.0,0.0,0.0,0.0,0.0,0.0,0.0,0.0,0.0,0.0,0.0,0.0,0.0,0.0,0.0,0.0,0.0,0.0,0.0,0.0,0.0,0.0,0.0,0.0,0.0,0.0,0.0,0.0,0.0,0.0,0.0,0.0,0.0,0.0,0.0,0.0,0.0,0.0,0.0,0.0,0.0,0.0,0.0,0.0,0.0,0.0,0.0,0.0,0.0,0.0,0.0,0.0,0.0,0.0,0.0,0.0,0.0,0.0,0.0,0.0,0.0,0.0,0.0,0.0,0.0,0.0,0.0,0.0,0.0,0.0,0.0,0.0,0.0,0.0,0.0,0.0,0.0,0.0,2.1684,2.2499,2.3302,2.4119,2.4192,2.3552,2.1943,2.1796,2.108,1.9407,0.0,0.0,0.0,0.0,0.0,0.0,0.0,0.0,0.0,0.0,0.0,0.0,0.0,0.0,0.0,0.0,0.0,0.0,0.0,0.0,0.0,0.0,0.0,0.0,0.0,0.0,0.0,0.0,0.0,0.0,0.0,0.0,0.0,0.0,0.0,0.0,0.0,0.0,0.0,0.0,0.0,0.0,0.0,0.0,0.0,0.0,0.0,0.0,0.0,0.0,0.0,0.0,0.0,0.0,0.0,0.0,0.0,0.0,0.0,0.0,1.9563,0.0,0.0,0.0,0.0,0.0,0.0,0.0,0.0,0.0,0.0,0.0,0.0,0.0,0.0,0.0,0.0,0.0,0.0,0.0,0.0,0.0,0.0,0.0,0.0,0.0,0.0,0.0,0.0,0.0,0.0,0.0,0.0,0.0,0.0,0.0,0.0,0.0,0.0,0.0,0.0,0.0,2.1684,2.2499,2.3302,2.4119,2.4192,2.3552,2.1943,2.1796,2.108,1.9407,1.9297,0.0,0.0,0.0,0.0,0.0,0.0,0.0,0.0,0.0,0.0,0.0,0.0,0.0,0.0,0.0,0.0,0.0,0.0,0.0,0.0,0.0,0.0,0.0,0.0,0.0,0.0,0.0,0.0,0.0,0.0,0.0,0.0,0.0,0.0,0.0,0.0,0.0,0.0,0.0,0.0,0.0,0.0,0.0,0.0,0.0,0.0,0.0,0.0,0.0,0.0,0.0,0.0,0.0,0.0,0.0,0.0,0.0,0.0,0.0,0.0,2.1328,0.0,0.0,0.0,0.0,0.0,0.0,0.0,0.0,0.0,0.0,0.0,0.0,0.0,0.0,0.0,0.0,0.0,0.0,0.0,0.0,0.0,0.0,0.0,0.0,0.0,0.0,0.0,0.0,0.0,0.0,0.0,0.0,0.0,0.0,0.0,0.0,0.0,0.0,0.0,0.0,2.2802,2.3662,2.4302,2.4729,2.4787,2.4123,2.2503,2.2012,2.1243,1.9966,1.9513,0.0,0.0,0.0,0.0,0.0,0.0,0.0,0.0,0.0,0.0,0.0,0.0,0.0,0.0,0.0,0.0,0.0,0.0,0.0,0.0,0.0,0.0,0.0,0.0,0.0,0.0,0.0,0.0,0.0,0.0,0.0,0.0,0.0,0.0,0.0,0.0,0.0,0.0,0.0,0.0,0.0,0.0,0.0,0.0,0.0,0.0,0.0,0.0,0.0,0.0,0.0,0.0,0.0,2.6198,2.7212,2.8407,2.7847,2.8045,2.8711,2.581,2.3772,2.2506,2.2496,0.0,0.0,0.0,0.0,0.0,0.0,0.0,0.0,0.0,0.0,0.0,0.0,0.0,0.0,0.0,0.0,0.0,0.0,0.0,0.0,0.0,0.0,0.0,0.0,2.3186,2.2531,2.0831,0.0,0.0,0.0,0.0,0.0,0.0,0.0,0.0,0.0,0.0,0.0,2.4027,2.5154,2.5707,2.5434,2.5524,2.4892,2.3153,2.2391,2.1586,2.0562,1.9875,1.9442,0.0,0.0,0.0,0.0,0.0,0.0,0.0,0.0,0.0,0.0,0.0,0.0,0.0,0.0,0.0,0.0,0.0,0.0,0.0,0.0,0.0,0.0,0.0,0.0,0.0,0.0,0.0,0.0,0.0,0.0,0.0,0.0,2.0737,1.9905,0.0,0.0,0.0,0.0,0.0,0.0,0.0,0.0,0.0,0.0,0.0,0.0,0.0,2.4949,2.7087,2.7753,2.8289,2.8692,3.0124,3.054,3.0093,3.0525,3.1143,3.184,3.0535,0.0,2.5165,2.3812,0.0,0.0,0.0,0.0,0.0,0.0,0.0,0.0,0.0,0.0,0.0,0.0,0.0,0.0,0.0,0.0,0.0,0.0,0.0,0.0,0.0,0.0,2.3915,2.4723,2.4361,2.3932,0.0,2.2204,2.0281,2.0281,1.9703,0.0,0.0,0.0,0.0,0.0,0.0,0.0,2.4174,2.6122,2.6951,2.5545,2.603,2.5506,2.3208,2.2898,2.2162,2.0598,2.0399,2.0038,1.9334,1.9297,0.0,0.0,0.0,0.0,0.0,0.0,0.0,0.0,0.0,0.0,0.0,0.0,0.0,0.0,0.0,0.0,0.0,0.0,0.0,0.0,0.0,0.0,0.0,0.0,0.0,0.0,0.0,0.0,0.0,2.1055,2.1337,2.0003,2.0999,2.1285,0.0,0.0,0.0,0.0,0.0,0.0,0.0,0.0,0.0,2.5845,2.6674,2.78,2.9274,2.9922,3.0729,3.1737,3.2778,3.3587,3.4102,3.3943,3.432,3.5042,3.4175,3.2686,3.0621,2.7698,2.5429,2.372,0.0,0.0,0.0,0.0,2.3474,2.4535,2.4599,2.4608,2.4647,2.4813,0.0,0.0,0.0,0.0,0.0,0.0,0.0,0.0,0.0,0.0,2.6822,2.7595,2.7522,2.7353,2.7665,2.5941,2.3814,0.0,2.0679,2.0002,2.0554,0.0,0.0,0.0,0.0,2.5207,2.6104,2.7937,2.8705,2.7548,2.7328,2.6665,2.5155,2.3634,2.2463,2.1728,2.0829,2.0175,1.9813,1.9368,1.9127,0.0,0.0,0.0,0.0,0.0,0.0,0.0,0.0,0.0,0.0,0.0,0.0,0.0,0.0,0.0,0.0,0.0,0.0,0.0,0.0,0.0,0.0,0.0,0.0,0.0,0.0,0.0,0.0,2.1694,2.2191,2.0113,2.1869,2.2424,0.0,0.0,0.0,0.0,0.0,0.0,2.5312,2.678,2.8038,2.9013,2.9832,3.0836,3.2028,3.2676,3.3603,3.4808,3.5697,3.6635,3.7607,3.7235,3.73,3.7665,3.7109,3.6405,3.5361,3.1426,2.8563,2.6633,2.6344,2.5944,2.5581,2.5955,2.6756,2.7678,2.8028,2.8143,2.8034,2.7452,2.6594,2.5444,2.3677,0.0,0.0,0.0,0.0,2.6309,2.7253,2.8542,2.9832,3.0802,3.0865,3.0723,3.0723,2.9463,2.7384,0.0,2.2466,2.1666,2.2189,0.0,0.0,0.0,0.0,2.6771,2.8177,2.9768,3.0387,2.9356,2.8921,2.8202,2.6986,2.4874,2.3427,2.2931,2.1574,2.0596,2.0194,1.9585,1.9182,1.9041,0.0,0.0,0.0,0.0,0.0,0.0,0.0,0.0,0.0,0.0,0.0,0.0,0.0,0.0,0.0,0.0,0.0,0.0,0.0,0.0,0.0,0.0,0.0,0.0,0.0,0.0,0.0,0.0,0.0,2.0197,2.3363,0.0,0.0,0.0,0.0,2.4414,2.6346,2.7577,2.7719,2.9188,3.0684,3.2128,3.2959,3.4459,3.6739,3.7479,3.7924,3.8089,3.9512,3.989,3.9301,3.9967,3.9912,3.9273,3.926,3.877,3.7736,3.3822,3.1704,3.0737,2.9146,2.9013,2.9607,2.8803,2.9559,3.0843,3.0138,2.9874,3.0244,3.2448,3.2106,3.0388,2.8027,2.6798,0.0,0.0,2.787,2.8871,3.0371,3.139,3.2419,3.3987,3.377,3.3212,3.3212,3.1948,2.9868,0.0,2.5335,2.4554,2.3904,0.0,2.519,2.6149,2.7616,2.8928,2.9779,3.1295,3.1696,3.0125,3.0654,3.0186,2.7833,2.6873,2.5646,2.385,2.2898,2.1709,2.017,2.0009,1.9703,1.9194,1.8802,0.0,0.0,0.0,0.0,0.0,0.0,0.0,0.0,0.0,0.0,0.0,0.0,0.0,0.0,0.0,0.0,0.0,0.0,0.0,0.0,0.0,0.0,0.0,0.0,0.0,0.0,0.0,0.0,2.5482,2.8078,0.0,2.6605,2.7255,2.7918,2.8173,2.9429,3.0582,3.1525,3.2993,3.4284,3.5325,3.6646,3.7723,3.8573,3.931,3.9686,3.9716,4.0243,4.0352,4.0121,4.0388,4.0356,4.0107,4.0107,3.9944,3.9532,3.7666,3.5814,3.4047,3.2933,3.2371,3.2211,3.2425,3.3209,3.4115,3.3836,3.3727,3.3622,3.2915,3.196,3.0907,3.0051,2.9954,3.0195,3.0457,3.148,3.2614,3.3176,3.3914,3.4653,3.5232,3.5156,3.4943,3.4943,3.449,3.344,3.1253,2.8519,2.6795,2.7616,2.7565,2.8058,2.9963,3.119,3.1989,3.2277,3.3723,3.3926,3.1825,3.1696,3.0855,2.8665,2.6925,2.5524,2.4515,2.2695,2.1345,2.0644,1.9606,1.8886,1.8566,1.8378,1.8308,0.0,0.0,0.0,0.0,0.0,0.0,0.0,0.0,0.0,0.0,0.0,0.0,0.0,0.0,0.0,0.0,0.0,0.0,0.0,0.0,0.0,0.0,0.0,0.0,0.0,2.7093,2.9313,2.931,3.1638,3.2577,3.0857,3.0881,3.1259,3.1836,3.2794,3.3879,3.5081,3.6074,3.7087,3.8146,3.8975,3.9518,3.9767,4.0537,4.0768,4.0515,4.1044,4.1171,4.0913,4.1193,4.1153,4.0913,4.1193,4.1153,4.0877,4.0379,3.9234,3.7654,3.6323,3.5494,3.5077,3.562,3.6146,3.6612,3.6612,3.6612,3.6305,3.4433,3.3458,3.2969,3.2708,3.2995,3.3465,3.3741,3.4592,3.5476,3.5747,3.6214,3.6612,3.6612,3.6612,3.654,3.6268,3.62,3.5816,3.4476,3.1843,3.0013,3.0589,3.0458,3.0831,3.2488,3.3415,3.3938,3.3938,3.5106,3.5346,3.3774,3.307,3.1931,3.0034,2.8061,2.6239,2.4652,2.311,2.1692,2.0446,1.9839,1.9248,1.8682,1.8819,1.8707,1.8373,0.0,0.0,0.0,0.0,0.0,0.0,0.0,0.0,0.0,0.0,0.0,0.0,0.0,0.0,0.0,0.0,0.0,0.0,0.0,0.0,0.0,0.0,0.0,2.4939,2.9902,3.2957,3.1341,3.3821,3.5142,3.3778,3.3754,3.4261,3.5283,3.6469,3.7452,3.8223,3.8277,3.8957,4.0442,3.9835,3.9804,4.0533,4.1343,4.1347,4.0587,4.2181,4.252,4.1795,4.2574,4.2502,4.1818,4.2579,4.2466,4.1746,4.1705,4.1705,4.1474,3.917,3.8277,3.8277,3.8277,3.8259,3.8237,3.8237,3.8223,3.8078,3.7285,3.7049,3.6882,3.6101,3.5862,3.6047,3.6828,3.7049,3.7212,3.8005,3.8205,3.8205,3.8205,3.8205,3.7987,3.7212,3.7049,3.6806,3.5993,3.5232,3.4204,3.26,3.2958,3.3462,3.3462,3.4146,0.0,3.4671,3.5359,3.5822,3.5796,3.4801,3.3498,3.1873,3.0342,2.7944,2.4369,2.419,2.2783,1.9602,2.0748,2.0886,1.9637,2.0125,1.9915,1.8967,0.0,0.0,0.0,0.0,0.0,0.0,0.0,0.0,0.0,0.0,0.0,0.0,0.0,0.0,0.0,0.0,0.0,0.0,0.0,0.0,0.0,2.7967,3.0589,3.0133,3.2884,3.543,3.6755,3.8518,3.9413,3.888,3.8994,3.9095,3.9046,3.9539,3.9843,3.9862,3.9867,4.0066,4.0483,4.0877,4.1166,4.1365,4.2171,4.2452,4.2253,4.3285,4.3648,4.3444,4.3666,4.3648,4.3425,4.3055,4.276,4.2525,4.1945,4.1705,4.1578,4.0356,3.9867,3.9867,3.9867,3.9532,3.907,3.907,3.8694,3.8168,3.7933,3.786,3.7824,3.7603,3.7544,3.758,3.7806,3.786,3.7915,3.8146,3.8205,3.8205,3.8205,3.8205,3.8132,3.7915,3.786,3.7625,3.6828,3.6969,3.6693,3.5091,3.4997,3.5138,3.5138,3.5323,0.0,3.6262,3.6538,3.6322,3.5458,3.5393,3.4066,3.0763,2.9386,2.7656,2.52,2.3475,2.2094,2.1048,2.0812,2.0452,1.9892,2.0026,2.0259,0.0,0.0,0.0,0.0,0.0,0.0,0.0,0.0,0.0,0.0,0.0,0.0,0.0,0.0,0.0,0.0,0.0,0.0,0.0,0.0,0.0,0.0,3.1472,3.4363,3.528,3.684,3.8569,4.0366,4.1165,4.1705,4.2046,4.137,4.0978,4.1158,4.0894,4.0805,4.0994,4.1003,4.1311,4.199,4.2135,4.2533,4.3199,4.334,4.358,4.3901,4.439,4.4607,4.4607,4.4607,4.4607,4.4589,4.4105,4.3901,4.3865,4.3403,4.2999,0.0,0.0,0.0,0.0,0.0,4.0229,3.9858,3.9858,3.9355,3.8707,3.8707,3.8476,3.8205,3.8205,3.8205,3.8205,3.8205,3.8205,3.8205,3.8205,3.8205,3.8205,3.8205,3.8205,3.8205,3.8205,3.8205,3.806,3.7589,3.7878,0.0,3.6526,3.658,3.6576,3.5898,3.5949,3.6093,3.6183,3.6384,3.6358,3.5945,3.542,3.3922,3.0992,2.9282,0.0,0.0,0.0,2.2482,2.1925,2.1146,0.0,0.0,0.0,2.1035,2.1194,0.0,0.0,0.0,2.1676,2.1706,0.0,0.0,0.0,0.0,0.0,0.0,0.0,0.0,0.0,0.0,0.0,0.0,0.0,0.0,0.0,0.0,3.485,3.7118,3.9972,4.0954,4.1684,4.2494,4.2343,4.2609,4.3638,4.202,4.1265,4.2135,4.1487,4.1311,4.1945,0.0,0.0,0.0,0.0,4.3865,4.5296,4.4589,4.4584,4.5291,4.5399,4.5436,4.5436,4.5436,4.5436,4.5436,4.5345,4.5291,4.5291,4.5291,4.4825,4.3883,4.1646,4.0773,4.0773,4.0773,4.0718,4.0641,4.0641,0.0,0.0,3.9518,3.9047,3.8454,3.8454,3.8454,3.844,3.8363,3.8345,3.8309,3.8223,3.8205,3.8205,3.8205,3.8205,3.8205,3.8205,3.8205,3.8205,3.8205,3.8205,3.7969,3.7267,3.7643,3.7548,3.6025,3.6105,3.6089,3.5389,3.5629,3.6124,3.6834,0.0,0.0,3.1986,2.9803,2.7145,2.3977,2.3823,2.3374,2.2348,2.1671,2.1326,2.1326,2.1968,2.1985,2.1329,2.1985,2.23,2.23,2.23,2.23,0.0,0.0,0.0,0.0,0.0,0.0,0.0,0.0,0.0,0.0,0.0,0.0,0.0,0.0,0.0,3.4313,3.7595,4.0502,4.2404,4.2613,4.2709,4.3105,4.2905,4.309,4.3936,4.3642,4.3219,4.2776,4.3767,4.4168,4.3661,4.4258,4.4747,4.5055,4.4915,4.4988,4.5291,4.5146,4.5146,4.5309,0.0,0.0,4.6269,4.6269,4.6269,4.6227,4.558,4.5291,4.5291,4.5291,4.4825,4.3992,4.2873,4.2434,4.2434,4.2434,4.2026,4.1474,4.1474,4.0949,4.0284,4.0284,4.0175,4.0066,4.0066,4.0066,0.0,3.9337,3.9178,3.9015,3.8368,3.8205,3.8205,3.8205,3.8205,3.8205,3.8205,3.8205,3.8205,3.8205,3.8205,3.815,3.7987,3.7557,3.6918,3.5935,3.5865,3.6099,3.6563,3.6378,3.6374,3.6846,3.575,3.4223,3.2357,3.0701,2.8704,2.6213,2.4446,2.313,2.2337,2.2168,2.2087,2.2087,2.2236,2.2232,2.2087,2.2232,2.23,2.23,2.23,2.23,0.0,0.0,0.0,0.0,0.0,0.0,0.0,0.0,0.0,0.0,0.0,2.7327,2.9503,0.0,3.4976,3.8276,4.0665,4.2674,4.4323,4.4297,4.4149,4.4282,4.3824,4.3815,4.4626,4.4698,4.4535,4.4137,4.4843,4.5128,4.4716,4.5454,4.5906,4.5906,4.5906,4.6082,4.6499,4.6106,4.6106,4.6499,4.6915,4.7096,4.7096,4.7096,4.7096,4.7078,4.668,4.6499,4.6463,4.6069,4.5653,4.5182,4.3974,4.3254,4.2892,4.2892,4.2651,4.2298,4.2298,4.1768,4.1094,4.1094,4.084,4.0496,4.0496,4.0496,4.0424,4.0053,3.9944,3.9858,3.946,3.9084,3.8798,3.8798,3.8494,3.8205,3.8205,3.8205,3.8205,3.8205,3.802,3.7849,3.7849,3.7354,3.683,3.6455,3.6221,3.6164,3.6332,3.5998,3.5885,3.6217,3.5406,3.4307,3.2958,3.0823,2.8425,2.5773,2.5244,2.4564,2.3447,2.3396,2.3396,2.3396,2.3038,2.3038,2.3396,2.3774,2.3957,2.3957,2.4336,2.3913,0.0,0.0,0.0,0.0,0.0,0.0,0.0,2.4138,2.547,2.7798,2.8925,3.0587,3.4195,3.5691,3.7746,4.1891,4.3191,4.4154,4.5511,4.5468,4.5363,4.5508,4.4825,4.4644,4.5454,4.5526,4.5472,4.5309,4.5599,4.5707,4.5544,4.63,4.6734,4.6734,4.6734,4.7037,4.7689,4.706,4.706,4.7707,4.7707,4.7707,4.7707,4.7707,4.7707,4.7707,4.7707,4.7707,4.7652,4.7006,4.6644,4.6372,4.5073,4.3974,4.3109,4.2969,4.2892,4.2892,4.2892,4.2484,4.1927,4.1927,4.1497,4.0976,4.0976,4.0976,4.0935,4.0786,4.0732,4.0696,4.0533,4.0053,3.9604,3.9604,3.9015,3.8436,3.8436,3.8309,3.8165,3.8075,3.7756,3.7482,3.7404,3.7105,3.6915,3.696,3.6701,3.6353,3.5988,3.563,3.5497,3.5704,3.5,3.4201,3.3452,3.0958,2.8265,2.5548,2.6344,2.6255,2.4775,2.4846,2.4935,2.4935,2.4335,2.4331,2.4935,2.5524,2.5803,2.5824,2.642,2.5663,2.0615,2.1346,2.2744,2.3492,2.4966,2.6929,0.0,3.0613,3.1427,3.3192,3.4426,3.5598,3.6971,3.9276,4.137,4.2659,4.4095,4.5141,4.5327,4.5316,4.5562,4.6282,4.5653,4.549,4.6282,4.6377,4.6069,4.5345,4.6626,4.7114,4.6408,4.7133,4.7567,4.7567,4.7567,4.7616,4.7707,4.7616,4.7616,4.7707,4.7707,4.7707,4.7707,4.7707,4.7707,4.7707,4.7707,4.7707,4.7689,4.7598,4.7145,4.6481,4.63,4.5291,4.3883,4.3163,4.2892,4.2892,4.2892,4.2837,4.276,4.276,4.271,4.2638,4.2638,4.2638,4.2488,4.1764,4.1565,4.1397,4.0696,4.0447,4.0374,4.0374,3.9804,3.9269,3.9269,3.8707,3.8089,3.7658,3.7537,3.7391,3.7031,3.6929,3.6894,3.6916,3.6874,3.683,3.6777,3.642,3.6182,3.621,3.5184,3.4201,3.3452,3.1906,3.0253,2.8604,2.7985,2.7017,2.5533,2.6107,2.6446,2.6446,2.6378,2.6378,2.6446,2.6543,2.6581,2.6581,2.6661,2.6222,2.3277,2.4228,2.5322,2.6126,2.8049,3.0203,3.1889,3.329,3.4798,3.6833,3.8226,3.9537,4.1093,4.2479,4.3916,4.5497,4.6016,4.6458,4.712,4.6514,4.6124,4.6463,4.5798,4.5798,4.7073,4.7616,4.7761,4.7422,4.8015,4.8454,4.8592,4.8025,4.7906,4.8377,4.7942,4.7707,4.7707,4.7707,4.7707,4.7707,4.7707,4.7707,4.7707,4.7707,4.7707,4.7707,4.7707,4.7707,4.7707,4.7707,4.7508,4.7151,4.668,4.6082,4.5399,4.4584,4.3702,4.2964,4.3435,4.329,4.2892,4.2892,4.2892,4.2892,4.2892,4.2892,4.2837,4.2488,4.2058,4.1614,4.1288,4.0537,3.9962,4.0392,3.9702,3.9053,3.9538,3.9157,3.8669,3.8475,3.8244,3.7888,3.7292,3.6998,3.6683,3.6213,3.6575,3.6811,3.6577,3.6399,3.62,3.592,3.5445,3.4669,3.3497,3.2826,3.1664,2.9753,2.9736,2.9127,2.7647,2.7867,2.8041,2.8041,2.7583,2.7571,2.8041,2.8472,2.8687,2.8683,2.9114,2.8924,2.5145,2.6555,2.7852,2.9032,3.1488,3.3804,3.45,3.6184,3.817,4.0295,4.1349,4.2415,4.4116,4.4874,4.5677,4.7004,4.7233,4.7422,4.795,4.7133,4.6336,4.5883,4.5526,4.5761,4.691,4.7761,4.8431,4.8878,4.8896,4.9251,5.0064,4.878,4.8304,4.8878,4.8123,4.7707,4.7707,4.7707,4.7707,4.7707,4.7707,4.7707,4.7707,4.7707,4.7707,4.7707,4.7707,4.7707,4.7671,4.7453,4.7368,4.729,4.6481,4.6028,4.5793,4.5436,4.4426,4.3272,4.3634,4.3381,4.2892,4.2892,4.2892,4.2892,4.2892,4.2892,4.2892,4.2892,4.2484,4.2022,4.2022,4.1198,4.0469,4.0866,4.0096,3.9394,3.9847,3.9501,3.9073,3.8956,3.8692,3.8304,3.7647,3.7297,3.6846,3.6056,3.6471,3.6686,3.617,3.611,3.5975,3.5644,3.56,3.5166,3.4106,3.3824,3.2848,3.0835,3.1217,3.0748,2.9077,2.9196,2.9305,2.9305,2.8729,2.8813,2.9614,3.0142,3.0403,3.0424,3.0958,3.0908,2.5339,2.7472,2.9821,3.2311,3.5456,3.8117,3.8911,4.0512,4.2305,4.399,4.3959,4.396,4.5061,4.612,4.6605,4.5878,4.7067,4.7713,4.672,4.6532,4.5924,4.4354,4.4838,4.5327,4.5363,4.6106,4.7223,4.877,4.8896,4.9251,5.0064,4.9305,4.8878,4.8896,4.8123,4.7707,4.7707,4.7707,4.7707,4.7707,4.7707,4.7707,4.7707,4.7707,4.7707,4.7707,4.7707,4.7707,4.764,4.6861,4.6535,4.6463,4.5653,4.4856,4.4263,4.5024,4.4789,4.396,4.32,4.291,4.2892,4.2892,4.2892,4.2892,4.2892,4.2892,4.2892,4.2892,4.2878,4.2855,4.2855,4.2824,4.2679,4.2243,4.152,4.0808,4.0387,3.9662,3.8983,3.8593,3.8515,3.8368,3.7967,3.7872,3.7618,3.6874,3.6785,3.6519,3.5712,3.5622,3.5622,3.56,3.56,3.5583,3.5538,3.4878,3.3828,3.2327,3.2254,3.1273,2.9094,2.9685,3.0065,3.0065,3.0048,3.0391,3.1128,3.1166,3.1161,3.1161,3.12,3.12,2.7866,3.0974,3.4194,3.6034,3.9042,4.1754,4.2575,4.4075,4.5161,4.4617,4.4207,4.3638,4.253,4.3814,4.4953,4.4689,4.6296,4.7572,4.7557,4.6945,4.6106,4.5019,4.4662,4.4711,4.5254,4.6499,4.7965,4.9588,4.9697,5.0276,5.1622,4.9921,4.9137,4.9679,4.84,4.7707,4.7707,4.7707,4.7707,4.7707,4.7707,4.7707,4.7707,4.7707,4.7707,4.7707,4.7707,4.7707,4.7671,4.7417,4.7296,4.7277,4.7006,4.6408,4.5653,4.5399,4.4784,4.4069,4.3797,4.3344,4.2892,4.2892,4.2892,4.2892,4.2892,4.2892,4.2892,4.2892,4.2525,4.2094,4.2094,4.1487,4.0937,4.1313,4.0726,4.0163,4.0556,4.0175,3.973,3.9591,3.9561,3.9353,3.8731,3.8221,3.7477,3.6191,3.6005,3.5904,3.5633,3.56,3.56,3.56,3.56,3.56,3.56,3.4923,3.4297,3.3789,3.3293,3.2701,3.1957,3.1224,3.106,3.1556,3.0598,3.0458,3.1195,3.1195,3.1195,3.1195,3.1195,3.0937,3.1523,3.4752,3.7833,3.993,4.2328,4.4364,4.5202,4.5991,4.6216,4.5056,4.3964,4.2786,4.1387,4.2024,4.2757,4.2686,4.4075,4.5517,4.6527,4.5824,4.5241,4.5291,4.5091,4.5042,4.5273,4.6752,4.8255,4.9564,4.9407,4.9932,5.1562,4.9903,4.9137,4.966,4.8382,4.7707,4.7707,4.7707,4.7707,4.7707,4.7707,4.7707,4.7707,4.7707,4.7707,4.7707,4.7707,4.7707,4.7671,4.7381,4.7277,4.72,4.6644,4.6106,4.5544,4.4729,4.4118,4.367,4.367,4.3326,4.2892,4.2892,4.2892,4.2892,4.2892,4.2892,4.2892,4.2892,4.252,4.2098,4.1929,4.1279,4.0706,4.0889,4.047,4.0116,4.0466,4.031,4.0096,4.0096,4.0096,3.9954,3.9474,3.8565,3.7555,3.6569,3.596,3.56,3.56,3.56,3.56,3.56,3.56,3.56,3.56,3.5177,3.4776,3.4516,3.4066,3.3558,3.3039,3.2097,3.1691,3.1899,3.1229,3.0987,3.1195,3.1454,3.1454,3.1195,3.1195,3.0958,3.5912,3.8551,4.0728,4.3755,4.5149,4.5979,4.682,4.6298,4.5553,4.523,4.3141,4.1331,4.1225,4.0702,4.0227,4.0019,4.0875,4.2198,4.3988,4.3658,4.3775,4.5259,4.6137,4.6318,4.5562,4.6789,4.8015,4.8884,0.0,4.8454,5.0088,4.936,4.8914,4.8951,4.8141,4.7707,4.7707,4.7707,4.7707,4.7707,4.7707,4.7707,4.7707,4.7707,4.7707,4.7707,4.7652,4.764,4.758,4.677,4.645,4.6282,4.4752,4.4137,4.4015,4.3236,4.2933,4.2892,4.2892,4.2892,4.2892,4.2892,4.2892,4.2892,4.2892,4.2892,4.2892,4.2892,4.2877,4.2768,4.2323,4.2162,4.1894,4.1007,4.0778,4.0646,4.0202,4.0096,4.0096,4.0096,4.0096,4.0096,4.0045,3.8876,3.7927,3.7866,3.6608,3.5656,3.5605,3.56,3.56,3.56,3.56,3.56,3.56,3.56,3.5306,3.4596,3.4562,3.3924,3.2525,3.2395,3.2046,3.1386,3.195,3.1933,3.1314,3.1984,3.1933,3.1268,3.1268,3.1212,3.7652,4.102,4.4223,4.4436,4.5596,4.6726,4.6952,4.5859,4.4268,4.2367,3.9983,3.7485,3.4993,3.6895,3.876,3.8505,4.2248,4.5405,4.6096,4.7041,4.7517,4.7122,4.7797,4.8214,4.7996,4.7277,4.7645,4.9642,4.9052,4.9305,5.0916,4.9668,4.9173,4.9769,4.8436,4.7707,4.7707,4.7707,4.7707,4.7707,4.7707,4.7707,4.7707,4.7707,4.7707,4.7671,4.7073,4.6807,4.6734,4.5938,4.5617,4.5562,4.5146,4.4626,4.4082,4.387,4.3417,4.2892,4.2892,4.2892,4.2892,4.2892,4.2892,4.2892,4.2892,4.2892,4.2892,4.2892,4.2648,4.2353,4.2223,4.1679,4.1094,4.0861,4.0531,4.0252,4.0121,4.0096,4.0096,4.0096,4.0096,3.9926,3.9379,3.896,3.8351,3.7257,3.675,3.6282,3.5673,3.56,3.56,3.56,3.56,3.56,3.56,3.56,3.5521,3.5335,3.5323,3.5154,3.4765,3.3705,3.3293,3.3648,3.2215,3.1923,3.2843,3.2474,3.2204,3.2017,3.2017,3.1432,4.0735,4.3857,4.6599,4.5803,4.6576,4.7143,4.5697,4.4354,4.2563,3.9604,3.7109,3.4877,3.285,3.4501,3.6307,3.677,4.05,4.3791,4.5127,4.6719,4.7844,4.8196,4.9251,4.9812,4.9456,4.8931,4.9027,5.001,4.9034,4.907,5.0698,4.9577,4.9269,5.0064,4.8532,4.7707,4.7707,4.7707,4.7707,4.7707,4.7707,4.7707,4.7707,4.7707,4.7508,4.7151,0.0,4.63,4.5938,4.549,4.5291,4.5254,4.491,4.4499,4.4069,4.3707,4.329,4.2892,4.2892,4.2892,4.2892,4.2892,4.2892,4.2892,4.2892,4.2892,4.2858,4.2653,4.2408,4.2105,4.169,4.1423,4.1225,4.1022,4.0766,4.0669,4.1003,4.0811,4.0584,4.0584,4.0584,4.0354,3.9609,3.8943,3.825,3.7404,3.671,3.6107,3.5656,3.56,3.56,3.56,3.56,3.56,3.56,3.56,3.5453,3.5137,3.5419,3.5453,3.5126,3.463,3.4416,3.4494,3.3592,3.3215,3.3401,3.3315,3.2936,3.2315,3.2621,3.199,4.4238,4.6594,4.8176,4.7266,4.7477,4.7063,4.3864,4.2202,4.038,3.6967,3.4574,3.2983,3.2639,3.3037,3.3939,3.5461,3.795,4.0626,4.3305,4.5146,4.6936,4.8836,5.0385,5.1061,5.0481,5.0861,5.0934,5.0445,4.8931,4.8677,5.0173,4.9396,4.9173,4.9756,4.8527,4.7815,4.7707,4.7707,4.7707,4.7707,4.7707,4.7707,4.7707,4.7707,4.7254,4.6499,4.6395,4.5888,4.5128,4.5037,4.4983,4.491,4.4209,4.3942,4.3865,4.3163,4.2892,4.2892,4.2892,4.2892,4.2892,4.2892,4.2892,4.291,4.3023,4.2944,4.2734,4.2448,4.2182,4.1819,4.1007,4.1231,4.1582,4.128,4.1197,4.14,4.2141,4.1796,4.1322,4.1214,4.1197,4.0967,4.0225,3.896,3.8018,3.791,3.6676,3.5723,3.5616,3.56,3.56,3.56,3.56,3.56,3.56,3.56,3.5335,3.4697,3.5154,3.5205,3.468,3.5177,3.5194,3.4663,3.5177,3.4878,3.3683,3.424,3.384,3.2615,3.3152,3.2662,4.642,4.8057,4.9071,4.7548,4.6766,4.5646,4.2867,4.0006,3.7187,3.4512,3.2614,3.1181,3.0407,3.2086,3.4273,3.6473,3.9554,4.2616,4.5232,4.7569,4.9227,4.9822,5.0735,5.1508,5.2033,5.1006,5.0807,5.1997,5.0584,5.0101,5.1042,4.9704,4.8666,4.8128,4.8485,4.8377,4.7707,4.7707,4.7707,4.7707,4.7707,4.7707,4.7707,4.7707,4.7254,4.6463,4.5798,0.0,4.4263,4.3598,4.3326,4.3308,4.3163,4.3109,4.3091,4.2946,4.2892,4.2892,4.2892,4.2892,4.2892,4.2892,4.2892,4.3018,4.3689,4.3156,4.2438,4.3027,4.214,4.1007,4.0843,4.061,4.0542,4.1071,4.1197,4.14,4.2141,4.2208,4.1938,4.1322,4.1197,4.0967,4.0225,3.9389,3.8599,3.7984,3.715,3.6355,3.569,3.56,3.56,3.56,3.56,3.56,3.56,3.56,3.5554,3.5425,3.4962,3.4912,3.5385,3.4945,3.4923,3.5408,3.494,3.4855,3.5216,3.472,3.4364,3.411,3.3621,3.2938,4.7463,4.8352,4.8542,4.6976,4.5241,4.3011,3.9608,3.6927,3.4486,3.2035,3.0901,3.0245,2.9823,3.1523,3.3734,3.6081,3.8238,4.0964,4.4923,4.6444,4.7732,4.9285,5.0566,5.1459,5.1839,5.1562,5.1676,5.2444,5.1779,5.1332,5.1296,5.0168,4.9161,4.8359,4.8697,4.8516,4.7707,4.7707,4.7707,4.7707,4.7707,4.7707,4.7694,4.7277,4.6644,4.5834,4.5019,4.4463,4.4033,4.3236,4.3399,4.4064,4.3236,4.3417,4.4046,4.3218,4.3163,4.3466,4.3055,4.2892,4.2892,4.2892,4.2892,4.2964,4.3363,4.3042,4.262,4.2905,4.2389,4.1713,4.1612,4.1703,4.1914,4.2263,4.2652,4.2953,4.2895,4.3206,4.3139,4.2005,4.1762,4.1413,4.0292,3.9491,3.8876,3.8531,3.7844,3.7094,3.6315,3.6214,3.6056,3.5639,3.56,3.56,3.56,3.56,3.5436,3.5058,3.5058,3.4889,3.4478,3.485,3.4884,3.4455,3.4489,3.4489,3.4444,3.4094,3.3733,3.3354,3.3389,3.2797,4.7784,4.837,4.8139,4.6435,4.4037,4.1005,3.6844,3.4347,3.2324,3.0224,2.9668,2.9624,2.9794,3.1111,3.2937,3.5265,3.634,3.8715,4.3886,4.4683,4.5773,4.8575,5.0162,5.1115,5.1278,5.187,5.2305,5.2486,5.2178,5.1707,5.1079,5.0608,4.9823,4.8679,4.8806,4.8516,4.7707,4.7707,4.7707,4.7707,4.7707,4.7707,4.7671,4.706,4.6227,4.5254,4.4626,4.4155,4.3811,4.3344,4.3901,4.4928,4.3833,4.4082,4.4892,4.3616,4.3562,4.4015,4.3381,4.3163,4.3163,4.3163,4.3036,4.2933,4.3109,4.2899,4.2665,4.2947,4.2635,4.2277,4.2562,4.2863,4.3125,4.3349,4.4012,4.4438,4.3785,4.4154,4.4134,4.2604,4.2293,4.1826,4.0343,3.9609,3.918,3.9011,3.8514,3.7872,3.7122,3.6891,3.6564,3.5915,3.5707,3.56,3.56,3.56,3.5357,3.4776,3.5126,3.4917,3.3903,3.4675,3.4664,3.3655,3.4054,3.3981,3.3401,3.3401,3.3102,3.2559,3.2966,3.2549,4.7251,4.8595,4.9143,4.6637,4.4169,4.1223,3.6887,3.3523,3.1023,3.0005,2.9261,2.9011,2.9769,3.072,3.2159,3.4444,3.5434,3.7751,4.2983,4.4195,4.5618,4.8554,4.9679,5.0499,5.1224,5.1368,5.1707,5.2449,5.1151,5.0282,5.0209,5.0825,5.0149,4.787,4.8521,4.8516,4.7707,4.7707,4.7707,4.7707,4.7707,4.7707,4.7707,4.7616,4.6752,4.5291,4.5218,4.4354,0.0,4.3725,4.4082,4.4263,4.4843,4.4716,4.4191,4.4046,4.4033,4.4082,4.4015,4.3996,4.3996,4.3996,4.3507,4.3036,4.3779,4.2887,4.2017,4.3896,4.2756,4.1399,4.3267,4.2901,4.2274,4.3183,4.4012,4.4574,4.4506,4.4557,4.4134,4.2604,4.2293,4.1826,4.0343,4.0039,3.9768,3.9102,3.8943,3.8633,3.7883,3.7207,3.6773,3.6705,3.6039,3.56,3.56,3.56,3.5571,3.5504,3.4923,3.4844,3.5385,3.4236,3.3841,3.4393,3.3812,3.3469,3.3401,3.3401,3.3367,3.3283,3.2672,3.2327,4.679,4.7823,4.7799,4.5824,4.1916,3.798,3.5782,3.2372,2.9724,2.9948,2.9754,2.9642,2.9965,3.0754,3.1966,3.3807,3.3806,3.5266,4.0155,4.0005,4.1023,4.5479,4.7156,4.8628,5.0408,5.1459,5.216,5.2486,5.1453,5.0608,5.0124,4.9497,4.8907,4.8444,4.8268,4.8015,4.7707,4.7707,4.7707,4.7707,4.7707,4.7707,4.7671,4.6698,4.5906,4.5254,4.4281,4.3779,0.0,4.3978,4.468,4.549,4.4825,4.5273,4.6082,4.4644,4.4711,4.5472,4.4988,4.4825,4.4729,4.4263,4.3883,4.3598,4.3435,4.3225,4.3273,4.4253,4.416,4.3978,4.4976,4.4586,4.3844,4.3491,4.3643,4.3876,4.3876,4.3528,4.3027,4.2411,4.1938,4.1312,4.0276,4.0096,4.0005,3.9717,3.9666,3.9406,3.8656,3.8301,3.7945,3.7499,3.6355,3.56,3.56,3.56,3.56,3.56,3.5323,3.5087,3.494,3.4365,3.3784,3.319,3.2892,3.2515,3.2087,3.2087,3.2087,3.207,3.177,3.164,4.4526,4.6042,4.6546,4.4918,4.0443,3.6109,3.4837,3.1168,2.8341,2.9464,2.9505,2.9484,3.0002,3.0973,3.2042,3.3099,3.297,3.4107,3.8019,3.7463,3.8376,4.2944,4.4854,4.6755,4.9178,5.1072,5.2142,5.2142,5.1176,5.0349,4.9769,4.8436,4.796,4.854,4.7761,4.7453,4.7707,4.7707,4.7707,4.7707,4.7707,4.7707,4.7652,4.6535,4.5743,4.5254,4.4354,4.4028,0.0,4.4607,4.5472,4.6408,4.5508,4.6064,4.7145,4.5436,4.5526,4.6372,4.558,4.5291,4.52,4.4644,4.4281,4.3992,4.3435,4.3547,4.4054,4.4865,4.5672,4.6248,4.6041,4.575,4.5263,4.4214,4.3858,4.3683,4.345,4.299,4.2489,4.2056,4.1559,4.0967,4.0225,4.0096,4.0096,4.0096,4.0096,3.9903,3.9389,3.8943,3.8481,3.7967,3.6518,3.5707,3.5932,3.574,3.56,3.56,3.56,3.5374,3.4844,3.4613,3.3902,3.266,3.2412,3.1933,3.1195,3.1195,3.1195,3.1195,3.1195,3.1195,3.9855,4.3129,4.5887,4.4066,4.0526,3.6829,3.4299,2.9924,2.6856,2.8395,2.8081,2.8044,2.9771,3.1349,3.2345,3.222,3.3382,3.5042,3.7205,3.7941,3.9204,4.1716,4.3267,4.51,4.7575,4.9932,5.1309,5.1309,4.9831,0.0,4.8914,4.8141,4.7707,4.7707,4.6933,4.6897,4.7689,4.7707,4.7707,4.7707,4.7707,4.7707,4.7707,4.7671,4.6807,4.5345,4.6124,4.5562,0.0,4.5811,4.6481,4.6571,4.7363,4.7182,4.6499,4.6481,4.6486,4.6372,4.558,4.5291,4.5291,4.5291,4.4752,4.41,4.4082,4.3772,4.3843,4.591,4.7055,4.7361,4.6045,4.5894,4.595,4.5403,4.4937,4.4364,4.3575,4.3382,4.2966,4.1485,4.1221,4.0967,4.0225,4.0096,4.0096,4.0096,4.0096,4.0096,4.0096,3.8802,3.7916,3.7899,3.6518,3.5915,3.6722,3.6056,3.56,3.56,3.56,3.56,3.5588,3.4895,3.4156,3.3401,3.2672,3.1933,3.1195,3.1195,3.1195,3.1195,3.1195,3.1195,3.6238,3.7999,3.9182,3.8004,3.5028,3.2197,3.1466,2.8753,2.6818,2.8313,2.854,2.8772,2.9771,3.0856,3.1753,3.2242,3.3363,3.4571,3.5757,3.7304,3.9362,4.2273,4.64,4.955,5.0877,5.1688,5.2123,5.2123,5.1145,5.0307,4.9751,4.8436,4.7707,4.7707,4.7453,4.7435,4.7707,4.7707,4.7422,4.6897,4.7435,4.7417,4.6879,4.6879,4.6607,4.6106,4.5816,4.5399,4.5001,4.6064,4.6499,4.6535,4.6789,4.706,4.7182,4.6082,4.6372,4.7133,4.5775,4.6015,4.6752,4.5653,4.549,4.5743,4.5743,4.5647,4.5774,4.6982,4.7508,4.7423,4.6271,4.6032,4.5747,4.4344,4.3888,4.371,4.3457,4.3,4.2506,4.2039,4.1542,4.0967,4.0225,4.0096,4.0215,4.0531,4.0586,4.0586,4.0586,4.0168,3.9677,3.9116,3.7925,3.6845,3.6056,3.5746,3.56,3.56,3.56,3.56,3.56,3.4895,3.4156,3.3413,3.2672,3.1933,3.1195,3.1195,3.1195,3.1195,3.1195,3.1195,3.2586,3.4293,3.5297,3.4765,3.2324,3.0001,2.9766,2.776,2.6355,2.7776,2.8273,2.8746,2.9695,3.0557,3.1377,3.2138,3.3016,3.3958,3.4945,3.6968,3.9593,4.296,4.7537,5.0623,5.1104,5.1683,5.2051,5.2051,5.1296,5.0493,4.9691,4.8708,4.8015,4.7707,4.7417,4.7381,4.7707,4.7404,4.7151,4.697,4.7151,4.6988,4.6499,4.6499,4.6336,4.6046,4.5834,4.5743,0.0,4.6626,4.6952,4.6952,4.6952,4.7073,4.7164,4.6463,4.6463,4.6698,4.5997,4.6209,4.668,4.5979,4.6082,4.6553,4.6861,4.6952,4.706,4.7562,4.7707,4.7543,4.688,4.6406,4.5826,4.4695,4.4122,4.3683,4.3108,4.2625,4.2225,4.1938,4.1433,4.0983,4.0808,4.0708,4.0736,4.1024,4.1053,4.1053,4.1053,4.0816,4.0463,3.9954,3.875,3.7596,3.6628,3.5958,3.56,3.56,3.56,3.56,3.56,3.5154,3.4573,3.3829,3.309,3.2351,3.1606,3.1336,3.1331,3.1611,3.1336,3.1195,0.0,3.1566,3.3362,3.3362,3.1585,2.9633,2.882,2.6835,0.0,2.6916,2.7447,2.8147,2.9651,3.0502,3.124,3.2025,3.2597,3.3416,3.4785,3.7249,4.0231,4.3843,4.7161,4.9094,4.8925,5.0361,5.1314,5.1387,5.0644,4.9823,4.9028,4.8932,4.8534,4.7725,4.6988,4.6915,4.7616,4.6874,4.6825,4.7435,4.6734,4.6408,4.6426,4.6463,4.6124,0.0,4.6263,4.6589,4.6644,4.7381,4.7707,4.7689,4.764,4.7169,4.6571,4.7277,4.6626,4.549,4.6178,4.5997,4.5599,4.6336,4.6589,4.6716,4.7417,4.7616,4.7634,4.7671,4.7707,4.7683,4.7652,4.6855,4.607,4.6055,4.5316,4.4231,4.277,4.2518,4.2321,4.1489,4.1164,4.12,4.1781,4.1655,4.1509,4.1542,4.1547,4.1547,4.1547,4.0948,4.0519,4.0443,3.9133,3.8227,3.8151,3.6633,3.5683,3.5683,3.5683,3.5672,3.5656,3.5656,3.5289,3.4516,3.3778,3.3068,3.2378,3.1691,3.1674,3.2276,3.1657,3.1336,2.6164,0.0,2.7271,2.7271,2.6813,2.6316,0.0,2.5492,2.5372,2.6835,2.7304,2.8259,3.0797,3.1034,3.1449,3.3305,3.406,3.4726,3.5615,4.032,4.4248,4.5767,4.8789,5.0275,4.9028,5.0361,5.1562,5.2178,5.1477,5.0662,4.9865,4.9233,4.8534,4.7725,4.7513,4.72,4.6789,4.6589,4.5979,4.4952,4.5381,4.558,4.5599,4.6214,4.6734,4.7151,4.7345,4.7422,4.7435,4.7616,4.7707,4.764,4.7019,4.6662,4.6445,4.6015,4.601,4.6155,4.5725,4.6263,4.7169,4.7363,4.7422,4.7345,4.6915,4.6789,4.6915,4.7526,4.7707,4.7609,4.7185,4.6433,4.574,4.5534,4.515,4.4689,4.416,4.4669,4.4689,4.2916,4.2861,4.2777,4.1775,4.1543,4.1613,4.1973,4.2043,4.2043,4.2043,4.1888,4.1532,4.0918,4.025,3.9506,3.8638,3.7353,3.6595,3.6595,3.6595,3.6464,3.6152,3.6136,3.5621,3.4516,3.3778,3.3311,3.313,3.2966,3.2684,3.231,3.2701,3.2582,2.5191,2.5191,2.5285,2.5665,2.5475,2.5304,2.5665,2.5312,2.5211,2.632,2.6933,2.7934,3.0158,3.0594,3.1368,3.3685,3.4196,3.5086,3.7291,4.1084,4.4362,4.6263,4.8369,4.9745,4.9981,5.0783,5.1471,5.1924,5.155,5.0783,4.9601,4.9137,4.8534,4.7725,4.7707,4.7308,4.6499,4.6137,4.5508,4.4644,4.4716,4.4928,4.5309,4.5743,4.6395,4.7151,4.7151,4.7363,4.7671,4.7296,4.7151,4.7073,4.6263,4.5943,4.5938,4.5888,4.5883,4.5992,4.63,4.6964,4.7707,4.7707,4.7453,4.7145,4.7073,4.6789,4.6589,4.7024,4.7151,4.7166,4.7257,4.6494,4.5757,4.5977,4.5447,4.4875,4.4798,4.5212,4.5265,4.4145,4.3746,4.3453,4.2969,4.2479,4.2234,4.2478,4.2518,4.2518,4.2518,4.2518,4.2351,4.192,4.102,4.0208,3.9583,3.8284,3.7325,3.6924,3.69,3.6796,3.6582,3.6572,3.6117,3.5115,3.4696,3.4411,3.4233,3.3864,3.3552,3.332,3.3372,3.3186,2.5191,2.5269,2.5485,2.6078,2.5876,2.5689,2.6239,2.5751,2.539,2.608,2.6769,2.7748,2.9394,3.0286,3.1531,3.3914,3.4427,3.5846,3.9667,4.1488,4.3393,4.601,4.735,4.8731,5.0403,5.0898,5.1115,5.1115,5.1001,5.0343,4.8969,4.877,4.8395,4.7725,4.7707,4.7259,4.6336,4.5635,4.5241,4.511,4.4426,4.4589,4.549,4.549,4.5852,4.6499,0.0,0.0,4.7471,4.6915,4.668,4.6607,4.5798,4.549,4.5562,4.6245,4.6069,4.5707,4.7182,4.7616,4.7549,4.7652,4.7169,4.6626,4.7308,4.7037,4.6499,4.6499,4.6589,4.6843,4.7526,4.6769,4.5999,4.6723,4.601,4.5159,4.5157,4.5293,4.5358,4.5153,4.4345,4.3856,4.4348,4.3573,4.2892,4.2892,4.2892,4.2892,4.2892,4.2892,4.2892,4.2892,4.1687,4.0773,4.0515,3.9297,3.8132,3.715,3.7094,3.7065,3.6992,3.6934,3.6606,3.5988,3.5971,3.5807,3.546,3.478,3.4528,3.4692,3.4176,3.387,2.5191,2.5573,2.5861,2.5482,2.6236,2.6893,2.6284,2.6328,2.6723,2.751,2.7813,2.8785,3.1491,3.2238,3.3151,3.5348,3.7326,3.9717,4.2933,4.4752,4.5684,4.5508,4.7999,4.9063,4.7391,4.9081,5.0282,5.0282,4.9649,4.9155,4.8914,4.825,4.7833,4.7707,4.7707,4.6988,4.549,4.5363,4.4965,4.4281,4.416,4.4879,4.6323,4.6323,4.6372,4.6535,0.0,4.7205,4.6734,4.729,4.7513,4.7435,4.6626,4.6323,4.6336,4.6445,4.6426,4.6445,4.7381,4.7259,4.6807,4.7471,4.7169,4.6517,4.6644,4.6607,4.6499,4.6499,4.6988,4.7544,4.7671,4.7044,4.6458,4.682,4.6576,4.6203,4.5981,4.6632,4.694,4.5811,4.5275,4.4834,4.4251,4.3459,4.2892,4.2892,4.2892,4.2892,4.2892,4.2892,4.2892,4.2892,4.2674,4.1977,4.0628,4.0279,3.9534,3.8093,3.7998,3.7819,3.7427,3.7084,3.6847,3.6724,3.6724,3.6695,3.6636,3.6513,3.6151,3.5608,3.6122,3.6035,2.5191,2.6053,2.6749,2.5856,2.6401,2.7084,2.6684,2.6648,2.6921,2.7735,2.8196,2.9145,3.1336,3.2889,3.4833,3.7933,3.9766,4.1415,4.3196,4.4082,4.4729,4.5236,4.6993,4.8061,4.7815,4.9582,5.039,4.9528,4.951,4.9166,4.8304,4.7906,4.7508,4.7073,4.706,4.6282,4.468,4.4644,4.4463,4.41,4.41,4.4928,4.6463,4.5599,4.5689,4.6499,0.0,4.645,4.6463,4.5956,4.601,4.6282,4.5042,4.4825,4.5309,4.6173,4.6499,4.6553,4.691,4.6517,4.5901,4.6282,4.5852,4.5363,4.6245,4.6196,4.6028,4.6897,4.7096,4.7151,4.7585,4.7096,4.6646,4.7192,4.6908,4.6584,4.6894,4.7352,4.7522,4.6894,4.6336,4.5689,4.4892,4.4082,4.3399,4.2964,4.2892,4.2892,4.2892,4.2892,4.2892,4.2892,4.2502,4.1791,4.0605,4.0125,3.9428,3.8277,3.8205,3.811,3.788,3.7708,3.7591,3.7591,3.7591,3.7486,3.7214,3.7214,3.6951,3.64,3.6747,3.6729,2.4902,2.6072,2.7065,2.595,2.6635,2.7617,2.7724,2.7713,2.7957,2.8951,2.943,3.0066,3.1416,3.363,3.6394,3.9926,4.1583,4.279,4.3875,4.4028,4.4626,4.6237,4.6975,4.7826,4.9052,5.0294,5.0434,4.901,4.9293,4.9003,4.7766,4.7526,4.7145,4.6517,4.6323,4.5544,4.4118,4.4281,4.4281,4.41,4.41,4.4928,4.6463,4.5218,4.5327,4.6463,4.5852,4.5811,4.6124,4.4892,4.4729,4.5182,4.3942,4.3833,4.4535,4.5761,4.6336,4.6463,4.6282,4.5816,4.5291,4.5291,4.4752,4.4372,4.5798,4.5924,4.5834,4.7073,4.7114,4.691,4.7549,4.7236,4.6933,4.7544,4.7223,4.6952,4.7567,4.7707,4.7707,4.7707,4.706,4.6245,4.5436,4.4784,4.4046,4.3055,4.3055,4.3181,4.3181,4.3018,4.2964,4.3163,4.2466,4.166,4.084,3.9926,3.9142,3.8512,3.8295,3.8205,3.8205,3.8205,3.8205,3.8205,3.8205,3.8028,3.7658,3.7658,3.7509,3.7189,3.7189,3.7189,2.3992,2.5085,2.5974,2.4948,2.7032,2.9439,2.9875,3.043,3.1318,3.2865,3.2625,3.2379,3.3175,3.5251,3.7647,4.0103,4.2434,4.4739,4.7024,4.7345,4.7953,4.9557,4.9816,4.9883,4.9992,5.0124,4.9823,4.8951,4.8268,4.7815,4.7707,4.6983,4.6553,4.6499,4.578,4.497,4.4105,4.4838,4.4838,4.41,4.41,4.4928,4.6499,4.6372,4.6395,4.6499,4.645,4.6015,4.5381,4.5254,4.5254,4.5291,4.5164,4.5164,4.5236,4.5345,4.5852,4.639,4.5653,4.5345,4.5291,4.5291,4.4752,4.4263,4.5128,4.5865,4.645,4.6553,4.7078,4.7634,4.7671,4.7652,4.7634,4.7694,4.7652,4.7634,4.7694,4.7707,4.7707,4.7707,4.706,4.6245,4.5436,4.5254,4.4698,4.3127,4.3544,4.4015,4.4015,4.3363,4.3181,4.3919,4.3285,4.2488,4.1687,4.0252,3.9378,3.9319,3.8617,3.8205,3.8205,3.8205,3.8205,3.8205,3.8205,3.8174,3.8149,3.8149,3.8132,3.8106,3.8106,3.8106,2.3895,2.5368,2.6769,2.6176,2.7682,2.9318,2.9276,3.0217,3.1538,3.3143,3.3626,3.417,3.5439,3.7225,3.9102,4.0949,4.3276,4.5345,4.6752,4.7381,4.811,4.9215,4.9342,4.9546,5.0052,5.0106,4.9769,4.8951,4.8159,4.7471,4.6988,4.6191,4.5526,4.5024,4.4711,4.4173,4.3363,4.3652,4.3652,4.3363,4.3865,4.468,4.5725,4.4716,4.4807,4.5707,4.4698,4.4662,4.5218,4.4227,4.41,4.4499,4.3992,4.4118,4.4553,4.4553,4.4752,4.4965,4.4662,4.4227,4.3811,4.3811,4.3598,4.3507,4.4318,4.477,4.5218,4.6214,4.6716,4.7073,4.7562,4.7707,4.7707,4.7707,4.7707,4.7562,4.706,4.6952,4.6952,4.6952,4.63,4.5653,4.5345,4.4892,4.4173,4.3073,4.3163,4.3344,4.3344,4.3091,4.3018,4.3326,4.2629,4.2022,4.1723,4.0718,4.0089,4.0089,3.8902,3.8205,3.8205,3.8205,3.8205,3.8205,3.8205,3.8205,3.8205,3.8205,3.8205,3.8205,3.8205,3.8205,2.3759,2.5337,2.6817,2.6525,2.7839,2.9317,2.9738,3.0843,3.2451,3.4809,3.5331,3.5697,3.6796,3.8114,3.9536,4.1076,4.3348,4.5291,4.6354,4.6752,4.7435,4.8739,4.8449,4.8563,4.9619,4.9262,4.8737,4.8177,4.7404,4.6698,4.616,4.5363,4.468,4.4118,4.3847,4.358,4.3272,4.3272,4.3272,4.3272,4.358,4.4137,4.4874,4.3774,4.4028,4.5218,4.387,4.3901,4.4825,4.3453,4.3218,4.367,4.3127,4.3236,4.3725,4.3725,4.3883,4.4069,4.3811,4.3526,4.3236,4.2987,4.2892,4.3,4.3544,4.3901,4.439,4.5743,4.63,4.6698,4.7489,4.7707,4.7707,4.7707,4.7707,4.7471,4.6662,4.6499,4.6426,4.6178,4.5689,4.5291,4.5291,4.4838,4.4214,4.3399,4.3272,4.3272,4.3272,4.3055,4.2892,4.2892,4.2411,4.2076,4.2076,4.1347,4.0877,4.0877,3.9654,3.8812,3.8585,3.8581,3.8454,3.8205,3.8205,3.8205,3.8205,3.8205,3.8205,3.8205,3.8205,3.8205,2.3449,2.473,2.5742,2.557,2.738,2.9752,3.1844,3.2932,3.461,3.8575,3.8132,3.7013,3.7013,3.7697,3.8721,4.0247,4.2533,4.4662,4.6245,4.5798,4.6191,4.8594,4.7453,4.7114,4.8733,4.7435,4.6499,4.6499,4.5743,4.5291,4.5291,4.4517,4.4082,4.4082,4.3308,4.3272,4.4064,4.4082,4.4082,4.4064,4.3254,4.3308,4.4082,4.4082,4.4517,4.5236,4.4444,4.4082,4.4033,4.3236,4.2892,4.2892,4.2892,4.2892,4.2892,4.2892,4.3399,4.3974,4.3181,4.3417,4.396,4.3163,4.2892,4.2892,4.2892,4.3453,4.4263,4.5055,4.5865,4.6662,4.7471,4.7689,4.7689,4.7689,4.7689,4.7471,4.6662,4.6499,4.6245,4.5454,4.5291,4.5291,4.5291,4.5291,4.5024,4.4227,4.4082,4.4082,4.41,4.3399,4.2914,4.2914,4.2892,4.2892,4.2892,4.2167,4.1705,4.1705,4.0967,4.0193,3.9446,3.9414,3.9034,3.8237,3.8223,3.8205,3.8205,3.8205,3.8205,3.8205,3.8205,3.8205,2.3566,2.4593,2.5834,2.6868,2.8443,3.0484,3.3285,3.3698,3.4465,3.7855,3.8635,3.8694,3.8694,3.9767,4.0628,4.0515,4.2533,4.4263,4.4729,4.5096,4.578,4.706,4.6282,4.6282,4.7906,4.6607,4.5883,4.6463,4.5236,4.4463,4.4463,4.3167,4.2415,4.2415,4.2185,4.2167,4.2415,4.2415,4.2415,4.2402,4.1605,4.1922,4.3236,4.266,4.3167,4.4408,4.3616,4.358,4.4033,4.3236,4.2892,4.2892,4.2892,4.2892,4.2892,4.2892,4.3055,4.3218,4.2987,4.3055,4.3218,4.2987,4.2892,4.2892,4.2892,4.3073,4.3417,4.4227,4.5042,4.5847,4.6644,4.6861,4.6861,4.6861,4.729,4.7314,4.5943,4.5653,4.5599,4.5345,4.4838,4.4463,4.4463,4.4463,4.4372,4.4141,4.3616,4.3453,4.4028,4.3888,4.3743,4.3743,4.3236,4.2892,4.2892,4.2688,4.2543,4.2543,4.2325,4.1578,4.0234,4.0175,4.0053,3.9813,3.9319,3.9034,3.9034,3.8476,3.8205,3.8205,3.8205,3.8205,2.372,2.4619,2.5825,2.7696,2.9561,3.1687,3.4489,3.5494,3.6386,3.8281,3.8816,3.9106,3.9713,4.0361,4.0827,4.0967,4.2466,4.3616,4.3616,4.4046,4.4644,4.5454,4.4838,4.4843,4.6137,4.5399,4.4892,4.5055,4.4765,4.4168,4.3208,4.2823,4.2216,4.1257,4.1524,4.1705,4.1705,4.1705,4.1705,4.1687,4.0877,4.1008,4.194,4.1786,4.2402,4.3598,4.3109,4.3186,4.3557,4.2755,4.2411,4.2393,4.2072,4.214,4.2375,4.2067,4.2158,4.2411,4.2411,4.2411,4.2484,4.2801,4.2892,4.2892,4.2892,4.2892,4.3073,4.3865,4.4444,4.5073,4.6209,4.6499,4.6499,4.6499,4.6861,4.6861,4.558,4.5544,4.5689,4.5363,4.491,4.468,4.5006,4.4784,4.4698,4.5001,4.4372,4.4028,4.4517,4.43,4.4227,4.4535,4.3865,4.3381,4.3381,4.3381,4.3236,4.291,4.2892,4.2452,4.1483,4.1148,4.07,4.0066,3.9627,3.9233,3.8925,3.844,3.8205,3.8205,3.8205,3.8205,2.3999,2.4841,2.5875,2.8309,3.0876,3.3399,3.5602,3.7753,3.9287,3.9287,3.8816,3.8848,4.0243,3.9944,3.998,4.1451,4.2321,4.2819,4.2892,4.2892,4.3163,4.3901,4.3344,4.3181,4.3924,4.3996,4.3689,4.2969,4.4191,4.4018,4.1813,4.295,4.2665,4.0465,4.1112,4.1488,4.1488,4.1488,4.1488,4.1474,4.0677,4.0338,4.0424,4.1239,4.2026,4.2783,4.271,4.2674,4.2615,4.1895,4.1596,4.1528,4.0786,4.0949,4.1506,4.0768,4.0967,4.1596,4.1596,4.1632,4.1818,4.2543,4.2837,4.2892,4.2892,4.2892,4.3055,4.3774,4.41,4.4553,4.601,4.6445,4.6481,4.6408,4.6445,4.6282,4.5472,4.5865,4.6196,4.5544,4.5417,4.5617,4.6282,4.5852,4.5635,4.6282,4.5883,4.549,4.5417,4.4716,4.4481,4.5218,4.4589,4.4064,4.3992,4.4137,4.387,4.3055,4.3018,4.3018,4.3018,4.2244,4.1153,3.9758,3.9573,3.9138,3.84,3.8345,3.8277,3.8205,3.8277,3.8277,2.4914,2.5594,2.678,2.9768,3.3288,3.6306,3.7446,3.8104,3.8454,3.8454,3.9278,4.0103,4.0447,4.0374,4.0587,4.1542,4.1854,4.2189,4.2819,4.2892,4.2964,4.3145,4.3005,4.2964,4.3145,4.3163,4.3091,4.291,4.2642,4.2252,4.1723,4.0872,4.017,3.9645,3.9804,3.9894,3.9894,3.9894,3.9894,3.9876,3.9084,3.9034,3.9659,4.041,4.1202,4.1931,4.1298,4.1012,4.1008,4.0822,4.0768,4.0732,4.0569,4.0605,4.0732,4.0569,4.0605,4.0768,4.0768,4.1162,4.1723,4.1909,4.2393,4.2892,4.2892,4.2892,4.2946,4.3109,4.4064,4.5128,4.5472,4.6033,4.6336,4.5707,4.6046,4.6282,4.5472,4.5436,4.5689,4.6155,4.6245,4.6106,4.5635,4.5938,4.6082,4.5635,4.6486,4.697,4.6318,4.5544,4.511,4.5273,4.4589,4.3833,4.3218,4.4318,4.4698,4.3888,4.3833,4.3833,4.3833,4.3073,4.2488,4.2149,4.0908,4.0175,3.9998,3.9428,3.8816,3.8223,3.8852,3.8798,2.4496,2.547,2.7338,3.165,3.4886,3.7104,3.7538,3.7629,3.7629,3.7629,3.8576,3.9514,3.989,3.9962,4.0234,4.1003,4.1451,4.1854,4.2262,4.2651,4.2892,4.2892,4.2892,4.2747,4.2357,4.267,4.2742,4.2352,4.266,4.2348,4.1184,4.1465,4.0949,3.945,4.0111,4.0148,3.9414,3.9391,3.9215,3.8816,3.8404,3.8617,3.9432,4.0157,4.0732,4.1094,4.0677,4.0496,4.0478,4.0121,3.9962,3.9948,3.955,3.9636,3.9926,3.955,3.9641,4.0017,4.0374,4.0768,4.1311,4.2474,4.2864,4.2964,4.3363,4.3218,4.2892,4.2892,4.3507,4.4245,4.4626,4.5327,4.572,4.4915,4.5345,4.5707,4.4897,4.5327,4.5997,4.6426,4.6807,4.6933,4.6517,4.6807,4.6933,4.6517,4.6843,4.6964,4.6553,4.5454,4.4879,4.5254,4.4589,4.3919,4.3507,4.4607,4.4965,4.4155,4.41,4.41,4.41,4.3326,4.2724,4.2334,4.1497,4.0877,4.0496,4.0107,3.9713,3.9297,3.9373,3.9178,2.3919,2.5567,2.8248,3.3002,3.5498,3.6792,3.6792,3.69,3.6995,3.6995,3.7643,3.8404,3.907,3.9197,3.9482,4.0352,4.1058,4.1542,4.1687,4.2262,4.2633,4.2493,4.2493,4.2212,4.156,4.2103,4.2212,4.1542,4.2733,4.2611,4.0605,4.2389,4.2285,3.9663,4.0827,4.0877,3.9609,3.9464,3.9124,3.8599,3.8476,3.8762,3.941,3.989,4.0175,4.0302,4.0157,4.0103,4.0066,3.9441,3.9197,3.9124,3.8454,3.8617,3.9106,3.8458,3.8617,3.9287,3.989,4.0284,4.084,4.2991,4.3322,4.3055,4.3865,4.3544,4.2892,4.2892,4.3,4.3254,4.3919,4.4698,4.5091,4.4281,4.4607,4.491,4.4245,4.5254,4.6336,4.6463,4.7151,4.7707,4.7707,4.7707,4.7652,4.7508,4.6933,4.6499,4.6499,4.5218,4.4626,4.5417,4.491,4.4463,4.4318,4.5164,4.5363,4.4571,4.439,4.4318,4.4318,4.3399,4.2597,4.1931,4.1764,4.1365,4.0714,4.0714,4.0641,4.0483,3.9872,3.9518,2.4663,2.7559,3.0726,3.2165,3.4258,3.5957,3.5957,3.6494,3.6995,3.6995,3.7643,3.8223,3.8345,3.8363,3.883,4.0266,4.0587,4.0895,4.1596,4.18,4.1601,4.0899,4.0827,4.0786,4.0677,4.0754,4.0786,4.0677,4.0863,4.0845,4.0515,4.0809,4.0791,4.0374,4.0551,4.0551,4.0356,3.9713,3.9663,4.0193,3.9554,3.9301,3.9378,3.8776,3.8889,3.9518,3.8816,3.8508,3.8508,3.84,3.8363,3.8349,3.8237,3.8277,3.8349,3.8237,3.8277,3.8368,3.8472,3.9387,4.0677,4.1691,4.2425,4.3055,4.3865,4.3544,4.2892,4.2892,4.3399,4.396,4.4064,4.4698,4.5091,4.4281,4.4173,4.4227,4.4118,4.4825,4.5671,4.6354,4.7151,4.7707,4.7707,4.7707,4.7453,4.677,4.6571,4.6499,4.6499,4.5707,4.5454,4.6245,4.6245,4.5906,4.52,4.6517,4.7042,4.6227,4.5526,4.5151,4.5151,4.3707,4.2855,4.2742,4.2058,4.165,4.1542,4.1542,4.1184,4.0496,4.0392,4.0017,2.5348,2.729,2.95,3.1658,3.2995,3.4023,3.4925,3.5399,3.5787,3.6236,3.6969,3.7661,3.8114,3.8205,3.8563,3.9695,4.0229,4.0786,4.1596,4.1705,4.1578,4.1216,4.0768,4.0338,3.9926,3.9872,4.0053,4.0478,4.0496,4.0696,4.1148,4.1592,4.1646,4.1184,4.1162,4.0967,4.0496,4.0179,3.9962,3.9872,3.9554,3.916,3.8726,3.8834,3.8816,3.8707,3.8349,3.8205,3.8205,3.8205,3.8205,3.8205,3.8205,3.8205,3.8205,3.8205,3.8205,3.8313,3.9188,3.9926,4.0786,4.2492,4.2973,4.3055,4.3865,4.3544,4.2892,4.2892,4.3145,4.3435,4.3435,4.4028,4.4421,4.3616,4.3779,4.3974,4.3526,4.4069,4.5006,4.6263,4.7151,4.7707,4.7707,4.7707,4.758,4.7223,4.6789,4.6499,4.6499,4.5798,4.5436,4.5798,4.5834,4.5689,4.5327,4.6354,4.6879,4.6517,4.5738,4.5291,4.5291,4.3756,4.2892,4.2892,4.2543,4.2375,4.2375,4.2375,4.2194,4.1832,4.1388,4.1003,2.5273,2.6328,2.7664,3.0079,3.1133,3.1966,3.3353,3.4005,3.4526,3.5323,3.6294,3.7176,3.7788,3.7901,3.8223,3.9233,3.9514,3.9958,4.0967,4.0935,4.0809,4.0809,4.0284,3.9691,3.9156,3.9287,3.9532,3.989,4.0465,4.0895,4.1094,4.2253,4.2434,4.1438,4.1596,4.1307,4.0515,4.0496,4.0125,3.9391,3.9586,3.9373,3.8794,3.941,3.9247,3.8494,3.8291,3.8205,3.8205,3.8205,3.8205,3.8205,3.8205,3.8205,3.8205,3.8205,3.8205,3.8363,3.9514,4.0175,4.0822,4.2841,4.3213,4.3055,4.3865,4.3544,4.2892,4.2892,4.2892,4.2892,4.2892,4.3344,4.3634,4.3036,4.3363,4.3689,4.329,4.3689,4.4517,4.5924,4.6843,4.7404,4.7404,4.7562,4.7634,4.7435,4.6879,4.6499,4.6499,4.5979,4.5599,4.5599,4.5599,4.5599,4.5599,4.6155,4.6589,4.6789,4.5852,4.5291,4.5291,4.3756,4.2892,4.2892,4.2892,4.2892,4.2892,4.2892,4.2892,4.2878,4.2076,4.1705,2.3891,2.5063,2.6307,2.647,2.8238,3.0147,3.0991,3.2364,3.3697,3.4508,3.5918,3.7013,3.7049,3.7067,3.7575,3.9142,3.815,3.7734,3.9301,3.8852,3.8381,3.8381,3.8349,3.8291,3.8277,3.8943,3.9102,3.8368,4.0374,4.1026,3.9609,4.1678,4.2181,4.0605,4.1293,4.1307,4.0515,4.0496,4.0125,3.9414,4.0107,4.0429,4.0388,4.0424,4.0035,3.9301,3.8526,3.8205,3.8205,3.8205,3.8205,3.8205,3.8205,3.8205,3.8205,3.8205,3.8205,3.8205,3.8291,3.9278,4.0641,4.1542,4.2316,4.3055,4.3865,4.3544,4.2892,4.2892,4.2892,4.2892,4.2892,4.2933,4.2946,4.2914,4.2933,4.3163,4.3883,4.4064,4.4354,4.52,4.601,4.6553,4.6553,4.7182,4.7435,4.668,4.6535,4.6499,4.6499,4.6463,4.645,4.645,4.645,4.645,4.645,4.6481,4.6825,4.7585,4.6178,4.5291,4.5291,4.3756,4.2892,4.2892,4.2892,4.2892,4.2892,4.2892,4.2892,4.2878,4.2076,4.1705,2.38,2.4214,2.4903,2.5947,2.6856,2.7834,2.9167,3.0691,3.2093,3.2886,3.4335,3.562,3.6127,3.6643,3.7357,3.8454,3.7715,3.7375,3.8472,3.8381,3.8005,3.7484,3.743,3.743,3.743,3.7697,3.8168,3.8907,3.9754,4.0198,4.0107,4.0904,4.1103,4.0515,4.032,4.0093,3.9804,3.8776,3.8381,3.8635,3.8363,3.8522,3.9043,3.955,3.9645,3.9378,3.9106,3.8671,3.8205,3.8205,3.8205,3.8205,3.8205,3.8205,3.8205,3.8205,3.8205,3.8345,3.9333,4.003,4.0718,4.2049,4.267,4.2946,4.3236,4.3127,4.2892,4.2892,4.2892,4.2892,4.2892,4.2892,4.2892,4.2892,4.2892,4.2987,4.3272,4.3743,4.4336,4.5151,4.5526,4.6064,4.7091,4.7078,4.7006,4.7236,4.7277,4.7277,4.7277,4.7277,4.7277,4.7277,4.7277,4.7277,4.7277,4.7277,4.7381,4.7671,4.6191,4.5291,4.5291,4.3756,4.2892,4.2892,4.2892,4.2892,4.2892,4.2892,4.2892,4.2892,4.2597,4.2466,2.3508,2.3617,2.4054,2.5135,2.5603,2.6144,2.7495,2.904,3.0496,3.1589,3.3085,3.444,3.5247,3.5838,3.6461,3.7254,3.6498,3.6172,3.7236,3.7164,3.6892,3.6624,3.6602,3.6602,3.6602,3.6846,3.7335,3.8119,3.8939,3.9373,3.9328,4.0066,4.0392,4.0139,3.9387,3.8997,3.8997,3.7933,3.7538,3.7788,3.7538,3.7683,3.8223,3.9034,3.9536,3.9767,3.9518,3.8943,3.8205,3.8205,3.8205,3.8205,3.8205,3.8205,3.8205,3.8205,3.8205,3.8349,3.9369,4.0066,4.0677,4.1759,4.2457,4.2892,4.2892,4.2892,4.2892,4.2892,4.2892,4.2892,4.2892,4.2892,4.2892,4.2892,4.2892,4.2892,4.2892,4.3326,4.3865,4.439,4.4711,4.5327,4.6662,4.668,4.677,4.758,4.7707,4.7707,4.7707,4.7707,4.7598,4.7332,4.7296,4.7296,4.7296,4.7296,4.7296,4.7296,4.6046,4.5182,4.491,4.3611,4.2892,4.2892,4.2892,4.2892,4.2892,4.2892,4.2892,4.2892,4.2892,4.282,0.0,0.0,0.0,2.38,2.4396,2.5172,2.5945,2.7369,2.8983,3.0565,3.218,3.3534,3.4334,3.4479,3.4746,3.5543,3.4388,3.3936,3.5488,3.5054,3.4877,3.5641,3.5753,3.5768,3.5768,3.6494,3.6643,3.588,3.8029,3.8671,3.7122,3.9184,4.0107,3.9391,3.8617,3.8205,3.8205,3.8186,3.777,3.7017,3.7734,3.8114,3.8182,3.8961,3.9731,4.0392,3.9695,3.8943,3.8205,3.8205,3.8205,3.8205,3.8205,3.8205,3.8205,3.8205,3.8205,3.8205,3.8259,3.9242,4.0515,4.0551,4.1633,4.2892,4.2892,4.2892,4.2892,4.2892,4.2892,4.2892,4.2892,4.2892,4.2892,4.2892,4.2892,4.2892,4.2892,4.2892,4.2914,4.2933,4.3544,4.4336,4.5164,4.5943,4.6734,4.7549,4.7671,4.7707,4.7707,4.7707,4.7399,4.6626,4.6517,4.6499,4.6499,4.6481,4.6463,4.6463,4.5707,4.491,4.4137,4.3326,4.2892,4.2892,4.2892,4.2892,4.2892,4.2892,4.2892,4.2892,4.2892,4.2658,2.2756,0.0,0.0,0.0,0.0,0.0,2.4414,2.5709,2.7103,2.7936,2.9537,3.0966,3.1534,3.1637,3.1884,3.2632,3.2879,3.3116,3.3564,3.3944,3.4143,3.4065,3.4581,3.4925,3.4925,3.5653,3.6272,0.0,3.7824,3.8345,3.7897,3.8486,3.8744,3.8549,3.8313,3.8205,3.8205,3.7625,3.7212,3.6995,3.6041,3.6204,3.7339,3.7557,3.8092,3.8852,3.9233,3.8943,3.8205,3.8205,3.8205,3.8205,3.8205,3.8205,3.8205,3.8205,3.8205,3.8363,3.9473,4.0139,4.07,4.1868,4.2547,4.2892,4.2892,4.2892,4.2892,4.2892,4.2892,4.2892,4.2892,4.2892,4.2892,4.2892,4.2892,4.2892,4.2892,4.2892,4.3073,4.3652,4.3471,4.367,4.5055,4.549,4.5906,4.6716,4.7332,4.7707,4.7707,4.7707,4.7616,4.7381,4.6843,4.6499,4.6499,4.5979,4.5635,4.5635,4.4879,4.4336,4.4105,4.3326,4.2892,4.2892,4.2892,4.2892,4.2892,4.2892,4.2892,4.2892,4.2892,4.283,0.0,0.0,0.0,2.38,0.0,0.0,2.38,2.4794,2.5842,2.6388,2.7642,2.8822,2.9422,2.9454,2.9612,3.0315,3.0735,3.1352,3.2448,3.3124,3.341,3.3172,3.3709,3.4096,3.4096,3.4526,3.5128,3.5936,3.6743,3.749,3.8164,3.8205,3.8205,3.8205,3.8205,3.8041,3.7697,3.723,3.6828,3.6494,3.5544,3.5765,3.6995,3.6995,3.7448,3.8223,3.8707,3.8635,3.8205,3.8205,3.8205,3.8205,3.8205,3.8205,3.8205,3.8205,3.84,3.8834,3.9727,4.0465,4.1166,4.2099,4.2633,4.2892,4.2892,4.2892,4.2892,4.2892,4.2892,4.2892,4.2892,4.2892,4.2892,4.2892,4.2892,4.2892,4.2892,4.2892,4.3036,4.3507,4.3218,4.3308,4.4589,4.4807,4.5187,4.6336,4.6897,4.7314,4.7652,4.7417,4.7205,4.7205,4.6481,4.5997,4.5997,4.5562,4.5164,4.4825,4.4354,4.3955,4.3611,4.3145,4.2892,4.2892,4.2892,4.2892,4.2892,4.2892,4.2892,4.2892,4.2892,4.2801,0.0,0.0,0.0,0.0,2.4051,0.0,2.3836,2.4448,2.5188,2.5515,2.6189,2.6939,2.7697,2.7724,2.7833,2.8504,2.8467,2.9213,3.1746,3.2407,3.267,3.2795,3.3087,3.3299,3.3389,3.3389,3.3733,3.4548,3.5359,3.6464,3.7987,3.7983,3.7929,3.7929,3.7929,3.7584,3.6864,3.6864,3.6548,3.5938,3.5844,3.6214,3.6995,3.6995,3.7393,3.8078,3.8168,3.8205,3.8205,3.8205,3.8205,3.8205,3.8205,3.8205,3.8205,3.8205,3.8653,3.9283,3.9464,4.041,4.1596,4.1782,4.2316,4.2892,4.2892,4.2892,4.2892,4.2892,4.2892,4.2892,4.2892,4.2892,4.2892,4.2892,4.2892,4.2892,4.2892,4.2892,4.2892,4.2892,4.2892,4.3132,4.3833,4.4046,4.4589,4.6015,4.63,4.6626,4.7345,4.6807,4.6377,4.6377,4.5653,4.5169,4.5169,4.5073,4.477,4.4137,4.4028,4.3689,4.3055,4.2946,4.2892,4.2892,4.2892,4.2892,4.2892,4.2892,4.2892,4.2892,4.2892,4.2677,0.0,0.0,0.0,0.0,2.558,0.0,2.3998,2.4646,2.5374,2.4393,2.4534,2.4997,2.553,2.6077,2.6677,2.7389,2.7736,2.8625,3.0646,3.1264,3.1824,3.2696,3.2582,3.269,3.3339,3.3389,3.3733,3.4548,3.5359,3.6214,3.7176,3.6616,3.6264,3.6264,3.6264,3.6192,3.6047,3.6029,3.6272,3.6755,3.6105,3.6214,3.6995,3.6995,3.7085,3.7267,3.7915,3.8205,3.8205,3.8205,3.8205,3.8205,3.8205,3.8205,3.8205,3.8205,3.8295,3.8617,3.9849,4.0478,4.0949,4.223,4.276,4.2892,4.2892,4.2892,4.2892,4.2892,4.2892,4.2892,4.2892,4.2892,4.2892,4.2892,4.2892,4.2892,4.2892,4.2892,4.2892,4.2892,4.2892,4.2946,4.3109,4.367,4.4214,4.4517,4.5115,4.5599,4.5743,4.5635,4.5526,4.5526,4.4802,4.4336,4.4336,4.3743,4.358,4.4064,4.3489,4.3344,4.3852,4.3236,4.2892,4.2892,4.2892,4.2892,4.2892,4.2892,4.2892,4.2892,4.2892,4.2849,0.0,0.0,0.0,2.4765,2.5208,0.0,0.0,2.4275,2.4599,2.4386,2.3904,2.3801,2.4765,2.4844,2.5046,2.5916,2.611,2.6864,2.8912,2.986,3.0464,3.0769,3.1124,3.1416,3.1593,3.1969,3.2545,3.3335,3.398,3.4776,3.5743,3.5417,3.5391,3.579,3.541,3.5192,3.5192,3.4798,3.5005,3.5805,3.5381,3.5613,3.6417,3.6828,3.6773,3.6472,3.7675,3.7969,3.7607,3.7607,3.7842,3.8205,3.8205,3.8205,3.8205,3.8205,3.8689,3.9455,4.0229,4.1026,4.1832,4.2638,4.2892,4.2892,4.2892,4.2892,4.2892,4.2892,4.2892,4.2892,4.2892,4.2892,4.2892,4.2892,4.2892,4.2892,4.2892,4.2892,4.2892,4.2892,4.2892,4.2892,4.2892,4.3236,4.3634,4.4033,4.4444,4.4843,4.5254,4.4952,4.4698,4.4698,4.3974,4.3666,4.4064,4.372,4.3833,4.4644,4.4318,4.4281,4.468,4.3919,4.3189,4.2565,4.2542,4.2443,4.2195,4.2195,4.2435,4.2887,4.2663,4.2542,2.4966,2.5355,0.0,0.0,2.4995,2.5075,0.0,0.0,0.0,2.4499,2.3663,2.3234,2.4573,2.416,2.3888,2.4691,2.4766,2.5295,2.6932,2.8083,2.8801,2.8926,2.946,2.9794,2.9718,3.0201,3.0934,3.1897,3.2186,3.2839,3.4066,3.3983,3.42,3.4852,3.4258,3.3914,3.3914,3.3266,3.3426,3.4367,3.4367,3.487,3.5826,3.6476,3.6494,3.6083,3.7236,3.7552,3.7212,3.7067,3.7462,3.8186,3.8023,3.806,3.8205,3.8205,3.8993,4.0103,4.0406,4.1266,4.2276,4.2561,4.267,4.267,4.267,4.2783,4.2892,4.2892,4.2892,4.2892,4.2892,4.2892,4.2892,4.2892,4.2892,4.2892,4.2892,4.2892,4.2892,4.2892,4.2892,4.2892,4.2892,4.2892,4.3127,4.3779,4.387,4.41,4.4752,4.4263,4.387,4.387,4.329,4.3163,4.3811,4.387,4.4281,4.5241,4.5146,4.52,4.5526,4.4668,4.357,4.2295,4.2272,4.2014,4.1498,4.1498,4.1881,4.2611,4.2239,4.2069,2.6997,2.7583,0.0,0.0,2.7113,2.7076,2.3646,0.0,2.4666,2.3764,0.0,2.3567,2.4388,0.0,0.0,2.4524,2.5078,2.5334,2.4931,2.5551,2.6886,2.9156,2.8227,2.7903,2.9222,2.906,2.9493,3.1028,3.053,3.083,3.2382,3.1806,3.1444,3.1531,3.1462,3.1408,3.1408,3.1317,3.2038,3.3534,3.3534,3.4327,3.5808,3.588,3.6272,3.6828,3.6305,3.6834,3.8005,3.7285,3.7462,3.8132,3.7412,3.7571,3.8205,3.8205,3.8309,3.8653,4.0035,4.0198,4.0025,4.1388,4.1836,4.1836,4.1836,4.2334,4.2892,4.2892,4.2892,4.2892,4.2892,4.2892,4.2892,4.2892,4.2892,4.2892,4.2892,4.2892,4.2892,4.2892,4.2892,4.2892,4.2892,4.2892,4.2933,4.3018,4.3036,4.3073,4.3163,4.3091,4.3036,4.3036,4.2946,4.2946,4.3023,4.3036,4.3684,4.52,4.4626,4.4879,4.63,4.5135,4.3868,4.258,4.2551,4.2212,4.1498,4.1498,4.1553,4.1656,4.1597,4.1575,2.6962,2.7523,0.0,0.0,0.0,0.0,2.3693,0.0,2.3774,2.3983,0.0,0.0,0.0,0.0,0.0,0.0,2.4124,2.4357,2.4478,2.4036,2.4465,2.6574,2.6627,2.687,2.7868,2.7609,2.7609,2.8171,2.8012,2.8545,3.0038,2.9786,3.0043,3.0973,3.0542,3.0527,3.0995,3.0995,3.1571,3.2708,3.3176,3.3751,3.4418,3.4888,3.5291,3.5606,3.5739,3.6453,3.7444,3.6639,3.7055,3.8114,3.7303,3.7484,3.8205,3.8205,3.8776,3.9568,3.9786,4.0234,4.0845,4.1488,4.1542,4.1353,4.1353,4.1591,4.1799,4.1525,4.1454,4.1612,4.2308,4.2488,4.2552,4.2835,4.2892,4.2892,4.2892,4.2892,4.2892,4.2892,4.2892,4.2892,4.2892,4.2892,4.2892,4.2892,4.2892,4.3073,4.3544,4.3181,4.2964,4.3165,4.2775,4.2685,4.3157,4.2933,4.3389,4.4799,4.4716,4.4914,4.5543,4.5032,4.3933,4.2229,4.2182,4.1693,4.0684,4.0684,4.0684,4.0689,4.0978,4.1088,2.727,0.0,0.0,0.0,0.0,0.0,0.0,0.0,0.0,0.0,2.3972,0.0,0.0,0.0,0.0,0.0,0.0,2.3759,2.3878,2.3143,2.3215,2.4894,2.5756,2.6337,2.664,2.6446,2.6271,2.6202,2.6278,2.6788,2.7887,2.8147,2.8805,2.9974,2.9564,2.9618,3.0192,3.021,3.067,3.1617,3.2284,3.2781,3.3115,3.3694,3.4086,3.4323,3.4683,3.5607,3.6765,3.5973,3.6644,3.8119,3.7422,3.7492,3.8028,3.8149,3.8838,3.9626,3.9328,3.9873,4.0685,4.0469,4.0337,4.0285,4.0285,4.0427,4.058,4.0438,4.0401,4.0673,4.1894,4.2105,4.2131,4.2604,4.2619,4.2523,4.2523,4.2523,4.2523,4.2523,4.2523,4.2523,4.2523,4.2611,4.274,4.2877,4.2687,4.2778,4.3481,4.2969,4.2613,4.2846,4.2359,4.2235,4.2827,4.257,4.2949,4.4303,4.477,4.5002,4.5012,4.5006,4.4162,4.2354,4.2301,4.1782,4.0699,4.0699,4.0597,4.04,4.0543,4.0616,0.0,0.0,0.0,2.8107,0.0,0.0,0.0,0.0,2.5312,0.0,0.0,0.0,0.0,0.0,0.0,0.0,0.0,0.0,0.0,2.2932,2.3921,2.5397,2.6121,2.6317,2.5877,2.5824,2.5926,2.6178,2.5969,2.5968,2.6256,2.7028,2.7462,2.7517,2.7934,2.8176,2.8194,2.8194,2.8823,3.0066,3.0424,3.1204,3.2338,3.2356,3.2791,3.3495,3.2734,3.3938,3.6367,3.5554,3.6408,3.8153,3.7672,3.7506,3.7587,3.8037,3.7938,3.7702,3.8461,3.8499,3.8094,3.7318,3.7564,3.8202,3.8202,3.8739,3.9506,4.0195,4.0401,4.0673,4.1894,4.1867,4.1635,4.211,4.1878,4.1542,4.1542,4.1542,4.1542,4.1542,4.1542,4.1542,4.1542,4.192,4.2383,4.283,4.2129,4.1723,4.2198,4.1848,4.1554,4.1555,4.1537,4.1537,4.1555,4.1544,4.22,4.3722,4.4565,4.5089,4.528,4.5288,4.468,4.3372,4.3342,4.2987,4.2225,4.2225,4.187,4.1147,4.0457,4.0115,0.0,0.0,2.9866,2.8844,0.0,0.0,0.0,0.0,0.0,0.0,0.0,0.0,0.0,0.0,0.0,0.0,0.0,0.0,0.0,2.2932,2.3583,2.4086,2.5105,2.5421,2.4567,2.5274,2.5334,2.423,2.4681,2.5042,2.5135,2.6062,2.6775,2.7123,2.776,2.8013,2.7847,2.8532,2.9015,2.9298,3.0606,3.1349,3.1583,3.208,3.2449,3.2717,3.2924,3.3578,3.4535,3.5241,3.5955,3.6602,3.6441,3.6676,3.7127,3.7282,3.7573,3.794,3.821,3.7684,3.6991,3.7514,3.7703,3.77,3.77,3.8227,3.8821,3.8768,3.91,3.9743,4.0954,4.1168,4.1151,4.1636,4.163,4.1498,4.1498,4.1498,4.1498,4.1498,4.1498,4.1498,4.1498,4.1786,4.2163,4.2623,4.2432,4.2481,4.3177,4.2666,4.2124,4.1853,4.1794,4.1574,4.1076,4.1487,4.2066,4.2753,4.3516,4.4201,4.4804,4.4848,4.4388,4.3423,4.3399,4.3041,4.2293,4.2293,4.2175,4.1921,4.1674,4.1037,2.9823,3.0475,0.0,2.997,2.9588,0.0,2.6848,0.0,2.6755,0.0,0.0,0.0,0.0,0.0,0.0,0.0,0.0,0.0,0.0,2.2713,2.3,2.3,2.4424,2.5131,2.4434,2.5146,2.513,2.3875,2.4108,2.4316,2.4322,2.543,2.6212,2.6561,2.7462,2.7819,2.7533,2.8206,2.8676,2.8942,3.0209,3.0956,3.1211,3.1692,3.1913,3.1935,3.241,3.2871,3.3354,3.4312,3.4979,3.5388,3.5232,3.5636,3.6309,3.6452,3.6903,3.7444,3.7266,3.6696,3.6173,3.6958,3.723,3.7248,3.7248,3.7774,3.8345,3.8306,3.8633,3.9286,4.0482,4.0688,4.0665,4.1134,4.1122,4.1001,4.1001,4.1001,4.1001,4.1001,4.1001,4.1088,4.1348,4.1323,4.1553,4.2462,4.2538,4.2748,4.3427,4.2917,4.2393,4.2137,4.1824,4.1462,4.0983,4.1377,4.195,4.2645,4.3142,4.3768,4.4574,4.4608,4.4364,4.3836,4.3826,4.3589,4.3112,4.3112,4.297,4.2692,4.2692,4.2039]},{"header":{"parameterUnit":"m.s-1","parameterCategory":1,"la1":30.6,"la2":29.2853,"lo1":-89.7004,"lo2":-87.6739,"dy":0.0162,"dx":0.0183,"nx":112,"ny":82,"refTime":"2023-11-03T18:00:00:Z","depth":0,"parameterNumber":3,"parameterNumberName":"V-component_of_WINDS"},"data":[0.0,0.0,0.0,0.0,0.0,0.0,0.0,0.0,0.0,0.0,0.0,0.0,0.0,0.0,0.0,0.0,0.0,0.0,0.0,0.0,0.0,0.0,0.0,0.0,0.0,0.0,0.0,0.0,0.0,0.0,0.0,0.0,0.0,0.0,0.0,0.0,0.0,0.0,0.0,0.0,0.0,0.0,0.0,0.0,0.0,0.0,0.0,0.0,0.0,0.0,0.0,0.0,0.0,0.0,0.0,0.0,0.0,0.0,0.0,0.0,0.0,0.0,0.0,0.0,0.0,0.0,0.0,0.0,0.0,0.0,0.0,0.0,0.0,0.0,0.0,0.0,0.0,0.0,0.0,0.0,0.0,0.0,0.0,0.0,0.0,0.0,0.0,0.0,0.0,0.0,0.5355,0.6787,0.8599,0.9849,1.0194,1.0137,0.946,0.7988,0.0,0.0,0.0,0.0,0.0,0.0,0.0,0.0,0.0,0.0,0.0,0.0,0.0,0.0,0.0,0.0,0.0,0.0,0.0,0.0,0.0,0.0,0.0,0.0,0.0,0.0,0.0,0.0,0.0,0.0,0.0,0.0,0.0,0.0,0.0,0.0,0.0,0.0,0.0,0.0,0.0,0.0,0.0,0.0,0.0,0.0,0.0,0.0,0.0,0.0,0.0,0.0,0.0,0.0,0.0,0.0,0.0,0.0,0.0,0.0,0.0,0.0,0.0,0.0,0.0,0.0,0.0,0.0,0.0,0.0,0.0,0.0,0.0,0.0,0.0,0.0,0.0,0.0,0.0,0.0,0.0,0.0,0.0,0.0,0.0,0.0,0.0,0.0,0.0,0.0,0.0,0.0,0.0,0.0,0.0,0.0,0.0,0.0,0.0,0.0,0.0,0.0,0.0,0.0,0.5434,0.8173,1.0039,1.112,1.1184,1.0763,0.9878,0.8404,0.0,0.0,0.0,0.0,0.0,0.0,0.0,0.0,0.0,0.0,0.0,0.0,0.0,0.0,0.0,0.0,0.0,0.0,0.0,0.0,0.0,0.0,0.0,0.0,0.0,0.0,0.0,0.0,0.0,0.0,0.0,0.0,0.0,0.0,0.0,0.0,0.0,0.0,0.0,0.0,0.0,0.0,0.0,0.0,0.0,0.0,0.0,0.0,0.0,0.0,0.0,0.0,0.0,0.0,0.0,0.0,0.0,0.0,0.0,0.0,0.0,0.0,0.0,0.0,0.0,0.0,0.0,0.0,0.0,0.0,0.0,0.0,0.0,0.0,0.0,0.0,0.0,0.0,0.0,0.0,0.0,0.0,0.0,0.0,0.0,0.0,0.0,0.0,0.0,0.0,0.0,0.0,0.0,0.0,0.0,0.0,0.0,0.0,0.0,0.0,0.0,0.0,0.0,0.6119,0.7233,0.9528,1.0745,1.1346,1.1201,1.0516,0.954,0.821,0.7678,0.0,0.0,0.0,0.0,0.0,0.0,0.0,0.0,0.0,0.0,0.0,0.0,0.0,0.0,0.0,0.0,0.0,0.0,0.0,0.0,0.0,0.0,0.0,0.0,0.0,0.0,0.0,0.0,0.0,0.0,0.0,0.0,0.0,0.0,0.0,0.0,0.0,0.0,0.0,0.0,0.0,0.0,0.0,0.0,0.0,0.0,0.0,0.0,0.0,0.0,0.0,0.0,0.0,0.0,0.0,0.0,0.0,0.0,0.0,0.0,0.0,0.0,0.0,0.0,0.0,0.0,0.0,0.0,0.0,0.0,0.0,0.0,0.0,0.0,0.0,0.0,0.0,0.0,0.0,0.0,0.0,0.0,0.0,0.0,0.0,0.0,0.0,0.0,0.0,0.0,0.0,0.0,0.0,0.0,0.0,0.0,0.0,0.0,0.0,0.0,0.0,0.0,0.7582,0.8902,1.0313,1.0913,1.1129,1.0917,1.0028,0.9031,0.7966,0.7273,0.0,0.0,0.0,0.0,0.0,0.0,0.0,0.0,0.0,0.0,0.0,0.0,0.0,0.0,0.0,0.0,0.0,0.0,0.0,0.0,0.0,0.0,0.0,0.0,0.0,0.0,0.0,0.0,0.0,0.0,0.0,0.0,0.0,0.0,0.0,0.0,0.0,0.0,0.0,0.0,0.0,0.0,0.0,0.0,0.0,0.0,0.0,0.0,0.0,0.0,0.0,0.0,0.0,0.0,0.0,0.0,0.0,0.0,0.0,0.0,0.0,0.0,0.0,0.0,0.0,0.0,0.0,0.0,0.0,0.0,0.0,0.0,0.0,0.0,0.0,0.0,0.0,0.0,0.0,0.0,0.0,0.0,0.0,0.0,0.0,0.0,0.0,0.0,0.0,0.0,0.0,0.0,0.0,0.0,0.0,0.0,0.0,0.0,0.0,0.0,0.0,0.0,0.777,0.9356,0.9974,1.0409,1.0646,1.0634,0.954,0.8584,0.7939,0.7102,0.0,0.0,0.0,0.0,0.0,0.0,0.0,0.0,0.0,0.0,0.0,0.0,0.0,0.0,0.0,0.0,0.0,0.0,0.0,0.0,0.0,0.0,0.0,0.0,0.0,0.0,0.0,0.0,0.0,0.0,0.0,0.0,0.0,0.0,0.0,0.0,0.0,0.0,0.0,0.0,0.0,0.0,0.0,0.0,0.0,0.0,0.0,0.0,0.0,0.0,0.0,0.0,0.0,0.0,0.0,0.0,0.0,0.0,0.0,0.0,0.0,0.0,0.0,0.0,0.0,0.0,0.0,0.0,0.0,0.0,0.0,0.0,0.0,0.0,0.0,0.0,0.0,0.0,0.0,0.0,0.0,0.0,0.0,0.0,0.0,0.0,0.0,0.0,0.0,0.0,0.0,0.0,0.0,0.0,0.0,0.0,0.0,0.0,0.0,0.0,0.0,0.0,0.8018,0.9049,0.9965,1.02,1.0068,0.9527,0.8911,0.8209,0.7393,0.0,0.0,0.0,0.0,0.0,0.0,0.0,0.0,0.0,0.0,0.0,0.0,0.0,0.0,0.0,0.0,0.0,0.0,0.0,0.0,0.0,0.0,0.0,0.0,0.0,0.0,0.0,0.0,0.0,0.0,0.0,0.0,0.0,0.0,0.0,0.0,0.0,0.0,0.0,0.0,0.0,0.0,0.0,0.0,0.0,0.0,0.0,0.0,0.0,0.0,0.0,0.0,0.0,0.0,0.0,0.0,0.0,0.0,0.0,0.0,0.0,0.0,0.0,0.0,0.0,0.0,0.0,0.0,0.0,0.0,0.0,0.0,0.0,0.0,0.0,0.0,0.0,0.0,0.0,0.0,0.0,0.0,0.0,0.0,0.0,0.0,0.0,0.0,0.0,0.0,0.0,0.0,0.0,0.0,0.0,0.0,0.0,0.0,0.0,0.0,0.0,0.0,0.7553,0.817,0.8898,0.9866,0.9878,0.9538,0.8858,0.8382,0.784,0.7196,0.0,0.0,0.0,0.0,0.0,0.0,0.0,0.0,0.0,0.0,0.0,0.0,0.0,0.0,0.0,0.0,0.0,0.0,0.0,0.0,0.0,0.0,0.0,0.0,0.0,0.0,0.0,0.0,0.0,0.0,0.0,0.0,0.0,0.0,0.0,0.0,0.0,0.0,0.0,0.0,0.0,0.0,0.0,0.0,0.0,0.0,0.0,0.0,0.0,0.0,0.0,0.0,0.0,0.0,0.0,0.0,0.0,0.0,0.0,0.0,0.0,0.0,0.0,0.0,0.0,0.0,0.0,0.0,0.0,0.0,0.0,0.0,0.0,0.0,0.0,0.0,0.0,0.0,0.0,0.0,0.0,0.0,0.0,0.0,0.0,0.0,0.0,0.0,0.0,0.0,0.0,0.0,0.0,0.0,0.0,0.0,0.0,0.0,0.0,0.0,0.0,0.0,0.7335,0.8221,0.9025,0.9627,0.9398,0.9084,0.8818,0.8001,0.7502,0.0,0.0,0.0,0.0,0.0,0.0,0.0,0.0,0.0,0.0,0.0,0.0,0.0,0.0,0.0,0.0,0.0,0.0,0.0,0.0,0.0,0.0,0.0,0.0,0.0,0.0,0.0,0.0,0.0,0.0,0.0,0.0,0.0,0.0,0.0,0.0,0.0,0.0,0.0,0.0,0.0,0.0,0.0,0.0,0.0,0.0,0.0,0.0,0.0,0.0,0.0,0.0,0.0,0.0,0.0,0.0,0.0,0.0,0.0,0.0,0.0,0.0,0.0,0.0,0.0,0.0,0.0,0.0,0.0,0.0,0.0,0.0,0.0,0.0,0.0,0.0,0.0,0.0,0.0,0.0,0.0,0.0,0.0,0.0,0.0,0.0,0.0,0.0,0.0,0.0,0.0,0.0,0.0,0.0,0.0,0.0,0.0,0.0,0.0,0.0,0.0,0.0,0.0,0.7995,0.8346,0.8731,0.9284,0.9257,0.8918,0.8225,0.7931,0.7597,0.7176,0.0,0.0,0.0,0.0,0.0,0.0,0.0,0.0,0.0,0.0,0.0,0.0,0.0,0.0,0.0,0.0,0.0,0.0,0.0,0.0,0.0,0.0,0.0,0.0,0.0,0.0,0.0,0.0,0.0,0.0,0.0,0.0,0.0,0.0,0.0,0.0,0.0,0.0,0.0,0.0,0.0,0.0,0.0,0.0,0.0,0.0,0.0,0.0,0.0,0.0,0.0,0.0,0.0,0.0,0.0,0.0,0.0,0.0,0.0,0.0,0.0,0.0,0.0,0.0,0.0,0.0,0.0,0.0,0.0,0.0,0.0,0.0,0.0,0.0,0.0,0.0,0.0,0.0,0.0,0.0,0.0,0.0,0.0,0.0,0.0,0.0,0.0,0.0,0.0,0.0,0.0,0.0,0.0,0.0,0.0,0.0,0.0,0.0,0.0,0.0,0.0,0.0,0.8116,0.8322,0.8563,0.8998,0.9038,0.8731,0.7966,0.79,0.764,0.704,0.0,0.0,0.0,0.0,0.0,0.0,0.0,0.0,0.0,0.0,0.0,0.0,0.0,0.0,0.0,0.0,0.0,0.0,0.0,0.0,0.0,0.0,0.0,0.0,0.0,0.0,0.0,0.0,0.0,0.0,0.0,0.0,0.0,0.0,0.0,0.0,0.0,0.0,0.0,0.0,0.0,0.0,0.0,0.0,0.0,0.0,0.0,0.0,0.0,0.0,0.0,0.0,0.0,0.0,0.0,0.0,0.0,0.0,0.0,0.0,0.0,0.0,0.0,0.0,0.0,0.0,0.0,0.0,0.0,0.0,0.0,0.0,0.0,0.0,0.0,0.0,0.0,0.0,0.0,0.0,0.0,0.0,0.0,0.0,0.0,0.0,0.0,0.0,0.0,0.0,0.0,0.0,0.0,0.0,0.0,0.0,0.0,0.0,0.0,0.0,0.0,0.0,0.7866,0.8196,0.8503,0.8771,0.8798,0.8558,0.7953,0.79,0.764,0.704,0.0,0.0,0.0,0.0,0.0,0.0,0.0,0.0,0.0,0.0,0.0,0.0,0.0,0.0,0.0,0.0,0.0,0.0,0.0,0.0,0.0,0.0,0.0,0.0,0.0,0.0,0.0,0.0,0.0,0.0,0.0,0.0,0.0,0.0,0.0,0.0,0.0,0.0,0.0,0.0,0.0,0.0,0.0,0.0,0.0,0.0,0.0,0.0,0.0,0.0,0.0,0.0,0.0,0.0,0.0,0.0,0.0,0.0,0.0,0.0,0.4691,0.0,0.0,0.0,0.0,0.0,0.0,0.0,0.0,0.0,0.0,0.0,0.0,0.0,0.0,0.0,0.0,0.0,0.0,0.0,0.0,0.0,0.0,0.0,0.0,0.0,0.0,0.0,0.0,0.0,0.0,0.0,0.0,0.0,0.0,0.0,0.0,0.0,0.0,0.0,0.0,0.0,0.7866,0.8196,0.8503,0.8771,0.8798,0.8558,0.7953,0.79,0.764,0.704,0.7,0.0,0.0,0.0,0.0,0.0,0.0,0.0,0.0,0.0,0.0,0.0,0.0,0.0,0.0,0.0,0.0,0.0,0.0,0.0,0.0,0.0,0.0,0.0,0.0,0.0,0.0,0.0,0.0,0.0,0.0,0.0,0.0,0.0,0.0,0.0,0.0,0.0,0.0,0.0,0.0,0.0,0.0,0.0,0.0,0.0,0.0,0.0,0.0,0.0,0.0,0.0,0.0,0.0,0.0,0.0,0.0,0.0,0.0,0.0,0.0,0.5827,0.0,0.0,0.0,0.0,0.0,0.0,0.0,0.0,0.0,0.0,0.0,0.0,0.0,0.0,0.0,0.0,0.0,0.0,0.0,0.0,0.0,0.0,0.0,0.0,0.0,0.0,0.0,0.0,0.0,0.0,0.0,0.0,0.0,0.0,0.0,0.0,0.0,0.0,0.0,0.0,0.8278,0.8598,0.8838,0.8978,0.8991,0.8758,0.8184,0.7991,0.7706,0.7273,0.709,0.0,0.0,0.0,0.0,0.0,0.0,0.0,0.0,0.0,0.0,0.0,0.0,0.0,0.0,0.0,0.0,0.0,0.0,0.0,0.0,0.0,0.0,0.0,0.0,0.0,0.0,0.0,0.0,0.0,0.0,0.0,0.0,0.0,0.0,0.0,0.0,0.0,0.0,0.0,0.0,0.0,0.0,0.0,0.0,0.0,0.0,0.0,0.0,0.0,0.0,0.0,0.0,0.0,0.8678,0.9278,0.9522,0.9411,0.9435,0.9537,0.8667,0.8048,0.7585,0.6644,0.0,0.0,0.0,0.0,0.0,0.0,0.0,0.0,0.0,0.0,0.0,0.0,0.0,0.0,0.0,0.0,0.0,0.0,0.0,0.0,0.0,0.0,0.0,0.0,0.8647,0.8557,0.7351,0.0,0.0,0.0,0.0,0.0,0.0,0.0,0.0,0.0,0.0,0.0,0.8738,0.9124,0.9317,0.921,0.925,0.9045,0.8456,0.815,0.785,0.7522,0.724,0.7058,0.0,0.0,0.0,0.0,0.0,0.0,0.0,0.0,0.0,0.0,0.0,0.0,0.0,0.0,0.0,0.0,0.0,0.0,0.0,0.0,0.0,0.0,0.0,0.0,0.0,0.0,0.0,0.0,0.0,0.0,0.0,0.0,0.5387,0.562,0.0,0.0,0.0,0.0,0.0,0.0,0.0,0.0,0.0,0.0,0.0,0.0,0.0,0.7777,0.885,0.9565,0.9689,0.9219,1.0116,1.0348,1.0023,1.081,1.1287,1.154,1.1741,0.0,0.7806,0.7153,0.0,0.0,0.0,0.0,0.0,0.0,0.0,0.0,0.0,0.0,0.0,0.0,0.0,0.0,0.0,0.0,0.0,0.0,0.0,0.0,0.0,0.0,0.915,0.9498,0.9405,0.9269,0.0,0.8537,0.7715,0.7715,0.7532,0.0,0.0,0.0,0.0,0.0,0.0,0.0,0.8791,0.9491,0.9784,0.925,0.9458,0.9299,0.8476,0.8355,0.8094,0.7535,0.7456,0.7306,0.7013,0.7,0.0,0.0,0.0,0.0,0.0,0.0,0.0,0.0,0.0,0.0,0.0,0.0,0.0,0.0,0.0,0.0,0.0,0.0,0.0,0.0,0.0,0.0,0.0,0.0,0.0,0.0,0.0,0.0,0.0,0.5329,0.5642,0.5489,0.5842,0.5909,0.0,0.0,0.0,0.0,0.0,0.0,0.0,0.0,0.0,0.8624,0.8917,0.9369,1.0008,1.0872,1.1337,1.1424,1.2215,1.2673,1.2803,1.2945,1.3163,1.3408,1.3322,1.2404,1.089,0.9605,0.8818,0.8378,0.0,0.0,0.0,0.0,0.8428,0.8651,0.8764,0.8797,0.8804,0.8802,0.0,0.0,0.0,0.0,0.0,0.0,0.0,0.0,0.0,0.0,1.0566,1.0948,1.0919,1.087,1.1037,1.035,0.9463,0.0,0.8094,0.7734,0.7711,0.0,0.0,0.0,0.0,0.9151,0.9485,1.0159,1.0448,1.0027,0.9947,0.9713,0.9179,0.8954,0.8735,0.847,0.8139,0.7883,0.7736,0.7587,0.7504,0.0,0.0,0.0,0.0,0.0,0.0,0.0,0.0,0.0,0.0,0.0,0.0,0.0,0.0,0.0,0.0,0.0,0.0,0.0,0.0,0.0,0.0,0.0,0.0,0.0,0.0,0.0,0.0,0.5667,0.5927,0.5454,0.6142,0.6403,0.0,0.0,0.0,0.0,0.0,0.0,0.8118,0.9091,0.9877,1.0399,1.072,1.11,1.1539,1.2431,1.3068,1.3471,1.4253,1.4801,1.5158,1.4879,1.4822,1.4908,1.4559,1.4214,1.3773,1.1926,1.0884,1.0407,0.985,0.9748,0.9932,1.0102,1.0413,1.079,1.1023,1.1103,1.106,1.0779,1.0451,1.0015,0.917,0.0,0.0,0.0,0.0,1.0322,1.0804,1.1369,1.193,1.2396,1.2451,1.2384,1.2384,1.1904,1.1055,0.0,0.8942,0.8521,0.8469,0.0,0.0,0.0,0.0,0.9876,1.0412,1.1009,1.1248,1.0884,1.0652,1.0343,0.9914,0.954,0.9324,0.9301,0.8854,0.8511,0.8358,0.8194,0.7994,0.7772,0.0,0.0,0.0,0.0,0.0,0.0,0.0,0.0,0.0,0.0,0.0,0.0,0.0,0.0,0.0,0.0,0.0,0.0,0.0,0.0,0.0,0.0,0.0,0.0,0.0,0.0,0.0,0.0,0.0,0.5738,0.6672,0.0,0.0,0.0,0.0,0.7253,0.8911,0.9833,0.9604,1.0372,1.1291,1.2333,1.2621,1.3292,1.4379,1.4953,1.5154,1.5004,1.5864,1.6129,1.5866,1.6148,1.6126,1.583,1.5812,1.5615,1.5151,1.3206,1.2239,1.1924,1.1325,1.1292,1.1542,1.1237,1.1504,1.1975,1.1739,1.1664,1.179,1.2588,1.2445,1.1798,1.0864,1.0413,0.0,0.0,1.1049,1.1491,1.2213,1.2662,1.3088,1.3742,1.3655,1.3418,1.3418,1.2898,1.2049,0.0,1.0236,0.9874,0.9499,0.0,0.9859,1.0087,1.0627,1.1132,1.1478,1.2052,1.2206,1.1611,1.1595,1.1286,1.0441,0.9939,0.9652,0.9583,0.9434,0.9089,0.8516,0.8596,0.8268,0.744,0.8237,0.0,0.0,0.0,0.0,0.0,0.0,0.0,0.0,0.0,0.0,0.0,0.0,0.0,0.0,0.0,0.0,0.0,0.0,0.0,0.0,0.0,0.0,0.0,0.0,0.0,0.0,0.0,0.0,0.7074,0.7944,0.0,0.8174,0.8251,0.8686,0.9546,1.0277,1.0999,1.1718,1.2696,1.3472,1.4026,1.4562,1.5026,1.5426,1.5845,1.6009,1.5933,1.6246,1.6342,1.6235,1.6356,1.6331,1.6217,1.6217,1.6151,1.5972,1.5063,1.4277,1.3594,1.317,1.2945,1.2871,1.2967,1.327,1.3632,1.3542,1.3498,1.3446,1.3111,1.271,1.2292,1.1961,1.1941,1.2075,1.2209,1.2649,1.3125,1.3404,1.3713,1.4023,1.4257,1.4237,1.414,1.414,1.3957,1.3532,1.2637,1.1531,1.0792,1.0948,1.0919,1.1052,1.1596,1.2051,1.2369,1.2491,1.3029,1.3044,1.2087,1.2475,1.2212,1.078,1.0938,1.0851,1.0225,0.9568,0.9246,0.9333,0.8974,0.8763,0.8756,0.91,0.9197,0.0,0.0,0.0,0.0,0.0,0.0,0.0,0.0,0.0,0.0,0.0,0.0,0.0,0.0,0.0,0.0,0.0,0.0,0.0,0.0,0.0,0.0,0.0,0.0,0.0,0.7474,0.8241,0.818,0.9203,0.9814,0.9563,0.9811,1.0355,1.1264,1.1946,1.273,1.3686,1.4415,1.4984,1.5388,1.5735,1.5954,1.6067,1.6404,1.651,1.6408,1.6609,1.666,1.6569,1.6656,1.6653,1.6569,1.6656,1.6653,1.6554,1.6327,1.5876,1.5249,1.4687,1.434,1.4172,1.4392,1.4604,1.4804,1.4804,1.4804,1.468,1.389,1.3486,1.3289,1.3205,1.3331,1.3521,1.3621,1.3965,1.4333,1.4443,1.4643,1.4804,1.4804,1.4804,1.4775,1.4665,1.4626,1.4482,1.394,1.2896,1.2107,1.2194,1.2152,1.2271,1.2756,1.312,1.3337,1.3337,1.3784,1.3812,1.306,1.3508,1.3298,1.1897,1.202,1.1846,1.1089,1.0327,0.9907,0.9896,0.9804,0.9675,0.9538,0.9869,1.0039,1.0041,0.0,0.0,0.0,0.0,0.0,0.0,0.0,0.0,0.0,0.0,0.0,0.0,0.0,0.0,0.0,0.0,0.0,0.0,0.0,0.0,0.0,0.0,0.0,0.7129,0.8381,0.9207,0.9033,1.0421,1.0975,0.9885,1.1695,1.2767,1.2354,1.3942,1.5072,1.5407,1.5428,1.5727,1.6378,1.6107,1.6082,1.6415,1.6756,1.6745,1.6437,1.7029,1.7179,1.6939,1.7201,1.7172,1.6935,1.719,1.7157,1.6906,1.6903,1.6903,1.6796,1.5826,1.5428,1.5428,1.5428,1.5421,1.5424,1.5424,1.5407,1.5348,1.5017,1.4922,1.4866,1.4609,1.4523,1.4587,1.4844,1.4922,1.4988,1.5319,1.5399,1.5399,1.5399,1.5399,1.5312,1.4988,1.4922,1.4847,1.4565,1.4257,1.383,1.3161,1.3316,1.353,1.353,1.3818,0.0,1.403,1.4308,1.4518,1.4531,1.4738,1.4555,1.3786,1.3144,1.2579,1.2142,1.1709,1.1074,1.0184,1.1068,1.0974,0.9684,1.049,1.0926,1.0937,0.0,0.0,0.0,0.0,0.0,0.0,0.0,0.0,0.0,0.0,0.0,0.0,0.0,0.0,0.0,0.0,0.0,0.0,0.0,0.0,0.0,0.8459,0.937,0.8712,0.9878,1.097,1.1446,1.2666,1.3559,1.378,1.3868,1.4278,1.5184,1.5264,1.5506,1.6093,1.6133,1.6213,1.6382,1.6554,1.6671,1.6752,1.7052,1.7138,1.7058,1.7475,1.7621,1.7552,1.7628,1.7621,1.7545,1.7368,1.7263,1.7168,1.6987,1.6903,1.6851,1.6331,1.6133,1.6133,1.6133,1.5972,1.576,1.576,1.5596,1.5385,1.529,1.5261,1.5246,1.5169,1.5157,1.5172,1.5239,1.5261,1.5282,1.5388,1.5399,1.5399,1.5399,1.5399,1.537,1.5282,1.5261,1.5166,1.4844,1.4913,1.4813,1.4189,1.4162,1.423,1.423,1.4294,0.0,1.4628,1.4728,1.4895,1.5188,1.5967,1.5863,1.4396,1.4333,1.3779,1.2401,1.1481,1.1015,1.1044,1.1073,1.1083,1.1048,1.1287,1.155,0.0,0.0,0.0,0.0,0.0,0.0,0.0,0.0,0.0,0.0,0.0,0.0,0.0,0.0,0.0,0.0,0.0,0.0,0.0,0.0,0.0,0.0,0.9951,1.1041,1.1187,1.2015,1.2823,1.336,1.4287,1.4987,1.5251,1.5224,1.5436,1.6057,1.5928,1.6048,1.6576,1.6605,1.673,1.6978,1.7037,1.7198,1.7481,1.7497,1.758,1.7723,1.7921,1.8008,1.8008,1.8008,1.8008,1.8001,1.7792,1.7723,1.7709,1.755,1.74,0.0,0.0,0.0,0.0,0.0,1.6279,1.6104,1.6104,1.5888,1.5614,1.5614,1.5509,1.5399,1.5399,1.5399,1.5399,1.5399,1.5399,1.5399,1.5399,1.5399,1.5399,1.5399,1.5399,1.5399,1.5399,1.5399,1.5341,1.5151,1.5268,0.0,1.4757,1.4779,1.4789,1.4538,1.4879,1.5193,1.5231,1.5655,1.6105,1.6499,1.7109,1.6925,1.5536,1.5192,0.0,0.0,0.0,1.1672,1.2013,1.1646,0.0,0.0,0.0,1.216,1.2198,0.0,0.0,0.0,1.1938,1.1801,0.0,0.0,0.0,0.0,0.0,0.0,0.0,0.0,0.0,0.0,0.0,0.0,0.0,0.0,0.0,0.0,1.1439,1.2419,1.4032,1.4477,1.4697,1.4866,1.5464,1.5759,1.544,1.6104,1.6372,1.5911,1.6342,1.673,1.6987,0.0,0.0,0.0,0.0,1.7709,1.8286,1.8001,1.8013,1.8299,1.8343,1.8357,1.8357,1.8357,1.8357,1.8357,1.8321,1.8299,1.8299,1.8299,1.8096,1.7716,1.6839,1.6499,1.6499,1.6499,1.6477,1.6459,1.6459,0.0,0.0,1.5954,1.5764,1.5512,1.5512,1.5512,1.5494,1.5475,1.5468,1.5454,1.5407,1.5399,1.5399,1.5399,1.5399,1.5399,1.5399,1.5399,1.5399,1.5399,1.5399,1.5304,1.5009,1.5173,1.5147,1.4589,1.5314,1.5844,1.5641,1.6578,1.7448,1.7953,0.0,0.0,1.6974,1.5962,1.4883,1.3782,1.3019,1.27,1.2894,1.2504,1.2281,1.2281,1.2692,1.2701,1.2276,1.2701,1.2899,1.2899,1.2899,1.2899,0.0,0.0,0.0,0.0,0.0,0.0,0.0,0.0,0.0,0.0,0.0,0.0,0.0,0.0,0.0,1.193,1.3544,1.498,1.5749,1.6357,1.6542,1.6049,1.6577,1.7069,1.7265,1.7425,1.7379,1.7012,1.7586,1.7845,1.764,1.7882,1.8079,1.8203,1.8133,1.8162,1.8299,1.824,1.824,1.8306,0.0,0.0,1.8694,1.8694,1.8694,1.8692,1.8416,1.8299,1.8299,1.8299,1.8096,1.776,1.7295,1.7131,1.7131,1.7131,1.6993,1.6796,1.6796,1.6583,1.6301,1.6301,1.6257,1.6213,1.6213,1.6213,0.0,1.5881,1.5804,1.5739,1.5465,1.5399,1.5399,1.5399,1.5399,1.5399,1.5399,1.5399,1.5399,1.5399,1.5399,1.5377,1.5312,1.5126,1.4881,1.4553,1.4673,1.4872,1.5028,1.5865,1.6829,1.7884,1.8289,1.8425,1.8249,1.7447,1.6416,1.5105,1.3946,1.3178,1.2913,1.2815,1.276,1.276,1.2854,1.286,1.276,1.286,1.2899,1.2899,1.2899,1.2899,0.0,0.0,0.0,0.0,0.0,0.0,0.0,0.0,0.0,0.0,0.0,0.9484,0.9755,0.0,1.2343,1.3378,1.4876,1.6088,1.6585,1.731,1.7683,1.7346,1.7443,1.7675,1.8016,1.8045,1.7979,1.7818,1.8103,1.8233,1.8052,1.8364,1.8547,1.8547,1.8547,1.8633,1.8801,1.8628,1.8628,1.8801,1.897,1.9043,1.9043,1.9043,1.9043,1.9036,1.8875,1.8801,1.8787,1.8613,1.8445,1.8255,1.7753,1.7448,1.7302,1.7302,1.7219,1.7103,1.7103,1.6902,1.6642,1.6642,1.6539,1.64,1.64,1.64,1.6371,1.6195,1.6151,1.6104,1.5943,1.5778,1.5651,1.5651,1.5516,1.5399,1.5399,1.5399,1.5399,1.5399,1.5748,1.6054,1.6054,1.6266,1.605,1.4879,1.5038,1.5525,1.6117,1.6894,1.7891,1.9168,1.9274,1.9164,1.8969,1.7785,1.6391,1.4852,1.4557,1.4173,1.3529,1.3499,1.3499,1.3499,1.3301,1.3301,1.3499,1.3743,1.3857,1.3857,1.4059,1.3815,0.0,0.0,0.0,0.0,0.0,0.0,0.0,0.8718,0.8453,0.9251,0.9942,1.0635,1.1369,1.2486,1.3703,1.4989,1.6041,1.6811,1.72,1.7853,1.8328,1.8386,1.8096,1.8023,1.8364,1.8394,1.8372,1.8306,1.8423,1.8467,1.8401,1.8721,1.8897,1.8897,1.8897,1.9034,1.9298,1.9028,1.9028,1.9305,1.9305,1.9305,1.9305,1.9305,1.9305,1.9305,1.9305,1.9305,1.9283,1.9006,1.886,1.875,1.8211,1.7753,1.739,1.732,1.7302,1.7302,1.7302,1.7165,1.6979,1.6979,1.6792,1.6568,1.6568,1.6568,1.6565,1.6517,1.6495,1.6481,1.6415,1.6195,1.6001,1.6001,1.5739,1.5505,1.5505,1.5454,1.5444,1.5613,1.6221,1.675,1.6923,1.7525,1.7423,1.5748,1.6053,1.6735,1.7504,1.8265,1.9148,2.0226,2.008,1.9746,1.9325,1.7863,1.6278,1.4695,1.5191,1.5149,1.4277,1.4309,1.4351,1.4351,1.4023,1.403,1.4351,1.4736,1.4916,1.4919,1.5254,1.4807,0.8257,0.8584,0.9088,0.8944,0.8956,0.9379,0.0,1.0438,0.9899,1.0406,1.1843,1.2979,1.2968,1.4856,1.6531,1.6938,1.7606,1.8095,1.8155,1.8237,1.8408,1.8714,1.8445,1.8379,1.8714,1.8738,1.8613,1.8321,1.8853,1.905,1.8765,1.9058,1.9233,1.9233,1.9233,1.9268,1.9305,1.9268,1.9268,1.9305,1.9305,1.9305,1.9305,1.9305,1.9305,1.9305,1.9305,1.9305,1.9298,1.9261,1.9078,1.8794,1.8721,1.8299,1.7716,1.7412,1.7302,1.7302,1.7302,1.728,1.7263,1.7263,1.7229,1.72,1.72,1.72,1.7153,1.6913,1.6833,1.6778,1.6481,1.6367,1.6338,1.6338,1.6082,1.5841,1.5841,1.5614,1.5631,1.6399,1.6627,1.6954,1.7725,1.7937,1.792,1.7695,1.7736,1.7827,1.7937,1.8695,1.9276,1.9431,1.9717,1.9746,1.9325,1.8409,1.7444,1.6473,1.6177,1.5628,1.476,1.5054,1.5249,1.5249,1.521,1.521,1.5249,1.5315,1.5327,1.5327,1.5383,1.513,0.8458,0.8699,0.8944,0.9364,0.9547,0.9877,1.0873,1.0616,1.0432,1.1327,1.2802,1.3855,1.365,1.5317,1.6556,1.6042,1.7019,1.7732,1.7413,1.8074,1.8635,1.8787,1.8503,1.8503,1.9049,1.9268,1.9327,1.9175,1.943,1.9592,1.9617,1.9403,1.9386,1.9576,1.94,1.9305,1.9305,1.9305,1.9305,1.9305,1.9305,1.9305,1.9305,1.9305,1.9305,1.9305,1.9305,1.9305,1.9305,1.9305,1.9224,1.9065,1.8875,1.8633,1.8343,1.8013,1.7643,1.7331,1.7521,1.7463,1.7302,1.7302,1.7302,1.7302,1.7302,1.7302,1.728,1.7153,1.7019,1.6866,1.6734,1.6404,1.6158,1.6345,1.6585,1.6816,1.6974,1.7357,1.7775,1.8146,1.8627,1.8994,1.9091,1.953,1.9788,1.9547,1.8648,1.8178,1.8687,1.9074,1.9489,2.0001,2.0207,2.0029,1.9364,1.8964,1.8281,1.7178,1.7168,1.6816,1.5942,1.6069,1.6159,1.6159,1.5935,1.5918,1.6159,1.6428,1.6562,1.657,1.6799,1.6699,0.8315,0.8716,0.9024,0.9749,1.0222,1.0608,1.1064,1.0976,1.108,1.2092,1.3497,1.4437,1.4082,1.5575,1.6583,1.5742,1.6755,1.7554,1.7304,1.8152,1.8736,1.8553,1.8394,1.8489,1.8983,1.9327,1.9598,1.9795,1.9802,1.9914,2.0196,1.9724,1.9547,1.9795,1.9474,1.9305,1.9305,1.9305,1.9305,1.9305,1.9305,1.9305,1.9305,1.9305,1.9305,1.9305,1.9305,1.9305,1.929,1.9202,1.9153,1.9137,1.8794,1.8611,1.8516,1.8357,1.7935,1.7456,1.7602,1.7499,1.7302,1.7302,1.7302,1.7302,1.7302,1.7302,1.7302,1.7302,1.7165,1.7005,1.7005,1.6645,1.6415,1.694,1.7356,1.7785,1.8251,1.8854,1.9375,1.9609,2.0168,2.0568,2.0467,2.0981,2.1259,2.083,1.9686,1.9072,1.9587,1.9657,1.9903,2.0527,2.0605,2.0341,1.9716,1.954,1.8965,1.7803,1.8001,1.7719,1.6746,1.6814,1.6898,1.6898,1.6607,1.6656,1.7066,1.7402,1.7575,1.7577,1.7863,1.7833,0.7838,0.8736,0.96,1.0149,1.102,1.1801,1.2012,1.2048,1.2181,1.2679,1.4058,1.4989,1.4397,1.6035,1.7396,1.7167,1.7612,1.8166,1.8669,1.8771,1.8555,1.7906,1.8116,1.8313,1.8328,1.8628,1.9094,1.9751,1.9802,1.9914,2.0196,1.9936,1.9795,1.9802,1.9474,1.9305,1.9305,1.9305,1.9305,1.9305,1.9305,1.9305,1.9305,1.9305,1.9305,1.9305,1.9305,1.9305,1.9263,1.8948,1.8816,1.8787,1.8445,1.8123,1.787,1.8177,1.8082,1.7733,1.7426,1.7309,1.7302,1.7302,1.7302,1.7302,1.7302,1.7302,1.7302,1.7302,1.7283,1.7288,1.7288,1.7261,1.7515,1.8491,1.8486,1.8544,1.9535,1.9506,1.9556,2.0399,2.0587,2.0859,2.17,2.1865,2.1719,2.1249,2.1131,2.0965,2.0605,2.0566,2.0566,2.0605,2.0605,2.0595,2.0556,2.0137,1.9494,1.8617,1.8587,1.8021,1.6755,1.7139,1.738,1.738,1.737,1.7557,1.796,1.7971,1.798,1.798,1.7991,1.7991,0.8254,0.9037,0.9926,1.0866,1.1646,1.2257,1.251,1.2808,1.299,1.2833,1.3661,1.4034,1.28,1.3999,1.5164,1.5089,1.6125,1.7256,1.8137,1.8581,1.8628,1.8189,1.803,1.8064,1.8284,1.8801,1.9395,2.0019,2.0063,2.0297,2.0824,2.0185,1.9884,2.0056,1.957,1.9305,1.9305,1.9305,1.9305,1.9305,1.9305,1.9305,1.9305,1.9305,1.9305,1.9305,1.9305,1.9305,1.929,1.9188,1.9124,1.9116,1.9006,1.8765,1.8445,1.8343,1.8094,1.7777,1.7667,1.7485,1.7302,1.7302,1.7302,1.7302,1.7302,1.7302,1.7302,1.7302,1.7168,1.7034,1.7034,1.733,1.7773,1.8326,1.9371,2.0382,2.0944,2.146,2.191,2.22,2.2254,2.2265,2.2291,2.2081,2.1651,2.0908,2.0801,2.0742,2.0625,2.0605,2.0605,2.0605,2.0605,2.0605,2.0605,2.0175,1.9776,1.9483,1.921,1.8868,1.8439,1.8027,1.7921,1.8196,1.7666,1.7596,1.7999,1.7999,1.7999,1.7999,1.7999,1.7861,0.9039,0.975,1.0481,1.1674,1.2312,1.2721,1.2988,1.3215,1.3348,1.328,1.352,1.3426,1.2395,1.2986,1.3712,1.3934,1.4894,1.616,1.7715,1.8123,1.8264,1.8299,1.8218,1.8184,1.8291,1.8904,1.9512,2.0025,1.9946,2.0158,2.0816,2.0178,1.9884,2.0048,1.9563,1.9305,1.9305,1.9305,1.9305,1.9305,1.9305,1.9305,1.9305,1.9305,1.9305,1.9305,1.9305,1.9305,1.929,1.9173,1.9116,1.91,1.886,1.8628,1.8401,1.8072,1.7811,1.7616,1.7616,1.7477,1.7302,1.7302,1.7302,1.7302,1.7302,1.7302,1.7302,1.7302,1.7179,1.7129,1.7488,1.7868,1.839,1.9298,2.0468,2.1527,2.2071,2.2676,2.3091,2.3091,2.3091,2.3024,2.2762,2.2266,2.171,2.1153,2.0801,2.0605,2.0605,2.0605,2.0605,2.0605,2.0605,2.0605,2.0605,2.0322,2.0078,1.9903,1.9668,1.9375,1.9063,1.8508,1.8274,1.8382,1.8019,1.7891,1.7999,1.8137,1.8137,1.7999,1.7999,1.7863,1.0097,1.0816,1.1295,1.2508,1.296,1.3184,1.3439,1.3276,1.3251,1.3855,1.3538,1.3106,1.2924,1.2894,1.3095,1.3718,1.405,1.506,1.7452,1.7542,1.7617,1.8272,1.8655,1.8728,1.8408,1.8919,1.943,1.9781,0.0,1.9592,2.0189,1.9958,1.9809,1.9824,1.9481,1.9305,1.9305,1.9305,1.9305,1.9305,1.9305,1.9305,1.9305,1.9305,1.9305,1.9305,1.9283,1.9263,1.9254,1.8911,1.8767,1.8714,1.8067,1.7818,1.7755,1.7441,1.7305,1.7302,1.7302,1.7302,1.7302,1.7302,1.7302,1.7302,1.7302,1.7302,1.7302,1.7302,1.7337,1.7606,1.8554,1.8868,1.941,2.1262,2.1739,2.2026,2.2905,2.3091,2.3091,2.3091,2.3091,2.3091,2.3062,2.2431,2.1925,2.1876,2.1162,2.0625,2.0595,2.0605,2.0605,2.0605,2.0605,2.0605,2.0605,2.0605,2.041,1.9961,1.9942,1.9562,1.8743,1.8656,1.8479,1.8098,1.8411,1.8402,1.8068,1.8431,1.8402,1.803,1.803,1.8009,1.0763,1.1702,1.2576,1.2755,1.3101,1.3412,1.3477,1.3177,1.2772,1.2386,1.1772,1.1059,1.0324,1.0918,1.1769,1.2581,1.3765,1.5289,1.7364,1.7955,1.8404,1.8979,1.9342,1.951,1.9422,1.9116,1.925,2.0041,1.9834,1.9936,2.0539,2.0083,1.9898,2.0092,1.9585,1.9305,1.9305,1.9305,1.9305,1.9305,1.9305,1.9305,1.9305,1.9305,1.9305,1.929,1.9049,1.8926,1.8897,1.8575,1.843,1.8408,1.824,1.8016,1.7796,1.7697,1.7514,1.7302,1.7302,1.7302,1.7302,1.7302,1.7302,1.7302,1.7302,1.7302,1.7302,1.7302,1.7843,1.8484,1.873,1.9866,2.1094,2.1583,2.2236,2.2817,2.3047,2.3091,2.3091,2.3091,2.3091,2.2994,2.2692,2.248,2.2128,2.1484,2.1191,2.0947,2.0635,2.0605,2.0605,2.0605,2.0605,2.0605,2.0605,2.0605,2.0547,2.0439,2.042,2.0322,2.0097,1.9472,1.921,1.9415,1.8576,1.8419,1.8974,1.8714,1.8558,1.845,1.845,1.8136,1.1704,1.2576,1.3362,1.3161,1.3369,1.3518,1.3104,1.2758,1.2343,1.1813,1.0882,1.0094,0.9857,1.0128,1.0701,1.166,1.2818,1.4387,1.6662,1.7482,1.8261,1.9396,1.9914,2.0141,1.9981,1.9769,1.9792,2.0174,1.9827,1.9841,2.0451,2.0046,1.9922,2.0196,1.9608,1.9305,1.9305,1.9305,1.9305,1.9305,1.9305,1.9305,1.9305,1.9305,1.9224,1.9065,0.0,1.8721,1.8575,1.8379,1.8299,1.8284,1.8145,1.7965,1.7777,1.7631,1.7463,1.7302,1.7302,1.7302,1.7302,1.7302,1.7302,1.7302,1.7302,1.7302,1.7384,1.7831,1.8357,1.8995,1.9843,2.1007,2.2064,2.252,2.302,2.3465,2.3629,2.3532,2.3417,2.3417,2.3417,2.3269,2.284,2.247,2.207,2.1582,2.1181,2.0859,2.0625,2.0605,2.0605,2.0605,2.0605,2.0605,2.0605,2.0605,2.0507,2.0312,2.0488,2.0507,2.0293,2.0019,1.9882,1.9903,1.9394,1.9189,1.9296,1.921,1.8968,1.8598,1.881,1.8458,1.2594,1.3237,1.3672,1.3442,1.3488,1.337,1.2552,1.2114,1.1806,1.1489,1.0364,0.9614,1.0213,0.9845,0.9822,1.0937,1.1682,1.3066,1.5789,1.6669,1.7738,1.9638,2.0341,2.0597,2.0364,2.0517,2.0546,2.0349,1.9769,1.9667,2.0239,1.9973,1.9898,2.0071,1.9622,1.9349,1.9305,1.9305,1.9305,1.9305,1.9305,1.9305,1.9305,1.9305,1.9122,1.8801,1.8745,1.854,1.8233,1.8196,1.8174,1.8145,1.7848,1.7726,1.7709,1.7412,1.7302,1.7302,1.7302,1.7302,1.7302,1.7302,1.7302,1.7309,1.7342,1.7432,1.7687,1.8608,1.9015,1.957,2.1262,2.2053,2.2636,2.3578,2.38,2.3917,2.4315,2.4131,2.3857,2.381,2.38,2.3652,2.318,2.248,2.1963,2.1915,2.1202,2.0664,2.0615,2.0605,2.0605,2.0605,2.0605,2.0605,2.0605,2.0605,2.0439,2.002,2.0322,2.0351,2.001,2.0322,2.0332,2.0,2.0322,2.0175,1.9471,1.9756,1.9513,1.8783,1.9141,1.8857,1.2547,1.3003,1.3292,1.2866,1.2613,1.2418,1.2203,1.1483,1.0685,1.009,0.9198,0.8592,0.8818,0.8766,0.9133,1.048,1.1214,1.2649,1.5616,1.6743,1.7963,1.9908,2.0466,2.0794,2.1006,2.0575,2.0495,2.0992,2.0421,2.021,2.059,2.0097,1.9693,1.946,1.962,1.9576,1.9305,1.9305,1.9305,1.9305,1.9305,1.9305,1.9305,1.9305,1.9122,1.8787,1.8503,0.0,1.787,1.7587,1.7477,1.747,1.7412,1.739,1.7382,1.7324,1.7302,1.7302,1.7302,1.7302,1.7302,1.7302,1.7302,1.7353,1.7624,1.8097,1.8632,1.9087,2.017,2.1262,2.1617,2.2337,2.3098,2.3668,2.38,2.3917,2.4315,2.4354,2.4197,2.3857,2.38,2.3652,2.318,2.2713,2.2285,2.1944,2.1435,2.0976,2.0644,2.0605,2.0605,2.0605,2.0605,2.0605,2.0605,2.0605,2.0566,2.0478,2.0185,2.0156,2.0468,2.0176,2.0175,2.0468,2.0185,2.0136,2.0371,2.0058,1.9815,1.9669,1.9423,1.9005,1.2731,1.3182,1.3376,1.2587,1.2268,1.1979,1.1311,1.0599,0.9828,0.895,0.8434,0.8166,0.8227,0.8299,0.8803,1.0218,1.0627,1.1964,1.5372,1.6233,1.7388,1.9725,2.0414,2.0758,2.0912,2.0816,2.0846,2.1189,2.0904,2.0707,2.0692,2.0253,1.9878,1.9569,1.9721,1.9648,1.9305,1.9305,1.9305,1.9305,1.9305,1.9305,1.9285,1.9116,1.886,1.8518,1.8189,1.795,1.7762,1.7441,1.7507,1.7789,1.7441,1.7514,1.7782,1.7434,1.7412,1.7548,1.7368,1.7302,1.7302,1.7302,1.7302,1.7331,1.7492,1.776,1.8311,1.9737,2.0689,2.1555,2.2785,2.3624,2.4199,2.4416,2.464,2.4783,2.4766,2.493,2.4891,2.4237,2.4111,2.3895,2.3219,2.2771,2.2431,2.2246,2.1835,2.1416,2.0967,2.0908,2.083,2.0615,2.0605,2.0605,2.0605,2.0605,2.0498,2.0254,2.0254,2.0156,1.9931,2.0146,2.0165,1.993,1.9912,1.9912,1.9911,1.9697,1.9463,1.9221,1.9277,1.8936,1.2664,1.3116,1.3294,1.2415,1.2006,1.154,1.0532,0.9747,0.9002,0.8169,0.7906,0.7843,0.7888,0.7946,0.8451,0.9873,1.0089,1.1376,1.5084,1.5823,1.6943,1.9502,2.0267,2.0619,2.0685,2.094,2.1116,2.1189,2.1065,2.0875,2.0605,2.0415,2.0114,1.9714,1.9765,1.9648,1.9305,1.9305,1.9305,1.9305,1.9305,1.9305,1.929,1.9028,1.8692,1.8284,1.8016,1.7826,1.7687,1.7485,1.7723,1.8152,1.7682,1.7796,1.8138,1.7594,1.7572,1.7755,1.7499,1.7412,1.7412,1.7412,1.7361,1.7305,1.739,1.7646,1.8303,2.0155,2.0852,2.1483,2.3245,2.4112,2.4601,2.4996,2.541,2.5608,2.5295,2.5476,2.5433,2.4567,2.4402,2.4118,2.3248,2.284,2.2606,2.2509,2.2236,2.1865,2.1405,2.1259,2.1084,2.0762,2.0654,2.0605,2.0605,2.0605,2.0439,2.0078,2.0293,2.0185,1.9599,2.0058,2.0038,1.9443,1.9649,1.9619,1.9296,1.9296,1.9111,1.8762,1.9033,1.878,1.1918,1.2257,1.2481,1.2265,1.1513,1.0733,1.0382,0.9139,0.805,0.8005,0.761,0.7326,0.7517,0.7411,0.7776,0.9249,0.9775,1.1261,1.4827,1.6086,1.7411,1.9555,2.0056,2.0371,2.0663,2.0722,2.0875,2.1174,2.0634,2.0283,2.0254,2.0502,2.0246,1.9371,1.9635,1.9648,1.9305,1.9305,1.9305,1.9305,1.9305,1.9305,1.9305,1.9268,1.8904,1.8299,1.8269,1.7906,0.0,1.7638,1.7796,1.787,1.8103,1.8052,1.784,1.7782,1.7762,1.7796,1.7755,1.7748,1.7748,1.7748,1.7551,1.7361,1.766,1.8773,1.9929,1.9918,2.0738,2.1608,2.1513,2.2021,2.2998,2.4697,2.541,2.5686,2.5647,2.5676,2.5433,2.4567,2.4402,2.4118,2.3248,2.3073,2.2917,2.2547,2.247,2.2305,2.1885,2.1454,2.1191,2.1152,2.082,2.0605,2.0605,2.0605,2.0576,2.0537,2.0175,2.0117,2.0468,1.9803,1.955,1.9844,1.9521,1.9335,1.9296,1.9296,1.9277,1.9228,1.884,1.8617,1.1666,1.2201,1.2376,1.1744,1.0864,1.001,0.9462,0.8372,0.7454,0.7363,0.7169,0.7048,0.7125,0.7012,0.7316,0.8596,0.9137,1.0436,1.3436,1.4462,1.5812,1.8302,1.9052,1.9632,2.0334,2.0758,2.1057,2.1189,2.0772,2.0415,2.0204,1.9983,1.9775,1.9619,1.9532,1.943,1.9305,1.9305,1.9305,1.9305,1.9305,1.9305,1.929,1.8882,1.8547,1.8284,1.7877,1.766,0.0,1.7741,1.8038,1.8379,1.8096,1.8291,1.8633,1.8023,1.8064,1.8372,1.8162,1.8096,1.8072,1.787,1.7716,1.7587,1.7521,1.8084,1.8914,1.9645,2.0373,2.108,2.18,2.2672,2.3666,2.4826,2.5229,2.5332,2.5332,2.5115,2.481,2.4471,2.4197,2.3836,2.3209,2.3091,2.3053,2.2887,2.2858,2.2723,2.2304,2.2099,2.1894,2.165,2.1016,2.0605,2.0605,2.0605,2.0605,2.0605,2.042,2.0283,2.0185,1.9853,1.9493,1.9114,1.8966,1.8761,1.8525,1.8525,1.8525,1.8516,1.8331,1.8244,1.0895,1.16,1.1916,1.1264,1.0318,0.937,0.8746,0.7636,0.678,0.6955,0.6863,0.6782,0.6883,0.7017,0.7425,0.8368,0.9085,1.0356,1.2744,1.3682,1.4912,1.7065,1.8023,1.8846,1.9729,2.057,2.105,2.105,2.0676,2.0326,2.0092,1.9585,1.9408,1.9642,1.9327,1.9202,1.9305,1.9305,1.9305,1.9305,1.9305,1.9305,1.9283,1.8816,1.8482,1.8284,1.7906,1.7774,0.0,1.8008,1.8372,1.8765,1.8386,1.8626,1.9078,1.8357,1.8394,1.875,1.8416,1.8299,1.8262,1.8023,1.7877,1.776,1.7521,1.7816,1.8431,1.9319,1.9814,2.035,2.1561,2.2748,2.383,2.4618,2.5051,2.5236,2.5133,2.4836,2.4531,2.4266,2.3994,2.3652,2.318,2.3091,2.3091,2.3091,2.3091,2.2995,2.2713,2.247,2.2217,2.1934,2.1124,2.0654,2.0772,2.0674,2.0605,2.0605,2.0605,2.0449,2.0117,1.9971,1.9561,1.8821,1.8666,1.8402,1.7999,1.7999,1.7999,1.7999,1.7999,1.7999,0.935,1.0106,1.0831,1.0885,0.9905,0.8821,0.8482,0.696,0.5915,0.6973,0.6774,0.6507,0.6839,0.7553,0.8243,0.8718,0.9918,1.1418,1.3244,1.441,1.5369,1.6131,1.7152,1.8093,1.8845,2.0,2.0714,2.0714,2.0149,0.0,1.9809,1.9481,1.9305,1.9305,1.8977,1.8963,1.9298,1.9305,1.9305,1.9305,1.9305,1.9305,1.9305,1.929,1.8926,1.8321,1.8635,1.8408,0.0,1.8523,1.8794,1.8831,1.9166,1.9093,1.8801,1.8794,1.8782,1.875,1.8416,1.8299,1.8299,1.8299,1.8067,1.7804,1.7796,1.8496,1.922,1.8899,1.9041,1.9481,2.023,2.1462,2.2785,2.3856,2.4925,2.5581,2.519,2.5094,2.4838,2.3966,2.3799,2.3652,2.318,2.3091,2.3091,2.3091,2.3091,2.3091,2.3091,2.2402,2.1905,2.1895,2.1124,2.0762,2.1161,2.083,2.0605,2.0605,2.0605,2.0605,2.0586,2.0146,1.9707,1.9296,1.884,1.8402,1.7999,1.7999,1.7999,1.7999,1.7999,1.7999,0.8522,0.8969,0.9226,0.9201,0.846,0.7618,0.7138,0.6292,0.5907,0.6977,0.6704,0.6477,0.7182,0.7595,0.7954,0.8329,0.9982,1.1536,1.2476,1.4052,1.5555,1.6798,1.8629,1.9957,2.0427,2.0818,2.1043,2.1043,2.0648,2.0325,2.0085,1.9585,1.9305,1.9305,1.9202,1.9195,1.9305,1.9305,1.9175,1.8963,1.9195,1.9188,1.8955,1.8955,1.8845,1.8628,1.8511,1.8343,1.8182,1.8626,1.8801,1.8816,1.8919,1.9028,1.9093,1.8633,1.875,1.9058,1.8509,1.8591,1.8904,1.8445,1.8379,1.8482,1.8482,1.8718,1.8975,1.9116,1.9224,1.9689,2.1392,2.2172,2.2886,2.4423,2.5037,2.5268,2.5121,2.4857,2.4541,2.4256,2.3984,2.3652,2.318,2.3091,2.2883,2.2236,2.2137,2.2137,2.2137,2.1923,2.1683,2.1446,2.1457,2.1299,2.083,2.0664,2.0605,2.0605,2.0605,2.0605,2.0605,2.0146,1.9707,1.9315,1.884,1.8402,1.7999,1.7999,1.7999,1.7999,1.7999,1.7999,0.7411,0.7829,0.7997,0.7956,0.7416,0.6797,0.6412,0.5893,0.5828,0.703,0.6641,0.6414,0.749,0.7823,0.8087,0.8574,1.0183,1.1641,1.2428,1.3948,1.5609,1.7289,1.9101,2.0325,2.0647,2.0881,2.1013,2.1013,2.0692,2.0385,2.0077,1.9695,1.943,1.9305,1.9188,1.9173,1.9305,1.9168,1.9065,1.8992,1.9065,1.8999,1.8801,1.8801,1.8736,1.8618,1.8518,1.8482,0.0,1.8853,1.8985,1.8985,1.8985,1.9049,1.9085,1.8787,1.8787,1.8882,1.8584,1.8684,1.8875,1.8577,1.8633,1.8823,1.8948,1.8985,1.9028,1.9246,1.9305,1.9602,2.0949,2.1887,2.277,2.3858,2.4741,2.5236,2.4904,2.4609,2.4363,2.4197,2.3546,2.2952,2.2825,2.2362,2.1817,2.1228,2.113,2.113,2.113,2.0993,2.0826,2.0619,2.0604,2.0399,1.9849,2.0292,2.0605,2.0605,2.0605,2.0605,2.0605,2.0322,1.9961,1.9531,1.9092,1.8654,1.8225,1.8069,1.8077,1.8216,1.8069,1.7999,0.0,0.6683,0.7063,0.7063,0.6687,0.629,0.6167,0.5735,0.0,0.7157,0.6653,0.6409,0.7893,0.8262,0.86,0.941,1.0601,1.1833,1.2984,1.4252,1.5746,1.7658,1.883,1.9571,1.9783,2.0347,2.07,2.0729,2.0429,2.0114,1.984,1.9817,1.9655,1.9312,1.8999,1.897,1.9268,1.8968,1.8933,1.9195,1.8897,1.8765,1.8772,1.8787,1.8635,0.0,1.8706,1.8838,1.886,1.9173,1.9305,1.9298,1.9263,1.9072,1.8831,1.9116,1.8853,1.8379,1.8657,1.8584,1.8423,1.8736,1.8838,1.8889,1.9188,1.9268,1.9276,1.929,1.9305,1.9311,1.9389,2.0861,2.2408,2.2572,2.4063,2.5264,2.4631,2.4363,2.4158,2.3803,2.2627,2.1777,2.2099,2.1067,2.0175,2.0107,2.0096,2.0096,2.0096,1.9765,1.953,1.9508,1.8942,1.8528,1.8415,1.9632,2.0421,2.0421,2.0421,2.044,2.0508,2.0508,2.0323,1.9903,1.9502,1.9092,1.8646,1.8274,1.8264,1.8588,1.8254,1.8069,0.5509,0.0,0.575,0.575,0.5653,0.5549,0.0,0.5754,0.6341,0.76,0.7141,0.7193,0.9425,0.9248,0.9222,1.0631,1.1884,1.2919,1.3604,1.5895,1.7751,1.8476,1.965,2.0249,1.984,2.0347,2.0816,2.1065,2.0765,2.0437,2.0115,1.9907,1.9655,1.9312,1.9212,1.91,1.8919,1.8838,1.8577,1.8147,1.8335,1.8416,1.8423,1.8672,1.8897,1.9065,1.9159,1.9175,1.9195,1.9268,1.9305,1.9263,1.9027,1.8867,1.878,1.8591,1.8604,1.8662,1.8474,1.8706,1.9072,1.9166,1.9175,1.9159,1.897,1.8919,1.897,1.9232,1.9305,1.9493,2.0303,2.0704,2.1375,2.3263,2.3285,2.3326,2.5032,2.4112,2.2986,2.3165,2.2268,2.1313,2.0785,2.0416,1.996,1.9239,1.9132,1.9132,1.9132,1.9048,1.8886,1.8634,1.905,1.8843,1.7608,1.8181,1.8608,1.8608,1.8608,1.8906,1.9578,1.9608,1.9694,1.9903,1.9502,1.9256,1.914,1.9033,1.8858,1.8607,1.8868,1.88,0.5297,0.5297,0.5324,0.5419,0.5371,0.5328,0.5419,0.5837,0.6498,0.7555,0.7469,0.7804,0.9763,0.9812,0.9956,1.123,1.232,1.3402,1.4525,1.6404,1.7938,1.8706,1.9542,2.0098,2.0194,2.0502,2.078,2.0962,2.0795,2.0502,2.004,1.9884,1.9655,1.9312,1.9305,1.9144,1.8801,1.8655,1.8386,1.8023,1.8052,1.8152,1.8306,1.8482,1.8745,1.9065,1.9065,1.9166,1.929,1.9124,1.9065,1.9049,1.8706,1.8562,1.8575,1.854,1.8553,1.8596,1.8721,1.9005,1.9305,1.9305,1.9202,1.9078,1.9049,1.8919,1.8838,1.9014,1.9065,1.9236,1.9983,2.0276,2.0778,2.2285,2.2304,2.2359,2.3663,2.3036,2.2276,2.2463,2.1381,2.0364,2.0108,1.9401,1.8707,1.8195,1.8102,1.8102,1.8102,1.8102,1.8045,1.7861,1.8023,1.7783,1.6917,1.6821,1.7145,1.7947,1.7997,1.8208,1.8677,1.8697,1.8726,1.8745,1.8533,1.8611,1.8976,1.8795,1.8874,1.9201,1.9268,1.916,0.5297,0.54,0.5512,0.5543,0.5552,0.5585,0.572,0.619,0.6818,0.7609,0.7898,0.8442,0.9898,1.0308,1.0771,1.1771,1.2712,1.3928,1.5688,1.6657,1.7573,1.8604,1.9146,1.9689,2.0348,2.0532,2.0619,2.0619,2.0589,2.034,1.9831,1.9751,1.9583,1.9312,1.9305,1.9109,1.8736,1.8438,1.8264,1.8225,1.7935,1.8001,1.8379,1.8379,1.8525,1.8801,0.0,0.0,1.921,1.897,1.8875,1.8845,1.8503,1.8379,1.8408,1.8699,1.8613,1.8467,1.9093,1.9268,1.9226,1.9283,1.9072,1.8853,1.9144,1.9034,1.8801,1.8801,1.8838,1.8941,1.9232,1.9732,2.0285,2.0772,2.1211,2.16,2.1918,2.1725,2.1544,2.1658,2.0297,1.924,1.9528,1.8314,1.7302,1.7302,1.7302,1.7302,1.7302,1.7302,1.7302,1.7302,1.6843,1.6499,1.6408,1.5877,1.6137,1.7521,1.7594,1.7654,1.7806,1.7927,1.7842,1.7504,1.7496,1.7828,1.8509,1.8166,1.8516,1.9516,1.9238,1.9065,0.5297,0.5838,0.6231,0.5525,0.6004,0.6619,0.6477,0.7456,0.8514,0.8939,0.8953,0.9501,1.1472,1.1416,1.1587,1.3205,1.4433,1.572,1.7251,1.8067,1.8472,1.8386,1.9363,1.9807,1.9147,1.9814,2.0283,2.0283,2.0075,1.9891,1.9809,1.9525,1.9356,1.9305,1.9305,1.8999,1.8379,1.8328,1.8167,1.7877,1.7814,1.8118,1.8716,1.8716,1.875,1.8816,0.0,1.9087,1.8897,1.9137,1.9212,1.9195,1.8853,1.8716,1.8736,1.878,1.8772,1.878,1.9173,1.9109,1.8926,1.921,1.9072,1.8809,1.886,1.8845,1.8801,1.8801,1.8999,1.9239,1.929,1.9171,1.9363,2.0601,2.0086,1.9865,2.1963,2.0976,1.988,2.0516,1.9452,1.8385,1.816,1.7669,1.7302,1.7302,1.7302,1.7302,1.7302,1.7302,1.7302,1.7302,1.7214,1.696,1.644,1.6312,1.6123,1.5827,1.58,1.6126,1.6872,1.7614,1.7971,1.7912,1.7912,1.7972,1.8092,1.8031,1.7926,1.779,1.8071,1.8028,0.5297,0.5746,0.6214,0.617,0.6889,0.7583,0.7487,0.8298,0.9163,0.9499,0.9898,1.0608,1.1999,1.242,1.3132,1.4918,1.5702,1.6418,1.7384,1.7796,1.8072,1.8277,1.8986,1.9418,1.9349,2.0033,2.0327,2.0011,2.0003,1.9864,1.9547,1.9386,1.9224,1.9049,1.9028,1.8714,1.8038,1.8023,1.795,1.7804,1.7804,1.8152,1.8787,1.8423,1.846,1.8801,0.0,1.8767,1.8787,1.8582,1.8604,1.8714,1.8184,1.8096,1.8306,1.867,1.8801,1.8823,1.8983,1.8809,1.856,1.8714,1.8525,1.8328,1.8699,1.8664,1.8611,1.8963,1.9043,1.9065,1.9241,1.9043,1.9009,1.9835,1.94,1.9162,2.0481,2.0009,1.9396,1.9739,1.9149,1.846,1.8138,1.7796,1.7507,1.7331,1.7302,1.7302,1.7302,1.7302,1.7302,1.7302,1.7172,1.6898,1.6444,1.6224,1.5917,1.5428,1.5399,1.5579,1.5982,1.6384,1.6602,1.6602,1.6602,1.6837,1.7291,1.7291,1.7439,1.7729,1.791,1.7902,0.525,0.5661,0.6233,0.684,0.7661,0.8402,0.8717,0.9382,1.0046,1.0457,1.1022,1.1654,1.2385,1.3321,1.4508,1.6144,1.6629,1.7031,1.7685,1.7774,1.8016,1.8666,1.8979,1.9323,1.9834,2.0304,2.0377,1.9833,1.9916,1.9798,1.9314,1.9232,1.9078,1.8809,1.8716,1.8401,1.7811,1.7877,1.7877,1.7804,1.7804,1.8152,1.8787,1.8269,1.8313,1.8787,1.8525,1.8523,1.8635,1.8138,1.8072,1.8255,1.7726,1.7682,1.7979,1.8489,1.8736,1.8787,1.8714,1.8511,1.8299,1.8299,1.8067,1.7913,1.8503,1.8555,1.8518,1.9049,1.905,1.8983,1.9226,1.9115,1.8977,1.9239,1.9094,1.8985,1.9233,1.9305,1.9305,1.9305,1.9028,1.8699,1.8357,1.8094,1.7782,1.7368,1.7368,1.7419,1.7419,1.7353,1.7331,1.7412,1.7157,1.6858,1.6539,1.6144,1.579,1.5523,1.5436,1.5399,1.5399,1.5399,1.5399,1.5399,1.5399,1.5728,1.6399,1.6399,1.6737,1.7391,1.7391,1.7391,0.5113,0.5864,0.6748,0.7168,0.7975,0.8992,1.0241,1.1189,1.1992,1.2647,1.2564,1.2551,1.3037,1.4053,1.5163,1.6228,1.7131,1.8047,1.9014,1.9159,1.9374,1.9991,2.008,2.0122,2.0166,2.0204,2.0114,1.9824,1.9532,1.9349,1.9305,1.9012,1.8823,1.8801,1.8496,1.8155,1.7792,1.8116,1.8116,1.7804,1.7804,1.8152,1.8801,1.875,1.8745,1.8801,1.8767,1.8591,1.8335,1.8284,1.8284,1.8299,1.8247,1.8247,1.8277,1.8321,1.8525,1.8758,1.8445,1.8321,1.8299,1.8299,1.8067,1.787,1.8233,1.8545,1.8767,1.8823,1.9036,1.9276,1.929,1.9283,1.9276,1.9285,1.9283,1.9276,1.9285,1.9305,1.9305,1.9305,1.9028,1.8699,1.8357,1.8284,1.8045,1.7397,1.7565,1.7755,1.7755,1.7492,1.7419,1.7731,1.7475,1.7153,1.6895,1.6276,1.5885,1.5873,1.5578,1.5399,1.5399,1.5399,1.5399,1.5399,1.5399,1.5423,1.5486,1.5486,1.5527,1.559,1.559,1.559,0.51,0.5944,0.7024,0.7839,0.872,0.9694,1.0873,1.1751,1.2503,1.317,1.3383,1.36,1.4161,1.4957,1.5786,1.6583,1.7498,1.8321,1.8904,1.9173,1.9453,1.99,1.9951,2.0018,2.0175,2.0197,2.0092,1.9824,1.9488,1.921,1.8999,1.8677,1.8394,1.8177,1.8064,1.7833,1.7492,1.7609,1.7609,1.7492,1.7709,1.8038,1.8474,1.8052,1.8089,1.8467,1.8045,1.803,1.8269,1.7855,1.7804,1.7965,1.776,1.7811,1.7986,1.7986,1.8067,1.8167,1.803,1.7855,1.7687,1.7687,1.7587,1.7551,1.7891,1.8074,1.8269,1.8672,1.8889,1.9049,1.9246,1.9305,1.9305,1.9305,1.9305,1.9246,1.9028,1.8985,1.8985,1.8985,1.8721,1.8445,1.8321,1.8138,1.7833,1.7375,1.7412,1.7485,1.7485,1.7382,1.7353,1.7477,1.7223,1.7005,1.691,1.6477,1.621,1.621,1.5705,1.5399,1.5399,1.5399,1.5399,1.5399,1.5399,1.5399,1.5399,1.5399,1.5399,1.5399,1.5399,1.5399,0.5356,0.6237,0.7374,0.83,0.9188,1.0184,1.1527,1.2295,1.3008,1.4053,1.4275,1.4411,1.482,1.5363,1.5961,1.6635,1.7528,1.8299,1.8743,1.8904,1.9195,1.9723,1.9605,1.9636,2.0047,1.9887,1.9675,1.9496,1.9168,1.8882,1.865,1.8328,1.8038,1.7811,1.7701,1.758,1.7456,1.7456,1.7456,1.7456,1.758,1.7818,1.813,1.7672,1.7774,1.8269,1.7697,1.7723,1.8096,1.7529,1.7434,1.7616,1.7397,1.7441,1.7638,1.7638,1.7716,1.7777,1.7687,1.7558,1.7441,1.7327,1.7302,1.7346,1.7565,1.7723,1.7921,1.8482,1.8721,1.8882,1.9217,1.9305,1.9305,1.9305,1.9305,1.921,1.8867,1.8801,1.8772,1.8657,1.846,1.8299,1.8299,1.8116,1.7836,1.7507,1.7456,1.7456,1.7456,1.7368,1.7302,1.7302,1.7135,1.7027,1.7027,1.6745,1.6554,1.6554,1.6034,1.5669,1.5553,1.5563,1.5512,1.5399,1.5399,1.5399,1.5399,1.5399,1.5399,1.5399,1.5399,1.5399,0.5901,0.6786,0.7855,0.8463,0.9269,1.0417,1.2364,1.3014,1.371,1.5524,1.537,1.4907,1.4907,1.5195,1.5632,1.6287,1.7198,1.803,1.8699,1.8503,1.8677,1.9664,1.9202,1.905,1.9736,1.9195,1.8801,1.8801,1.8482,1.8299,1.8299,1.7972,1.7796,1.7796,1.747,1.7456,1.7789,1.7796,1.7796,1.7789,1.7448,1.747,1.7796,1.7796,1.7972,1.8277,1.7943,1.7796,1.7762,1.7441,1.7302,1.7302,1.7302,1.7302,1.7302,1.7302,1.7507,1.7753,1.7419,1.7514,1.7733,1.7412,1.7302,1.7302,1.7302,1.7529,1.787,1.8203,1.8545,1.8867,1.921,1.9298,1.9298,1.9298,1.9298,1.921,1.8867,1.8801,1.8699,1.8364,1.8299,1.8299,1.8299,1.8299,1.8177,1.7855,1.7796,1.7796,1.7804,1.7507,1.7298,1.7298,1.7302,1.7302,1.7302,1.7063,1.6903,1.6903,1.6591,1.6265,1.5925,1.5899,1.5746,1.5424,1.5407,1.5399,1.5399,1.5399,1.5399,1.5399,1.5399,1.5399,0.6074,0.7197,0.8534,0.9375,1.0309,1.1492,1.3237,1.3412,1.3652,1.5222,1.5585,1.5596,1.5596,1.6067,1.644,1.6408,1.7198,1.787,1.8072,1.8206,1.8496,1.9028,1.8714,1.8714,1.9386,1.8845,1.8553,1.8787,1.8277,1.795,1.795,1.7454,1.7177,1.7177,1.707,1.7063,1.7177,1.7177,1.7177,1.7158,1.6836,1.6938,1.7441,1.7249,1.7454,1.7928,1.7594,1.758,1.7762,1.7441,1.7302,1.7302,1.7302,1.7302,1.7302,1.7302,1.7368,1.7434,1.7327,1.7368,1.7434,1.7327,1.7302,1.7302,1.7302,1.7375,1.7514,1.7855,1.8184,1.8538,1.886,1.8948,1.8948,1.8948,1.9137,1.9131,1.8562,1.8445,1.8423,1.8321,1.8116,1.795,1.795,1.795,1.7913,1.7806,1.7594,1.7529,1.7774,1.7704,1.7646,1.7646,1.7441,1.7302,1.7302,1.7233,1.7175,1.7175,1.7087,1.6799,1.6268,1.6257,1.6195,1.6111,1.5873,1.5746,1.5746,1.5509,1.5399,1.5399,1.5399,1.5399,0.6844,0.7977,0.928,1.0304,1.1227,1.2283,1.3749,1.4183,1.4528,1.5418,1.5658,1.5775,1.6045,1.632,1.6521,1.6591,1.7157,1.7594,1.7594,1.7782,1.8023,1.8364,1.8116,1.8103,1.8655,1.8343,1.8138,1.8203,1.8086,1.7845,1.7457,1.7315,1.7097,1.6708,1.6829,1.6903,1.6903,1.6903,1.6903,1.6895,1.6554,1.6594,1.6945,1.6909,1.7158,1.7587,1.739,1.7407,1.7584,1.7274,1.7135,1.7128,1.6985,1.7026,1.7121,1.6996,1.7033,1.7135,1.7135,1.7135,1.7165,1.7266,1.7302,1.7302,1.7302,1.7302,1.7375,1.7709,1.7943,1.8211,1.8684,1.8801,1.8801,1.8801,1.8948,1.8948,1.8416,1.8401,1.846,1.8328,1.8145,1.8038,1.8169,1.8094,1.8045,1.8182,1.7913,1.7774,1.7972,1.7884,1.7855,1.7979,1.7709,1.7499,1.7499,1.7499,1.7441,1.7309,1.7302,1.7138,1.6773,1.6664,1.647,1.6213,1.5998,1.5826,1.5702,1.5494,1.5399,1.5399,1.5399,1.5399,0.7986,0.8957,1.0038,1.1214,1.2104,1.2999,1.4069,1.511,1.5848,1.5848,1.5658,1.5683,1.6298,1.6151,1.6166,1.68,1.7099,1.7273,1.7302,1.7302,1.7412,1.7723,1.7485,1.7419,1.7719,1.7748,1.7624,1.732,1.784,1.7798,1.6947,1.7366,1.7238,1.6374,1.6649,1.6815,1.6815,1.6815,1.6815,1.6796,1.6474,1.6323,1.6371,1.6701,1.6993,1.7258,1.7229,1.7214,1.7204,1.6953,1.6859,1.6818,1.6517,1.6583,1.6822,1.651,1.6591,1.6859,1.6859,1.6873,1.6935,1.7175,1.728,1.7302,1.7302,1.7302,1.7368,1.7672,1.7804,1.7986,1.8604,1.878,1.8794,1.8765,1.878,1.8714,1.8372,1.8545,1.8664,1.8401,1.835,1.843,1.8714,1.8525,1.8438,1.8714,1.8553,1.8379,1.835,1.8052,1.7957,1.8269,1.8001,1.7789,1.776,1.7818,1.7697,1.7368,1.7353,1.7353,1.7353,1.7081,1.6653,1.6038,1.5976,1.58,1.549,1.5468,1.5428,1.5399,1.5428,1.5428,0.8632,0.9513,1.0566,1.1933,1.3333,1.4519,1.5034,1.5335,1.5512,1.5512,1.587,1.6228,1.6367,1.6338,1.6437,1.6837,1.695,1.7059,1.7273,1.7302,1.7331,1.7404,1.7334,1.7331,1.7404,1.7412,1.7382,1.7309,1.7242,1.7111,1.691,1.6513,1.6217,1.6005,1.6082,1.6118,1.6118,1.6118,1.6118,1.6111,1.5778,1.5746,1.6023,1.6353,1.6686,1.6968,1.6712,1.6583,1.6594,1.6532,1.651,1.6495,1.643,1.6444,1.6495,1.643,1.6444,1.651,1.651,1.6683,1.691,1.6972,1.7128,1.7302,1.7302,1.7302,1.7324,1.739,1.7789,1.8233,1.8372,1.8599,1.8736,1.8467,1.8618,1.8714,1.8372,1.8357,1.846,1.8662,1.8699,1.8628,1.8438,1.8575,1.8633,1.8438,1.8782,1.8992,1.8728,1.8401,1.8225,1.8291,1.8001,1.7682,1.7434,1.7891,1.8045,1.7704,1.7682,1.7682,1.7682,1.7375,1.7153,1.7003,1.6528,1.6257,1.6173,1.5917,1.5658,1.5407,1.5673,1.5651,0.8991,0.9785,1.0855,1.2747,1.4073,1.4944,1.5119,1.5155,1.5155,1.5155,1.5574,1.5965,1.6129,1.6158,1.6268,1.6605,1.68,1.695,1.7088,1.7219,1.7302,1.7302,1.7302,1.7244,1.7113,1.7226,1.7255,1.7125,1.7249,1.7136,1.6679,1.6766,1.6531,1.5914,1.6206,1.6221,1.5899,1.5903,1.5819,1.5658,1.548,1.5578,1.5907,1.625,1.6495,1.6642,1.6474,1.64,1.6393,1.6235,1.6158,1.614,1.5979,1.6027,1.6144,1.5979,1.6016,1.618,1.6338,1.651,1.673,1.7188,1.7318,1.7331,1.7492,1.7434,1.7302,1.7302,1.7551,1.7862,1.8016,1.8313,1.8487,1.8133,1.8321,1.8467,1.8125,1.8313,1.8584,1.8772,1.8926,1.8977,1.8809,1.8926,1.8977,1.8809,1.8941,1.9005,1.8823,1.8364,1.8118,1.8284,1.8001,1.7731,1.7551,1.8008,1.8167,1.7826,1.7804,1.7804,1.7804,1.7477,1.7248,1.7118,1.6792,1.6554,1.64,1.6217,1.6045,1.5877,1.5895,1.5804,0.9302,1.0128,1.1261,1.3313,1.4331,1.483,1.483,1.4874,1.49,1.49,1.5173,1.548,1.576,1.5812,1.5939,1.6342,1.6627,1.6837,1.6895,1.7088,1.7211,1.7141,1.7141,1.7055,1.6844,1.7011,1.7055,1.6837,1.7279,1.7216,1.6444,1.714,1.7084,1.6012,1.6521,1.6554,1.599,1.5932,1.5782,1.557,1.5509,1.5636,1.591,1.6129,1.6257,1.6309,1.625,1.6228,1.6213,1.5935,1.5812,1.5782,1.5512,1.5578,1.5775,1.5502,1.5578,1.5848,1.6129,1.6301,1.6539,1.7369,1.7489,1.7368,1.7709,1.7565,1.7302,1.7302,1.7346,1.7448,1.7731,1.8045,1.8218,1.7877,1.8008,1.8145,1.7862,1.8284,1.8736,1.8787,1.9065,1.9305,1.9305,1.9305,1.9283,1.9224,1.8977,1.8801,1.8801,1.8269,1.8016,1.835,1.8145,1.795,1.7891,1.8247,1.8328,1.7994,1.7921,1.7891,1.7891,1.7507,1.7197,1.6968,1.6913,1.6752,1.6488,1.6488,1.6459,1.6382,1.6122,1.5954,0.9863,1.1091,1.2375,1.2985,1.3852,1.455,1.455,1.4733,1.49,1.49,1.5173,1.5407,1.5468,1.5475,1.5676,1.6294,1.6437,1.6561,1.6859,1.6928,1.6847,1.655,1.6521,1.6517,1.6474,1.6492,1.6517,1.6474,1.6536,1.6528,1.6408,1.6514,1.6506,1.6338,1.6422,1.6422,1.6331,1.6045,1.6012,1.6265,1.5968,1.5866,1.5885,1.5654,1.5687,1.5954,1.5658,1.5534,1.5534,1.549,1.5475,1.5458,1.5424,1.5428,1.5458,1.5424,1.5428,1.5465,1.5519,1.5913,1.6474,1.6884,1.7154,1.7368,1.7709,1.7565,1.7302,1.7302,1.7507,1.7733,1.7789,1.8045,1.8218,1.7877,1.7833,1.7855,1.7811,1.8096,1.8452,1.8743,1.9065,1.9305,1.9305,1.9305,1.9202,1.8911,1.8831,1.8801,1.8801,1.8467,1.8364,1.8699,1.8699,1.8547,1.8262,1.8809,1.9021,1.8692,1.8394,1.8228,1.8228,1.7631,1.7288,1.7255,1.7019,1.6881,1.6837,1.6837,1.6679,1.64,1.6345,1.618,1.0201,1.1026,1.1919,1.2781,1.3331,1.3757,1.4133,1.4313,1.4448,1.464,1.4913,1.518,1.5363,1.5399,1.5556,1.6038,1.6279,1.6517,1.6859,1.6903,1.6851,1.6705,1.651,1.6323,1.6144,1.6122,1.6195,1.6393,1.64,1.6481,1.6664,1.6817,1.6839,1.6679,1.6683,1.6591,1.64,1.6246,1.6158,1.6122,1.5968,1.5797,1.5622,1.5665,1.5658,1.5614,1.5458,1.5399,1.5399,1.5399,1.5399,1.5399,1.5399,1.5399,1.5399,1.5399,1.5399,1.5443,1.5833,1.6144,1.6517,1.7195,1.7362,1.7368,1.7709,1.7565,1.7302,1.7302,1.7404,1.7521,1.7521,1.7774,1.7947,1.7594,1.766,1.7753,1.7558,1.7777,1.8169,1.8706,1.9065,1.9305,1.9305,1.9305,1.9254,1.9094,1.8919,1.8801,1.8801,1.8503,1.8357,1.8503,1.8518,1.846,1.8313,1.8743,1.8955,1.8809,1.8494,1.8299,1.8299,1.7665,1.7302,1.7302,1.7175,1.7121,1.7121,1.7121,1.7047,1.6901,1.6748,1.6605,1.0179,1.0645,1.1195,1.2153,1.2569,1.2905,1.3486,1.375,1.3971,1.4294,1.4652,1.4973,1.5231,1.5265,1.5407,1.5826,1.5965,1.6169,1.6591,1.6565,1.6514,1.6514,1.6301,1.6049,1.5808,1.5848,1.5972,1.6129,1.6374,1.6561,1.6642,1.7058,1.7131,1.6781,1.6859,1.6741,1.6408,1.64,1.6224,1.5903,1.5994,1.5895,1.5661,1.591,1.5844,1.5516,1.5446,1.5399,1.5399,1.5399,1.5399,1.5399,1.5399,1.5399,1.5399,1.5399,1.5399,1.5475,1.5965,1.6257,1.6532,1.7323,1.7445,1.7368,1.7709,1.7565,1.7302,1.7302,1.7302,1.7302,1.7302,1.7485,1.7602,1.7361,1.7492,1.7624,1.7463,1.7624,1.7972,1.8555,1.8941,1.9168,1.9168,1.9246,1.9276,1.9195,1.8955,1.8801,1.8801,1.8577,1.8423,1.8423,1.8423,1.8423,1.8423,1.8662,1.8838,1.8919,1.8525,1.8299,1.8299,1.7665,1.7302,1.7302,1.7302,1.7302,1.7302,1.7302,1.7302,1.7283,1.7027,1.6903,0.9637,1.0126,1.0645,1.0711,1.1391,1.2142,1.2502,1.3066,1.3625,1.3964,1.4489,1.4907,1.4922,1.4929,1.5133,1.579,1.5377,1.5209,1.5866,1.5673,1.5483,1.5483,1.5458,1.5446,1.5428,1.5709,1.5786,1.5465,1.6338,1.6602,1.599,1.6813,1.7029,1.6444,1.6723,1.6741,1.6408,1.64,1.6224,1.5899,1.6217,1.636,1.6356,1.6371,1.6188,1.5866,1.5541,1.5399,1.5399,1.5399,1.5399,1.5399,1.5399,1.5399,1.5399,1.5399,1.5399,1.5399,1.5446,1.587,1.6459,1.6837,1.711,1.7368,1.7709,1.7565,1.7302,1.7302,1.7302,1.7302,1.7302,1.7305,1.7324,1.7298,1.7305,1.7412,1.7716,1.7789,1.7906,1.8262,1.8604,1.8823,1.8823,1.9093,1.9195,1.8875,1.8816,1.8801,1.8801,1.8787,1.8767,1.8767,1.8767,1.8767,1.8767,1.8794,1.8933,1.9241,1.8657,1.8299,1.8299,1.7665,1.7302,1.7302,1.7302,1.7302,1.7302,1.7302,1.7302,1.7283,1.7027,1.6903,0.9601,0.9776,1.0053,1.0492,1.085,1.1245,1.1803,1.241,1.2956,1.3287,1.3872,1.4392,1.4596,1.4781,1.5046,1.5512,1.5202,1.5053,1.5519,1.5483,1.5319,1.5097,1.5075,1.5075,1.5075,1.5195,1.5385,1.5695,1.6049,1.6254,1.6217,1.6539,1.662,1.6408,1.6316,1.6199,1.6082,1.5654,1.5483,1.5585,1.5475,1.5552,1.5774,1.5979,1.6005,1.5885,1.5775,1.56,1.5399,1.5399,1.5399,1.5399,1.5399,1.5399,1.5399,1.5399,1.5399,1.5468,1.5891,1.6199,1.6477,1.6989,1.7226,1.7324,1.7441,1.7397,1.7302,1.7302,1.7302,1.7302,1.7302,1.7302,1.7302,1.7302,1.7302,1.7327,1.7456,1.7646,1.7899,1.8228,1.8394,1.8626,1.9056,1.9036,1.9006,1.9115,1.9116,1.9116,1.9116,1.9116,1.9116,1.9116,1.9116,1.9116,1.9116,1.9116,1.9173,1.929,1.8677,1.8299,1.8299,1.7665,1.7302,1.7302,1.7302,1.7302,1.7302,1.7302,1.7302,1.7302,1.7197,1.7157,0.949,0.9534,0.9703,1.0155,1.0353,1.0579,1.1144,1.1752,1.2321,1.2743,1.3367,1.3925,1.4274,1.4479,1.4708,1.504,1.4723,1.4591,1.5033,1.5003,1.4894,1.4774,1.4777,1.4777,1.4777,1.4852,1.5049,1.5401,1.572,1.5895,1.5902,1.6213,1.6345,1.6243,1.5913,1.5731,1.5731,1.529,1.5119,1.5231,1.5119,1.5177,1.5407,1.5746,1.5961,1.6067,1.5954,1.5709,1.5399,1.5399,1.5399,1.5399,1.5399,1.5399,1.5399,1.5399,1.5399,1.5458,1.5906,1.6213,1.6474,1.6872,1.7127,1.7302,1.7302,1.7302,1.7302,1.7302,1.7302,1.7302,1.7302,1.7302,1.7302,1.7302,1.7302,1.7302,1.7302,1.7477,1.7709,1.7921,1.8064,1.8313,1.8867,1.8875,1.8911,1.9254,1.9305,1.9305,1.9305,1.9305,1.9261,1.9138,1.9124,1.9124,1.9124,1.9124,1.9124,1.9124,1.8618,1.8255,1.8145,1.7606,1.7302,1.7302,1.7302,1.7302,1.7302,1.7302,1.7302,1.7302,1.7302,1.7477,0.0,0.0,0.0,0.9601,0.9849,1.017,1.0499,1.1092,1.1737,1.2359,1.3001,1.3559,1.3926,1.3985,1.4105,1.4428,1.3948,1.3765,1.4406,1.4229,1.4146,1.4445,1.4479,1.4496,1.4496,1.4733,1.4781,1.4531,1.5365,1.56,1.4951,1.5844,1.6217,1.5903,1.5578,1.5399,1.5399,1.5392,1.5224,1.4897,1.5209,1.5363,1.5402,1.5717,1.6052,1.6345,1.6038,1.5709,1.5399,1.5399,1.5399,1.5399,1.5399,1.5399,1.5399,1.5399,1.5399,1.5399,1.5421,1.5855,1.6408,1.6422,1.6821,1.7302,1.7302,1.7302,1.7302,1.7302,1.7302,1.7302,1.7302,1.7302,1.7302,1.7302,1.7302,1.7302,1.7302,1.7302,1.7298,1.7305,1.7565,1.7899,1.8247,1.8562,1.8897,1.9226,1.929,1.9305,1.9305,1.9305,1.918,1.8853,1.8809,1.8801,1.8801,1.8794,1.8787,1.8787,1.8467,1.8145,1.7818,1.7477,1.7302,1.7302,1.7302,1.7302,1.7302,1.7302,1.7302,1.7302,1.7302,1.782,0.9215,0.0,0.0,0.0,0.0,0.0,0.9856,1.0403,1.1123,1.1966,1.2291,1.2668,1.3487,1.3643,1.376,1.4146,1.4264,1.4356,1.455,1.4704,1.4537,1.3861,1.3993,1.4133,1.4133,1.4416,1.4655,0.0,1.5246,1.5468,1.5275,1.5537,1.5629,1.5538,1.5443,1.5399,1.5399,1.5166,1.4988,1.49,1.455,1.4616,1.5039,1.5126,1.5366,1.5673,1.5826,1.5709,1.5399,1.5399,1.5399,1.5399,1.5399,1.5399,1.5399,1.5399,1.5399,1.5475,1.5961,1.6243,1.647,1.6916,1.7163,1.7302,1.7302,1.7302,1.7302,1.7302,1.7302,1.7302,1.7302,1.7302,1.7302,1.7302,1.7302,1.7302,1.7302,1.7302,1.7375,1.7609,1.7536,1.7616,1.8203,1.8379,1.8547,1.8889,1.9138,1.9305,1.9305,1.9305,1.9268,1.9173,1.8941,1.8801,1.8801,1.8577,1.8438,1.8438,1.8118,1.7899,1.7792,1.7477,1.7302,1.7302,1.7302,1.7302,1.7302,1.7302,1.7302,1.7302,1.7302,1.7454,0.0,0.0,0.0,0.9601,0.0,0.0,0.9601,1.001,1.0646,1.1559,1.1858,1.2178,1.2908,1.322,1.3534,1.4016,1.4455,1.4797,1.5034,1.4965,1.4657,1.4027,1.3855,1.3786,1.3786,1.3971,1.4204,1.4496,1.4845,1.5135,1.5395,1.5399,1.5399,1.5399,1.5399,1.5334,1.5195,1.4995,1.4844,1.4733,1.4372,1.445,1.49,1.49,1.5082,1.5407,1.5614,1.5585,1.5399,1.5399,1.5399,1.5399,1.5399,1.5399,1.5399,1.5399,1.549,1.5665,1.6063,1.6374,1.6671,1.7022,1.7211,1.7302,1.7302,1.7302,1.7302,1.7302,1.7302,1.7302,1.7302,1.7302,1.7302,1.7302,1.7302,1.7302,1.7302,1.7302,1.7361,1.7551,1.7434,1.747,1.8001,1.8089,1.8242,1.8736,1.8963,1.9131,1.9283,1.9188,1.9087,1.9087,1.8794,1.8584,1.8584,1.8408,1.8247,1.8096,1.7906,1.7745,1.7606,1.7404,1.7302,1.7302,1.7302,1.7302,1.7302,1.7302,1.7302,1.7302,1.7302,1.7524,0.0,0.0,0.0,0.0,0.9763,0.0,0.9721,0.9979,1.049,1.136,1.172,1.2003,1.2413,1.2919,1.3463,1.4047,1.4642,1.5197,1.5687,1.5122,1.4642,1.4601,1.3927,1.3464,1.3501,1.3501,1.364,1.3969,1.4308,1.4755,1.5312,1.5322,1.53,1.53,1.53,1.5161,1.4859,1.4859,1.4755,1.4543,1.4516,1.4643,1.49,1.49,1.5061,1.5348,1.5385,1.5399,1.5399,1.5399,1.5399,1.5399,1.5399,1.5399,1.5399,1.5399,1.5592,1.5859,1.5932,1.6353,1.6859,1.6921,1.711,1.7302,1.7302,1.7302,1.7302,1.7302,1.7302,1.7302,1.7302,1.7302,1.7302,1.7302,1.7302,1.7302,1.7302,1.7302,1.7302,1.7302,1.7302,1.7385,1.7682,1.7782,1.8001,1.8591,1.8721,1.8853,1.9159,1.8926,1.8738,1.8738,1.8445,1.8235,1.8235,1.8211,1.8074,1.7818,1.7774,1.7624,1.7368,1.7324,1.7302,1.7302,1.7302,1.7302,1.7302,1.7302,1.7302,1.7302,1.7302,1.7773,0.0,0.0,0.0,0.0,1.0768,0.0,1.0443,1.0716,1.1389,1.227,1.2074,1.2015,1.2877,1.3395,1.385,1.4344,1.5226,1.5918,1.6081,1.5471,1.4893,1.4632,1.3715,1.3197,1.347,1.3501,1.364,1.3969,1.4308,1.4643,1.4973,1.4794,1.4675,1.4675,1.4675,1.4645,1.4587,1.458,1.4655,1.4815,1.4599,1.4643,1.49,1.49,1.4936,1.5009,1.5282,1.5399,1.5399,1.5399,1.5399,1.5399,1.5399,1.5399,1.5399,1.5399,1.5436,1.5578,1.6125,1.6393,1.6583,1.7062,1.7263,1.7302,1.7302,1.7302,1.7302,1.7302,1.7302,1.7302,1.7302,1.7302,1.7302,1.7302,1.7302,1.7302,1.7302,1.7302,1.7302,1.7302,1.7302,1.7324,1.739,1.7616,1.7836,1.7972,1.8213,1.8423,1.8482,1.8438,1.8394,1.8394,1.8101,1.7899,1.7899,1.7646,1.758,1.7789,1.7543,1.7485,1.7689,1.7441,1.7302,1.7302,1.7302,1.7302,1.7302,1.7302,1.7302,1.7302,1.7302,1.7407,0.0,0.0,0.0,1.1172,1.1281,0.0,0.0,1.1023,1.13,1.2711,1.241,1.2184,1.3081,1.3472,1.3714,1.3871,1.4575,1.5344,1.6047,1.5689,1.5106,1.443,1.3695,1.3113,1.2785,1.2896,1.3139,1.3479,1.4119,1.4494,1.4453,1.4321,1.4333,1.4494,1.434,1.4252,1.4252,1.4081,1.4143,1.4455,1.4306,1.4411,1.4714,1.4844,1.4822,1.4735,1.5198,1.5304,1.5158,1.5158,1.5253,1.5399,1.5399,1.5399,1.5399,1.5399,1.5607,1.5953,1.6279,1.6602,1.6901,1.72,1.7302,1.7302,1.7302,1.7302,1.7302,1.7302,1.7302,1.7302,1.7302,1.7302,1.7302,1.7302,1.7302,1.7302,1.7302,1.7302,1.7302,1.7302,1.7302,1.7302,1.7302,1.7441,1.7602,1.7762,1.7943,1.8103,1.8284,1.8147,1.8045,1.8045,1.7753,1.7628,1.7789,1.765,1.7682,1.8023,1.7891,1.7877,1.8038,1.7731,1.771,1.804,1.8044,1.8276,1.8745,1.8745,1.8245,1.7314,1.7808,1.8044,1.2346,1.2616,0.0,0.0,1.1972,1.1851,0.0,0.0,0.0,1.3,1.2823,1.259,1.3316,1.3539,1.3584,1.3467,1.3896,1.4586,1.5579,1.5567,1.5183,1.4471,1.3679,1.2935,1.2262,1.2269,1.2488,1.2867,1.36,1.3961,1.3807,1.3752,1.384,1.4103,1.3852,1.3713,1.3713,1.344,1.3515,1.3896,1.3896,1.4111,1.4509,1.4726,1.4733,1.4602,1.5033,1.5136,1.4988,1.4929,1.51,1.5392,1.5326,1.5341,1.5399,1.5399,1.5742,1.6228,1.6364,1.6686,1.7054,1.7182,1.7226,1.7226,1.7226,1.7258,1.7302,1.7302,1.7302,1.7302,1.7302,1.7302,1.7302,1.7302,1.7302,1.7302,1.7302,1.7302,1.7302,1.7302,1.7302,1.7302,1.7302,1.7302,1.7397,1.766,1.7697,1.7804,1.8067,1.787,1.7697,1.7697,1.7463,1.7412,1.7687,1.7697,1.7877,1.8264,1.824,1.8262,1.8394,1.8274,1.8522,1.9191,1.9195,1.9522,2.0198,2.0198,1.9391,1.7882,1.8696,1.9075,1.3525,1.414,0.0,0.0,1.3685,1.4057,1.2441,0.0,1.2849,1.3368,0.0,1.3478,1.393,0.0,0.0,1.4008,1.4415,1.4636,1.4358,1.465,1.5028,1.539,1.3454,1.2287,1.2829,1.2167,1.1935,1.2516,1.2393,1.2535,1.3073,1.283,1.2684,1.2729,1.2692,1.267,1.267,1.2633,1.2934,1.3559,1.3559,1.3891,1.4501,1.4531,1.4655,1.4844,1.468,1.4882,1.5319,1.5017,1.51,1.537,1.5068,1.5144,1.5399,1.5399,1.5454,1.5592,1.6188,1.6254,1.6159,1.6748,1.6943,1.6943,1.6943,1.7118,1.7302,1.7302,1.7302,1.7302,1.7302,1.7302,1.7302,1.7302,1.7302,1.7302,1.7302,1.7302,1.7302,1.7302,1.7302,1.7302,1.7302,1.7302,1.7305,1.7353,1.7361,1.7375,1.7412,1.7382,1.7361,1.7361,1.7324,1.7324,1.7342,1.7361,1.7636,1.8262,1.8016,1.8118,1.8721,1.9333,1.9978,2.0653,2.0667,2.0517,2.0198,2.0198,2.0085,1.9869,1.9994,2.0039,1.4687,1.5168,0.0,0.0,0.0,0.0,1.3133,0.0,1.2741,1.3655,0.0,0.0,0.0,0.0,0.0,0.0,1.3919,1.4062,1.4088,1.3877,1.3833,1.4214,1.3521,1.2852,1.2462,1.2419,1.213,1.1453,1.2135,1.2476,1.2203,1.2044,1.2138,1.2494,1.2311,1.2295,1.2493,1.2493,1.2735,1.3205,1.3404,1.3647,1.3927,1.4118,1.427,1.4375,1.4462,1.4728,1.5093,1.4791,1.4959,1.5363,1.5024,1.5097,1.5399,1.5399,1.5654,1.5987,1.6074,1.6268,1.6528,1.6815,1.7247,1.7647,1.7647,1.7735,1.7945,1.8474,1.8633,1.8568,1.8245,1.8172,1.8021,1.7442,1.7302,1.7302,1.7302,1.7302,1.7302,1.7302,1.7302,1.7302,1.7302,1.7302,1.7302,1.7302,1.7302,1.7375,1.7565,1.7419,1.7591,1.8378,1.8295,1.8256,1.8444,1.8961,1.9233,1.9175,1.9807,2.0321,2.0635,2.0954,2.1309,2.1705,2.1711,2.1762,2.1874,2.1874,2.1874,2.1863,2.1318,2.1062,1.5735,0.0,0.0,0.0,0.0,0.0,0.0,0.0,0.0,0.0,1.3831,0.0,0.0,0.0,0.0,0.0,0.0,1.3691,1.376,1.3353,1.3227,1.3666,1.3632,1.314,1.2001,1.2332,1.2059,1.0695,1.1855,1.2243,1.1373,1.1408,1.1656,1.2101,1.2123,1.2249,1.2496,1.2504,1.2822,1.3441,1.3517,1.3746,1.411,1.4346,1.4523,1.4614,1.4767,1.4988,1.5205,1.4923,1.5038,1.5401,1.5405,1.5542,1.5728,1.5486,1.5864,1.6464,1.6315,1.6733,1.7322,1.723,1.7683,1.8279,1.8279,1.8344,1.8574,1.9383,1.9596,1.9482,1.8941,1.8995,1.8937,1.7948,1.7913,1.8091,1.8091,1.8091,1.8091,1.8091,1.8091,1.8091,1.8091,1.7882,1.7622,1.7337,1.775,1.8089,1.808,1.8087,1.8474,1.9442,1.9332,1.9275,1.9531,2.0177,2.0471,2.0248,2.1279,2.2101,2.2565,2.2577,2.273,2.3056,2.3072,2.3205,2.3453,2.3453,2.3394,2.3266,2.2459,2.2081,0.0,0.0,0.0,1.6279,0.0,0.0,0.0,0.0,1.4596,0.0,0.0,0.0,0.0,0.0,0.0,0.0,0.0,0.0,0.0,1.3248,1.3802,1.4644,1.3734,1.265,1.1699,1.1625,1.1349,1.0651,1.1249,1.135,1.0666,1.0946,1.1122,1.1144,1.2019,1.249,1.2498,1.2498,1.3193,1.4543,1.3965,1.4375,1.5631,1.5639,1.5816,1.6111,1.58,1.5814,1.6037,1.5702,1.5501,1.5475,1.6319,1.665,1.6563,1.5707,1.5945,1.6737,1.7049,1.7723,1.84,1.8075,1.8194,1.8491,1.8491,1.8725,1.9069,1.9483,1.9596,1.9482,1.8941,1.9467,1.9914,1.8983,1.9445,2.0107,2.0107,2.0107,2.0107,2.0107,2.0107,2.0107,2.0107,1.9353,1.8415,1.7454,1.8895,1.9775,1.8884,1.9556,2.0127,2.017,2.0161,2.0161,2.017,2.0192,2.054,2.1295,2.1706,2.2542,2.3965,2.4032,2.4338,2.4994,2.5008,2.4803,2.4363,2.4363,2.4158,2.3771,2.3285,2.3058,0.0,0.0,1.7254,1.6642,0.0,0.0,0.0,0.0,0.0,0.0,0.0,0.0,0.0,0.0,0.0,0.0,0.0,0.0,0.0,1.3248,1.3607,1.3906,1.3148,1.2527,1.2358,1.1886,1.1429,1.1026,1.1167,1.1125,1.0815,1.0779,1.1048,1.1679,1.2224,1.2711,1.3161,1.2937,1.329,1.4201,1.4039,1.4432,1.5308,1.5582,1.5761,1.588,1.608,1.6162,1.6196,1.6668,1.6802,1.6753,1.7053,1.7334,1.7523,1.7237,1.7446,1.7906,1.8021,1.8482,1.895,1.8474,1.8798,1.9365,1.9365,1.9622,2.0088,2.0899,2.1312,2.1397,2.0853,2.0948,2.0939,1.9957,1.9968,2.0198,2.0198,2.0198,2.0198,2.0198,2.0198,2.0198,2.0198,2.072,2.0793,1.9833,2.0239,2.0633,2.0537,2.0608,2.0873,2.1454,2.1569,2.1484,2.1212,2.1439,2.2103,2.3303,2.3781,2.4359,2.5123,2.5164,2.5145,2.5102,2.5104,2.4865,2.4402,2.4402,2.4334,2.4188,2.403,2.3648,1.7251,1.7606,0.0,1.727,1.7072,0.0,1.553,0.0,1.5456,0.0,0.0,0.0,0.0,0.0,0.0,0.0,0.0,0.0,0.0,1.3121,1.3287,1.3287,1.2765,1.2453,1.2576,1.2154,1.1594,1.0865,1.1338,1.1307,1.0481,1.0721,1.1177,1.1843,1.2506,1.3176,1.385,1.3633,1.4006,1.4956,1.4785,1.5213,1.6139,1.6399,1.6524,1.6525,1.6838,1.6839,1.6664,1.7236,1.7345,1.7176,1.7494,1.7865,1.8177,1.789,1.8211,1.8835,1.9142,1.9473,1.9704,1.9354,1.9717,2.0303,2.0303,2.0603,2.1105,2.1894,2.2305,2.2383,2.1837,2.1948,2.195,2.0973,2.0995,2.123,2.123,2.123,2.123,2.123,2.123,2.1275,2.1453,2.2087,2.2196,2.107,2.1616,2.2105,2.1978,2.2074,2.2363,2.2923,2.2886,2.2732,2.2469,2.2685,2.3343,2.4574,2.4924,2.5285,2.5686,2.5706,2.5581,2.5324,2.5303,2.5166,2.4859,2.4859,2.4793,2.4648,2.4648,2.4256]}]]